[[{"header":{"parameterUnit":"m.s-1","parameterCategory":1,"la1":30.6,"la2":28.766,"lo1":-90.7593,"lo2":-88.6598,"dy":0.0162,"dx":0.0183,"nx":116,"ny":114,"refTime":"2023-06-03T06:00:00:Z","depth":0,"parameterNumber":2,"parameterNumberName":"U-component_of_WINDS"},"data":[0.0,0.0,0.0,0.0,0.0,0.0,0.0,0.0,0.0,0.0,0.0,0.0,0.0,0.0,0.0,0.0,0.0,0.0,0.0,0.0,0.0,0.0,0.0,0.0,0.0,0.0,0.0,0.0,0.0,0.0,0.0,0.0,0.0,0.0,0.0,0.0,0.0,0.0,0.0,0.0,0.0,0.0,0.0,0.0,0.0,0.0,0.0,0.0,0.0,0.0,0.0,0.0,0.0,0.0,0.0,0.0,0.0,0.0,0.0,0.0,0.0,0.0,0.0,0.0,0.0,0.0,0.0,0.0,0.0,0.0,0.0,0.0,0.0,0.0,0.0,0.0,0.0,0.0,0.0,0.0,0.0,0.0,0.0,0.0,0.0,0.0,0.0,0.0,0.0,0.0,0.0,0.0,0.0,0.0,0.0,0.0,0.0,0.0,0.0,0.0,0.0,0.0,0.0,0.0,0.0,0.0,0.0,0.0,0.0,0.0,0.0,0.0,0.0,0.0,0.0,0.0,0.0,0.0,0.0,0.0,0.0,0.0,0.0,0.0,0.0,0.0,0.0,0.0,0.0,0.0,0.0,0.0,0.0,0.0,0.0,0.0,0.0,0.0,0.0,0.0,0.0,0.0,0.0,0.0,0.0,0.0,0.0,0.0,0.0,0.0,0.0,0.0,0.0,0.0,0.0,0.0,0.0,0.0,0.0,0.0,0.0,0.0,0.0,0.0,0.0,0.0,0.0,0.0,0.0,0.0,0.0,0.0,0.0,0.0,0.0,0.0,0.0,0.0,0.0,0.0,0.0,0.0,0.0,0.0,0.0,0.0,0.0,0.0,0.0,0.0,0.0,0.0,0.0,0.0,0.0,0.0,0.0,0.0,0.0,0.0,0.0,0.0,0.0,0.0,0.0,0.0,0.0,0.0,0.0,0.0,0.0,0.0,0.0,0.0,0.0,0.0,0.0,0.0,0.0,0.0,0.0,0.0,0.0,0.0,0.0,0.0,0.0,0.0,0.0,0.0,0.0,0.0,0.0,0.0,0.0,0.0,0.0,0.0,0.0,0.0,0.0,0.0,0.0,0.0,0.0,0.0,0.0,0.0,0.0,0.0,0.0,0.0,0.0,0.0,0.0,0.0,0.0,0.0,0.0,0.0,0.0,0.0,0.0,0.0,0.0,0.0,0.0,0.0,0.0,0.0,0.0,0.0,0.0,0.0,0.0,0.0,0.0,0.0,0.0,0.0,0.0,0.0,0.0,0.0,0.0,0.0,0.0,0.0,0.0,0.0,0.0,0.0,0.0,0.0,0.0,0.0,0.0,0.0,0.0,0.0,0.0,0.0,0.0,0.0,0.0,0.0,0.0,0.0,0.0,0.0,0.0,0.0,0.0,0.0,0.0,0.0,0.0,0.0,0.0,0.0,0.0,0.0,0.0,0.0,0.0,0.0,0.0,0.0,0.0,0.0,0.0,0.0,0.0,0.0,0.0,0.0,0.0,0.0,0.0,0.0,0.0,0.0,0.0,0.0,0.0,0.0,0.0,0.0,0.0,0.0,0.0,0.0,0.0,0.0,0.0,0.0,0.0,0.0,0.0,0.0,0.0,0.0,0.0,0.0,0.0,0.0,0.0,0.0,0.0,0.0,0.0,0.0,0.0,0.0,0.0,0.0,0.0,0.0,0.0,0.0,0.0,0.0,0.0,0.0,0.0,0.0,0.0,0.0,0.0,0.0,0.0,0.0,0.0,0.0,0.0,0.0,0.0,0.0,0.0,0.0,0.0,0.0,0.0,0.0,0.0,0.0,0.0,0.0,0.0,0.0,0.0,0.0,0.0,0.0,0.0,0.0,0.0,0.0,0.0,0.0,0.0,0.0,0.0,0.0,0.0,0.0,0.0,0.0,0.0,0.0,0.0,0.0,0.0,0.0,0.0,0.0,0.0,0.0,0.0,0.0,0.0,0.0,0.0,0.0,0.0,0.0,0.0,0.0,0.0,0.0,0.0,0.0,0.0,0.0,0.0,0.0,0.0,0.0,0.0,0.0,0.0,0.0,0.0,0.0,0.0,0.0,0.0,0.0,0.0,0.0,0.0,0.0,0.0,0.0,0.0,0.0,0.0,0.0,0.0,0.0,0.0,0.0,0.0,0.0,0.0,0.0,0.0,0.0,0.0,0.0,0.0,0.0,0.0,0.0,0.0,0.0,0.0,0.0,0.0,0.0,0.0,0.0,0.0,0.0,0.0,0.0,0.0,0.0,0.0,0.0,0.0,0.0,0.0,0.0,0.0,0.0,0.0,0.0,0.0,0.0,0.0,0.0,0.0,0.0,0.0,0.0,0.0,0.0,0.0,0.0,0.0,0.0,0.0,0.0,0.0,0.0,0.0,0.0,0.0,0.0,0.0,0.0,0.0,0.0,0.0,0.0,0.0,0.0,0.0,0.0,0.0,0.0,0.0,0.0,0.0,0.0,0.0,0.0,0.0,0.0,0.0,0.0,0.0,0.0,0.0,0.0,0.0,0.0,0.0,0.0,0.0,0.0,0.0,0.0,0.0,0.0,0.0,0.0,0.0,0.0,0.0,0.0,0.0,0.0,0.0,0.0,0.0,0.0,0.0,0.0,0.0,0.0,0.0,0.0,0.0,0.0,0.0,0.0,0.0,0.0,0.0,0.0,0.0,0.0,0.0,0.0,0.0,0.0,0.0,0.0,0.0,0.0,0.0,0.0,0.0,0.0,0.0,0.0,0.0,0.0,0.0,0.0,0.0,0.0,0.0,0.0,0.0,0.0,0.0,0.0,0.0,0.0,0.0,0.0,0.0,0.0,0.0,0.0,0.0,0.0,0.0,0.0,0.0,0.0,0.0,0.0,0.0,0.0,0.0,0.0,0.0,0.0,0.0,0.0,0.0,0.0,0.0,0.0,0.0,0.0,0.0,0.0,0.0,0.0,0.0,0.0,0.0,0.0,0.0,0.0,0.0,0.0,0.0,0.0,0.0,0.0,0.0,0.0,0.0,0.0,0.0,0.0,0.0,0.0,0.0,0.0,0.0,0.0,0.0,0.0,0.0,0.0,0.0,0.0,0.0,0.0,0.0,0.0,0.0,0.0,0.0,0.0,0.0,0.0,0.0,0.0,0.0,0.0,0.0,0.0,0.0,0.0,0.0,0.0,0.0,0.0,0.0,0.0,0.0,0.0,0.0,0.0,0.0,0.0,0.0,0.0,0.0,0.0,0.0,0.0,0.0,0.0,0.0,0.0,0.0,0.0,0.0,0.0,0.0,0.0,0.0,0.0,0.0,0.0,0.0,0.0,0.0,0.0,0.0,0.0,0.0,0.0,0.0,0.0,0.0,0.0,0.0,0.0,0.0,0.0,0.0,0.0,0.0,0.0,0.0,0.0,0.0,0.0,0.0,0.0,0.0,0.0,0.0,0.0,0.0,0.0,0.0,0.0,0.0,0.0,0.0,0.0,0.0,0.0,0.0,0.0,0.0,0.0,0.0,0.0,0.0,0.0,0.0,0.0,0.0,0.0,0.0,0.0,0.0,0.0,0.0,0.0,0.0,0.0,0.0,0.0,0.0,0.0,0.0,0.0,0.0,0.0,0.0,0.0,0.0,0.0,0.0,0.0,0.0,0.0,0.0,0.0,0.0,0.0,0.0,0.0,0.0,0.0,0.0,0.0,0.0,0.0,0.0,0.0,0.0,0.0,0.0,0.0,0.0,0.0,0.0,0.0,0.0,0.0,0.0,0.0,0.0,0.0,0.0,0.0,0.0,0.0,0.0,0.0,0.0,0.0,0.0,0.0,0.0,0.0,0.0,0.0,0.0,0.0,0.0,0.0,0.0,0.0,0.0,0.0,0.0,0.0,0.0,0.0,0.0,0.0,0.0,0.0,0.0,0.0,0.0,0.0,0.0,0.0,0.0,0.0,0.0,0.0,0.0,0.0,0.0,0.0,0.0,0.0,0.0,0.0,0.0,0.0,0.0,0.0,0.0,0.0,0.0,0.0,0.0,0.0,0.0,0.0,0.0,0.0,0.0,0.0,0.0,0.0,0.0,0.0,0.0,0.0,0.0,0.0,0.0,0.0,0.0,0.0,0.0,0.0,0.0,0.0,0.0,0.0,0.0,0.0,0.0,0.0,0.0,0.0,0.0,0.0,0.0,0.0,0.0,0.0,0.0,0.0,0.0,0.0,0.0,0.0,0.0,0.0,0.0,0.0,0.0,0.0,0.0,0.0,0.0,0.0,0.0,0.0,0.0,0.0,0.0,0.0,0.0,0.0,0.0,0.0,0.0,0.0,0.0,0.0,0.0,0.0,0.0,0.0,0.0,0.0,0.0,0.0,0.0,0.0,0.0,0.0,0.0,0.0,0.0,0.0,0.0,0.0,0.0,0.0,0.0,0.0,0.0,0.0,0.0,0.0,0.0,0.0,0.0,0.0,0.0,0.0,0.0,0.0,0.0,0.0,0.0,0.0,0.0,0.0,0.0,0.0,0.0,0.0,0.0,0.0,0.0,0.0,0.0,0.0,0.0,0.0,0.0,0.0,0.0,0.0,0.0,0.0,0.0,0.0,0.0,0.0,0.0,0.0,0.0,0.0,0.0,0.0,0.0,0.0,0.0,0.0,0.0,0.0,0.0,0.0,0.0,0.0,0.0,0.0,0.0,0.0,0.0,0.0,0.0,0.0,0.0,0.0,0.0,0.0,0.0,0.0,0.0,0.0,0.0,0.0,0.0,0.0,0.0,0.0,0.0,0.0,0.0,0.0,0.0,0.0,0.0,0.0,0.0,0.0,0.0,0.0,0.0,0.0,0.0,0.0,0.0,0.0,0.0,0.0,0.0,0.0,0.0,0.0,0.0,0.0,0.0,0.0,0.0,0.0,0.0,0.0,0.0,0.0,0.0,0.0,0.0,0.0,0.0,0.0,0.0,0.0,0.0,0.0,0.0,0.0,0.0,0.0,0.0,0.0,0.0,0.0,0.0,0.0,0.0,0.0,0.0,0.0,0.0,0.0,0.0,0.0,0.0,0.0,0.0,0.0,0.0,0.0,0.0,0.0,0.0,0.0,0.0,0.0,0.0,0.0,0.0,0.0,0.0,0.0,0.0,0.0,0.0,0.0,0.0,0.0,0.0,0.0,0.0,0.0,0.0,0.0,0.0,0.0,0.0,0.0,0.0,0.0,0.0,0.0,0.0,0.0,0.0,0.0,0.0,0.0,0.0,0.0,0.0,0.0,0.0,0.0,0.0,0.0,0.0,0.0,0.0,0.0,0.0,0.0,0.0,0.0,0.0,0.0,0.0,0.0,0.0,0.0,0.0,0.0,0.0,0.0,0.0,0.0,0.0,0.0,0.0,0.0,0.0,0.0,0.0,0.0,0.0,0.0,0.0,0.0,0.0,0.0,0.0,0.0,0.0,0.0,0.0,0.0,0.0,0.0,0.0,0.0,0.0,0.0,0.0,0.0,0.0,0.0,0.0,0.0,0.0,0.0,0.0,0.0,0.0,0.0,0.0,0.0,0.0,0.0,0.0,0.0,0.0,0.0,0.0,0.0,0.0,0.0,0.0,0.0,0.0,0.0,0.0,0.0,0.0,0.0,0.0,0.0,0.0,0.0,0.0,0.0,0.0,0.0,0.0,0.0,0.0,0.0,0.0,0.0,0.0,0.0,0.0,0.0,0.0,0.0,0.0,0.0,0.0,0.0,0.0,0.0,0.0,0.0,0.0,0.0,0.0,0.0,0.0,0.0,0.0,0.0,0.0,0.0,0.0,0.0,0.0,0.0,0.0,0.0,0.0,0.0,0.0,0.0,0.0,0.0,0.0,0.0,0.0,0.0,0.0,0.0,0.0,0.0,0.0,0.0,0.0,0.0,0.0,0.0,0.0,0.0,0.0,0.0,0.0,0.0,0.0,0.0,0.0,0.0,0.0,0.0,0.0,0.0,0.0,0.0,0.0,0.0,0.0,0.0,0.0,0.0,0.0,0.0,0.0,0.0,0.0,0.0,0.0,0.0,0.0,0.0,0.0,0.0,0.0,0.0,0.0,0.0,0.0,0.0,0.0,0.0,0.0,0.0,0.0,0.0,0.0,0.0,0.0,0.0,0.0,0.0,0.4515,0.0,0.0,0.0,0.0,0.0,0.0,0.0,0.0,0.0,0.0,0.0,0.0,0.0,0.0,0.0,0.0,0.0,0.0,0.0,0.0,0.0,0.0,0.0,0.0,0.0,0.0,0.0,0.0,0.0,0.0,0.0,0.0,0.0,0.0,0.0,0.0,0.0,0.0,0.8731,0.9678,1.0685,1.1751,1.3449,1.501,1.6477,0.0,0.0,0.0,0.0,0.0,0.0,0.0,0.0,0.0,0.0,0.0,0.0,0.0,0.0,0.0,0.0,0.0,0.0,0.0,0.0,0.0,0.0,0.0,0.0,0.0,0.0,0.0,0.0,0.0,0.0,0.0,0.0,0.0,0.0,0.0,0.0,0.0,0.0,0.0,0.0,0.0,0.0,0.0,0.0,0.0,0.0,0.0,0.0,0.0,0.0,0.0,0.0,0.0,0.0,0.0,0.0,0.0,0.0,0.0,0.0,0.0,0.0,0.0,0.0,0.0,0.0,0.0,0.0,0.0,0.0,0.0,0.494,0.0,0.0,0.0,0.0,0.0,0.0,0.0,0.0,0.0,0.0,0.0,0.0,0.0,0.0,0.0,0.0,0.0,0.0,0.0,0.0,0.0,0.0,0.0,-0.9114,-0.8822,-0.8671,-0.6871,-0.5063,0.0,0.0,0.0,0.0,0.0,0.0,0.5677,0.76,0.833,0.7763,0.8682,0.9655,1.0637,1.2272,1.3362,1.396,1.4958,0.0,0.0,0.0,0.0,0.0,0.0,0.0,0.0,0.0,0.0,0.0,0.0,0.0,0.0,0.0,0.0,0.0,0.0,0.0,0.0,0.0,0.0,0.0,0.0,0.0,0.0,0.0,0.0,0.0,0.0,0.0,0.0,0.0,0.0,0.0,0.0,0.0,0.0,0.0,0.0,0.0,0.0,0.0,0.0,0.0,0.0,0.0,0.0,0.0,0.0,0.0,0.0,0.0,0.0,0.0,0.0,0.0,0.0,0.0,0.0,0.0,0.0,0.0,0.0,0.7927,0.7153,0.7019,0.6282,0.5056,0.526,0.5061,0.4592,0.0,0.0,0.0,0.0,0.0,0.0,0.0,0.0,0.0,0.0,0.0,0.0,0.0,0.0,0.0,0.0,0.0,0.0,0.0,0.0,0.0,0.0,-0.9672,-0.964,-0.8913,-0.801,-0.6037,-0.2679,0.0,0.0,0.0,0.0,0.0,0.7206,0.7652,0.7986,0.8316,0.818,0.7999,0.7798,0.951,1.0394,1.0617,1.3579,1.5432,1.6324,0.0,0.0,0.0,0.0,0.0,0.0,0.0,0.0,0.0,0.0,0.0,0.0,0.0,0.0,0.0,0.0,0.0,0.0,0.0,0.0,0.0,0.0,0.0,0.0,0.0,0.0,0.0,0.0,0.0,0.0,0.0,0.0,0.0,0.0,0.0,0.0,0.0,0.0,0.0,0.0,0.0,1.1675,1.0764,0.0,0.0,0.0,0.0,0.0,0.0,0.0,0.0,0.0,0.0,0.0,0.0,0.0,0.0,0.7622,0.6972,0.6918,0.7443,0.6694,0.5947,0.5121,0.5202,0.482,0.4117,0.4273,0.0,0.1927,0.3179,0.0,0.0,0.0,0.0,0.0,0.0,0.0,0.0,0.0,0.0,0.0,0.0,0.0,0.0,0.0,0.0,0.0,0.0,0.0,0.0,0.0,-0.9554,-0.9613,-0.9279,-0.7139,-0.4669,-0.199,0.0561,0.0,0.0,0.0,0.655,0.6245,0.6044,0.5971,0.6056,0.6508,0.6745,0.6773,0.8181,0.911,0.9666,1.1277,1.2715,1.3978,1.4789,0.0,0.0,0.0,0.0,0.0,0.0,0.0,0.0,0.0,0.0,0.0,0.0,0.0,0.0,0.0,0.0,0.0,0.0,0.0,0.0,0.0,0.0,0.0,0.0,0.0,0.0,0.0,0.0,0.0,0.0,0.0,0.0,0.0,0.0,0.0,0.0,0.0,0.0,0.0,1.2981,1.1165,0.9944,1.0982,1.1966,0.0,0.0,0.0,0.0,0.0,0.0,0.0,0.0,0.0,0.8781,0.819,0.7633,0.7081,0.7034,0.6972,0.69,0.6693,0.6151,0.5348,0.5432,0.4998,0.423,0.4509,0.4133,0.3343,0.3909,0.4239,0.4516,0.0,0.0,0.0,0.0,0.0,0.4375,0.0,0.0,0.0,0.0,0.0,0.0,0.0,0.0,0.0,0.0,0.0,0.0,-0.9183,-0.9356,-0.9365,-0.9379,-0.6332,-0.3325,-0.0795,0.2442,0.463,0.5291,0.6157,0.6421,0.5855,0.4816,0.4347,0.4357,0.5349,0.5865,0.6084,0.7205,0.8061,0.8723,0.9163,1.0468,1.228,1.302,1.3641,1.4176,0.0,0.0,0.0,0.0,0.0,0.0,0.0,0.0,0.0,0.0,0.0,0.0,0.0,0.0,0.0,0.0,0.0,0.0,0.0,0.0,0.0,0.0,0.0,0.0,0.0,0.0,0.0,0.0,0.0,0.0,0.0,0.0,0.0,0.0,0.0,0.0,0.0,1.2696,1.1084,0.9784,1.0869,1.1901,0.0,0.0,0.0,0.0,0.0,0.0,1.0722,1.0286,0.9632,0.8753,0.8474,0.7875,0.6862,0.7159,0.7021,0.6496,0.6583,0.631,0.5552,0.557,0.5216,0.4639,0.4786,0.4848,0.4862,0.465,0.4616,0.4656,0.4553,0.4545,0.4579,0.4579,0.472,0.4905,0.0,0.0,0.0,0.0,0.0,0.0,0.0,0.0,0.0,0.0,0.0,-0.7605,-0.9227,-0.9136,-0.8931,-0.9002,-0.6322,-0.2894,0.1065,0.4602,0.6988,0.8035,0.7639,0.7344,0.7285,0.4826,0.3974,0.4779,0.5436,0.5557,0.5161,0.6242,0.6766,0.6894,0.783,0.9781,1.2348,1.1818,1.1977,1.2633,1.4039,0.0,0.0,0.0,0.0,0.0,0.0,0.0,0.0,0.0,0.0,0.0,0.0,0.0,0.0,0.0,0.0,0.0,0.0,0.0,0.0,0.0,0.0,0.0,0.0,0.0,0.0,0.0,0.0,0.0,0.0,0.0,0.0,0.0,0.0,0.0,0.0,0.0,0.0,1.039,1.0663,0.0,0.0,0.0,0.0,1.2151,1.2531,1.2272,1.1039,1.0805,1.0026,0.8397,0.8257,0.7948,0.7481,0.7012,0.6578,0.6224,0.5715,0.5314,0.4961,0.4814,0.4824,0.4891,0.4752,0.4772,0.4897,0.4807,0.4893,0.5076,0.4797,0.4769,0.4897,0.4897,0.5325,0.5918,0.0,0.0,0.0,0.0,0.0,0.0,0.0,0.0,-0.5875,-0.6531,-0.6103,-0.6532,-0.8599,-0.8296,-0.7422,-0.6085,-0.472,-0.1115,0.5498,0.6778,0.801,0.9579,0.8761,0.7486,0.5885,0.5258,0.5072,0.5272,0.5856,0.6082,0.5932,0.5906,0.6187,0.6875,0.7213,0.8261,0.986,1.0384,1.1107,1.1959,1.2842,1.3798,0.0,0.0,0.0,0.0,0.0,0.0,0.0,0.0,0.0,0.0,0.0,0.0,0.0,0.0,0.0,0.0,0.0,0.0,0.0,0.0,0.0,0.0,0.0,0.0,0.0,0.0,0.0,0.0,0.0,0.0,0.0,0.0,0.0,0.0,0.0,0.0,0.0,1.2014,1.209,0.0,0.0,1.1953,1.1797,1.1797,1.134,1.0822,1.0389,1.034,1.0086,0.9453,0.9628,0.9463,0.8913,0.7992,0.7274,0.6743,0.5841,0.5254,0.5053,0.4999,0.4955,0.4921,0.4958,0.5006,0.5057,0.5171,0.5113,0.4982,0.486,0.487,0.4979,0.5514,0.5887,0.6176,0.0,0.0,0.0,0.0,0.0,0.0,0.0,0.0,-0.5653,-0.6492,-0.5691,-0.5827,-0.7933,-0.6799,-0.5628,-0.4921,-0.2952,0.0893,0.7133,0.7234,0.8288,1.0982,0.9086,0.7589,0.6693,0.6974,0.7201,0.7175,0.7308,0.7096,0.6576,0.6147,0.6117,0.6543,0.6648,0.7271,0.8263,0.9031,0.9694,1.0275,1.111,1.2264,1.3556,0.0,0.0,0.0,0.0,0.0,0.0,0.0,0.0,0.0,0.0,0.0,0.0,0.0,0.0,0.0,0.0,0.0,0.0,0.0,0.0,0.0,0.0,0.0,0.0,0.0,0.0,0.0,0.0,0.0,0.0,0.0,0.0,0.0,0.0,0.0,1.349,1.3292,1.3057,1.2881,1.2881,1.2217,1.1846,1.2037,1.1522,1.1266,1.1393,1.1433,1.1546,1.1684,1.1802,1.1469,1.0635,0.9406,0.8253,0.7173,0.6032,0.5403,0.5206,0.5152,0.5231,0.5498,0.5549,0.5601,0.5656,0.6094,0.5948,0.5498,0.5192,0.5251,0.5557,0.6166,0.6723,0.7328,0.0,0.0,0.0,0.0,0.0,0.0,0.0,-0.546,-0.5795,-0.6527,-0.561,-0.5553,-0.7281,-0.4755,-0.3757,-0.5667,-0.12,0.2877,0.5611,0.6074,0.8082,1.2231,0.8705,0.7661,0.9957,1.0,1.0173,1.0598,0.9782,0.8562,0.7078,0.6972,0.6564,0.5888,0.6152,0.6911,0.7891,0.7824,0.7672,0.7666,0.8844,1.012,1.1491,0.0,0.0,0.0,0.0,0.0,0.0,0.0,0.0,0.0,0.0,0.0,0.0,0.0,0.0,0.0,0.0,0.0,0.0,0.0,0.0,0.0,0.0,0.0,0.0,0.0,0.0,0.0,0.0,0.0,0.0,0.0,0.0,0.0,1.5213,1.4748,1.4337,1.4135,1.3428,1.293,1.292,1.2539,1.2471,1.2949,1.3371,1.3781,1.4236,1.4267,1.4497,1.4951,1.4589,1.3774,1.2458,1.1068,0.9383,0.7371,0.6297,0.572,0.5435,0.5284,0.5739,0.6724,0.6544,0.6566,0.6793,0.7637,0.7502,0.6654,0.5818,0.6009,0.6719,0.6785,0.7897,0.943,0.0,0.0,0.0,0.0,0.0,0.0,0.0,-0.6023,-0.6123,-0.6842,-0.5444,-0.5104,-0.7025,-0.5333,-0.3677,-0.2802,-0.096,0.1925,0.5914,0.7948,0.9676,1.121,0.837,0.8466,1.2139,1.2291,1.3033,1.4455,1.3388,1.2319,1.1155,0.9122,0.8235,0.8136,0.6904,0.7383,0.9063,0.7735,0.7579,0.8178,0.8172,0.8965,1.0382,0.0,0.0,0.0,0.0,0.0,0.0,0.0,0.0,0.0,0.0,0.0,0.0,0.0,0.0,0.0,0.0,0.0,0.0,0.0,0.0,0.0,0.0,0.0,0.0,0.0,0.0,0.0,0.0,0.0,0.0,0.0,0.0,1.54,1.4736,1.4398,1.4143,1.4121,1.4209,1.4131,1.3818,1.4114,1.4624,1.5206,1.5539,1.5833,1.6079,1.5984,1.5863,1.5728,1.5769,1.5282,1.4121,1.2721,1.0961,0.8877,0.7555,0.6879,0.6781,0.6733,0.7285,0.8216,0.7932,0.7873,0.7917,0.7957,0.7827,0.7632,0.7377,0.7442,0.7697,0.8355,0.9262,1.0288,0.0,0.0,0.0,0.0,0.0,0.0,0.0,-0.6631,-0.647,-0.6848,-0.5641,-0.5156,-0.6221,-0.4439,-0.2757,-0.1821,-0.0335,0.1601,0.4216,0.7158,0.8761,0.8619,0.8216,1.0155,1.4765,1.4779,1.5735,1.7825,1.6475,1.5232,1.4155,1.1432,1.0205,1.0194,0.8686,0.8804,1.0128,0.8927,0.8862,0.9452,0.8535,0.864,0.953,1.0847,1.1937,1.2813,1.3058,1.2866,1.2131,1.0068,0.0,0.0,0.0,0.0,0.0,0.0,0.0,0.0,0.0,0.0,0.0,0.0,0.0,0.0,0.0,0.0,0.0,0.0,0.0,0.0,0.0,0.0,0.0,0.0,1.7178,1.6972,1.6567,1.5587,1.501,1.5148,1.5283,1.5387,1.5447,1.5673,1.6224,1.7082,1.7868,1.8378,1.8501,1.895,1.9236,1.9214,1.8561,1.7931,1.7321,1.5067,1.2826,1.0754,0.9325,0.8406,0.7915,0.8075,0.8684,0.0,0.9394,0.9339,0.9311,0.9302,0.9023,0.0,0.0,0.0,0.0,0.0,1.0174,1.0624,0.0,0.0,0.0,0.0,0.0,0.0,0.0,-0.7111,-0.6818,-0.6732,-0.5906,-0.5239,-0.5031,-0.2695,-0.13,-0.1715,0.0274,0.1271,0.0542,0.4122,0.599,0.5413,0.8036,1.1915,1.699,1.7165,1.8363,2.0677,1.9326,1.8082,1.6843,1.4223,1.2804,1.2468,1.1341,1.1017,1.1331,1.1044,1.1091,1.1175,0.9574,0.8959,0.9075,1.0411,1.0915,1.0989,1.1447,1.1002,0.9993,0.8502,0.0,0.0,0.0,0.0,0.0,0.0,0.0,0.0,0.0,0.0,0.0,0.0,0.0,0.0,0.0,0.0,0.0,0.0,0.0,0.0,0.0,0.0,0.0,0.0,1.8359,1.9203,1.9828,1.8105,1.6835,1.7026,1.671,1.681,1.7571,1.7423,1.7807,1.9137,2.0451,2.134,2.1545,0.0,0.0,0.0,0.0,2.1479,2.1197,1.8064,1.5348,1.3018,1.1651,1.0325,0.9184,0.947,1.0098,1.087,1.084,1.0821,1.1,1.1174,1.0777,0.9886,0.8766,0.8742,0.953,1.0301,1.0624,0.0,0.0,0.0,0.0,0.0,0.0,0.0,0.0,-0.7336,-0.7212,-0.7296,-0.5519,-0.3941,-0.3206,-0.1844,-0.0553,0.0477,0.0252,-0.1914,-0.6447,-0.1525,0.2266,0.3856,0.7412,1.1442,1.5848,1.8395,2.0733,2.2827,2.3425,2.2859,2.1152,1.8844,1.7389,1.6598,1.4508,1.3984,1.4713,1.3373,1.2655,1.2352,1.1113,1.0154,0.9513,0.9075,0.9269,0.9682,0.9304,0.9372,0.9402,0.8066,0.7444,0.7279,0.7448,0.7811,0.0,0.0,0.0,0.0,0.0,0.0,0.0,0.0,0.0,0.0,0.0,0.0,0.0,0.0,0.0,0.0,0.0,0.0,0.0,2.0858,2.0849,2.1068,2.2486,2.174,2.0499,1.9131,1.8908,1.891,1.9104,2.0262,2.1559,2.2932,2.3829,2.494,2.6272,2.6648,0.0,2.7155,2.6825,2.5625,2.3464,2.2177,1.9473,1.5502,0.0,0.0,1.155,1.1608,1.1929,1.2332,1.2096,1.2424,1.3107,1.295,1.2489,1.179,1.0591,1.0168,1.0364,1.0561,1.0624,1.0658,0.0,0.0,0.0,0.0,0.0,0.0,0.0,-0.8006,-0.778,-0.773,-0.6314,-0.4781,-0.3268,-0.1616,-0.0301,0.0514,-0.0846,-0.2817,-0.5334,-0.3717,-0.1181,0.2265,0.7146,1.1573,1.542,1.8747,2.1781,2.4475,2.497,2.4734,2.3975,2.1314,1.9752,1.909,1.7016,1.6469,1.6969,1.6235,1.5574,1.487,1.364,1.24,1.1069,0.9771,0.9149,0.8856,0.8506,0.8137,0.7812,0.777,0.7579,0.7364,0.7895,0.8422,0.886,0.0,0.0,0.0,0.0,0.0,0.0,0.0,0.0,0.0,0.0,0.0,0.0,0.0,0.0,1.7443,0.0,0.0,1.9594,2.1284,2.2309,2.3289,2.4431,2.3973,2.2926,2.105,2.0862,2.0996,2.1463,2.2667,2.3891,2.4991,2.712,2.8604,2.8976,3.0358,3.1108,3.1024,3.0278,2.9066,2.7348,2.5632,2.2829,1.9061,1.8056,1.6424,1.434,1.4449,1.4533,1.4455,1.4283,1.4515,1.4906,1.4292,1.3597,1.2908,1.2093,1.1261,1.0624,1.0624,1.0624,1.0665,0.0,0.0,0.0,0.0,0.0,0.0,0.0,-0.8573,-0.8287,-0.7791,-0.7251,-0.6094,-0.4003,-0.1973,-0.0549,-0.0,-0.2045,-0.3254,-0.2982,-0.4707,-0.3672,0.0984,0.7177,1.2081,1.543,1.9007,2.2364,2.5553,2.5911,2.6007,2.579,2.337,2.1945,2.1375,1.9723,1.9089,1.9187,1.91,1.8386,1.7131,1.5942,1.4573,1.2943,1.1315,0.9908,0.8695,0.8582,0.7776,0.6945,0.7851,0.7991,0.7854,0.8462,0.9012,0.9503,0.9298,1.0258,0.0,0.0,0.0,0.0,0.0,0.0,0.0,0.0,0.0,1.9168,1.8194,1.8275,1.8307,1.7728,1.8994,2.0342,2.1081,2.3131,2.485,2.5393,2.5371,2.4718,2.3062,2.2765,2.304,2.3744,2.4616,2.5576,2.6587,2.9649,3.1394,3.1146,3.3655,3.5029,3.4956,3.3789,3.267,3.1688,2.9052,2.6261,2.3268,2.2027,1.9976,1.7338,1.7609,1.7243,1.643,1.6447,1.6455,1.6455,1.5492,1.4664,1.4034,1.3486,1.2373,1.1042,1.0789,1.0672,1.0672,0.0,0.0,0.0,0.0,0.0,0.0,0.0,0.0,-0.8544,-0.7281,-0.7249,-0.6543,-0.4534,-0.2941,-0.139,0.0141,-0.2446,-0.4611,-0.568,-0.5759,-0.3815,0.0546,0.7673,1.2885,1.5683,1.9855,2.3128,2.543,2.7917,2.8324,2.6847,2.6796,2.6239,2.5121,2.347,2.2399,2.1872,2.1249,1.955,1.7153,1.7018,1.5864,1.4154,1.3006,1.1466,0.9971,0.9611,0.9118,0.8613,0.8765,0.8678,0.8544,0.8702,0.912,0.9419,0.8989,1.0044,1.1381,1.1819,1.4349,1.7118,1.8062,1.8755,1.9364,0.0,0.0,1.8865,1.9101,1.8699,1.8606,1.9631,1.9857,2.0501,2.2241,2.3518,2.4481,2.5001,2.5767,2.6077,2.5294,2.4888,2.4767,2.4826,2.5758,2.6956,2.8543,3.0221,3.2079,3.4091,3.6146,3.7511,3.809,3.7938,3.7187,3.5768,3.323,3.0687,2.8174,2.6342,2.3766,2.0632,2.0687,1.9517,1.7335,1.7507,1.7552,1.7489,1.6705,1.6165,1.5704,1.4807,1.3715,1.2506,1.1366,1.0782,1.0641,0.0,0.0,0.0,0.0,0.0,0.0,0.0,0.0,0.0,-0.7904,-0.7196,-0.6325,-0.529,-0.3862,-0.312,-0.3408,-0.3835,-0.4645,-0.5963,-0.7079,-0.5225,0.0308,0.6788,1.157,1.4324,1.8548,2.2296,2.5438,2.7312,2.8033,2.7595,2.702,2.6437,2.5765,2.4048,2.3318,2.3347,2.1895,2.0202,1.8443,1.7735,1.6364,1.4736,1.3857,1.2909,1.1815,1.0058,0.9086,0.0,0.9192,0.9253,0.9258,0.9886,1.0117,1.0091,0.9933,1.0721,1.195,1.3372,1.5765,1.8013,1.8961,1.9206,1.9539,2.0659,2.016,1.9463,1.9465,1.9495,1.9576,1.9679,2.0286,2.105,0.0,2.2977,2.4107,2.4898,2.4759,2.4774,2.5106,2.4732,2.4591,2.4878,2.5724,2.6878,2.845,3.0667,3.2955,3.5221,3.7259,3.8816,3.9915,3.9648,3.8922,3.7801,3.6032,3.3614,3.047,2.9276,2.7096,2.4004,2.3548,2.2004,1.9732,1.9608,1.9165,1.8524,1.7517,1.6968,1.6741,1.5771,1.4999,1.4262,1.2675,1.1584,1.0868,0.0,0.0,0.0,0.0,0.0,0.0,0.0,0.0,0.0,0.0,-0.7243,-0.6403,-0.5692,-0.4673,-0.4439,-0.5415,-0.5642,-0.562,-0.5392,-0.6839,-0.5321,0.0064,0.6363,1.0904,1.3324,1.7569,2.1439,2.5007,2.6517,2.742,2.7637,2.7025,2.6421,2.5961,2.4415,2.3787,2.3782,2.2039,2.0326,1.8795,1.7903,1.6509,1.4884,1.4364,1.3733,1.3011,1.0813,0.9663,0.9236,0.9784,0.9925,0.997,1.0772,1.0911,1.0773,1.1069,1.1584,1.252,1.4671,1.6527,1.8229,1.9571,2.0059,2.046,2.1532,2.1506,2.1038,2.0206,2.0517,2.0566,1.9637,2.0236,2.0847,2.0959,2.2296,2.366,2.4504,2.4089,2.3981,2.4773,2.4279,2.4002,2.4356,2.5249,2.643,2.8111,3.0556,3.3005,3.5356,3.7658,3.9412,4.0569,4.0431,3.9995,3.9409,3.8003,3.5954,3.3364,3.2256,3.0317,2.7543,2.5764,2.3972,2.2225,2.1225,2.0267,1.9372,1.8114,1.7559,1.7482,1.6768,1.6163,1.5635,1.4004,1.2572,1.1438,0.0,0.0,0.0,0.0,0.0,0.0,0.0,0.0,0.0,0.0,0.0,0.0,0.0,-0.527,-0.4898,-0.4032,-0.7713,-0.8388,-0.4337,-0.4234,-0.3029,-0.0133,0.7008,1.1648,1.3182,1.751,2.1153,2.3837,2.6072,2.7047,2.6774,2.7363,2.7248,2.6418,2.5302,2.4136,2.293,2.178,1.9715,1.7259,1.7259,1.6327,1.4831,1.4345,1.3818,1.3084,1.2245,1.179,1.1511,1.0902,1.0674,1.0718,1.1034,1.1063,1.1234,1.2113,1.2406,1.2859,1.4624,1.6107,1.7622,1.9685,2.1393,2.2546,2.2476,2.344,2.3779,2.1565,2.169,2.17,2.0149,1.9627,1.9521,1.9907,2.1634,2.3088,2.3503,2.4238,2.4785,2.4914,2.3948,2.3362,0.0,2.4363,2.5855,2.8008,2.9571,3.1678,3.4612,3.731,3.9105,3.9783,4.0521,4.0839,4.0822,3.8942,3.789,3.7788,3.5633,3.3479,3.1309,2.7233,2.5043,2.435,2.1876,2.0422,1.9754,1.8506,1.7988,1.7988,1.792,1.7404,1.6408,1.5138,1.3691,1.2435,0.0,0.0,0.0,0.0,0.0,0.0,0.0,0.0,0.0,0.0,0.0,0.0,0.0,0.0,0.0,0.0,-0.2319,-0.2061,-0.1505,-0.1311,-0.0574,0.0905,0.5755,0.8882,0.988,1.4287,1.8045,2.1081,2.2802,2.387,2.4167,2.4067,2.4106,2.4155,2.238,2.1699,2.1608,1.9074,1.7443,1.6522,1.5838,1.4735,1.3481,1.2971,1.2343,1.173,0.0,1.0805,1.0708,1.0271,0.9782,0.954,1.006,1.0253,1.0608,1.2351,1.3717,1.4924,1.6352,1.7878,1.9639,2.2094,2.294,2.3549,2.5311,2.5263,2.4382,2.2921,2.2218,2.1425,1.9849,1.9469,1.9467,1.9633,2.0597,2.1659,2.28,2.2891,2.2977,2.3167,2.331,0.0,0.0,0.0,0.0,2.6904,2.8297,3.033,3.3231,3.5443,3.7183,3.8402,3.9192,3.9784,4.0148,3.9632,3.8432,3.6534,3.3851,3.1942,3.0675,2.8699,2.6804,2.5056,2.3317,2.1574,1.985,1.8833,1.8087,1.7568,1.7275,1.6954,1.6599,1.6188,1.481,1.3068,0.0,0.0,0.0,0.0,0.0,0.0,0.0,0.0,0.0,0.0,0.0,0.0,0.0,0.0,0.0,0.0,0.0,0.435,0.2454,0.2738,0.3053,0.3235,0.5775,0.7436,0.798,1.1689,1.4883,1.7352,1.8614,1.9727,2.0597,2.0272,2.0404,2.0798,1.9702,1.9014,1.8515,1.6656,1.5431,1.47,1.3995,1.3194,1.238,1.185,1.1475,0.0,1.0376,0.9953,0.971,0.9777,0.9347,0.8883,0.9555,1.0337,1.1305,1.299,1.4697,1.6333,1.7597,1.9081,2.0925,2.3701,2.4476,2.5026,2.7093,2.6694,2.5324,2.3649,2.2443,2.1217,1.9459,1.9022,1.8904,1.8869,1.9715,2.0863,2.2316,2.2411,2.2616,2.3475,2.3589,2.3448,0.0,0.0,0.0,2.6395,2.7703,2.9513,3.2124,3.3986,3.554,3.689,3.7714,3.8433,3.906,3.8963,3.7724,3.5403,3.3301,3.1762,3.0703,2.9586,2.7865,2.5662,2.4211,2.2479,2.0533,1.935,1.8544,1.8011,1.7258,1.6963,1.686,1.5961,1.4772,1.3435,0.0,0.0,0.0,0.0,0.0,0.0,0.0,0.0,0.0,0.0,0.0,0.0,0.0,0.0,0.0,0.0,0.0,0.0,0.7194,0.7554,0.7406,0.6406,0.6984,0.7405,0.755,0.9914,1.1696,1.2871,1.3891,1.5017,1.6175,1.6242,1.6308,1.6518,1.7147,1.612,1.4022,1.4665,1.3768,1.1839,1.1866,1.1781,1.1591,1.1121,1.1115,1.1074,0.9963,0.9127,0.8678,0.9436,0.9242,0.8883,0.9613,1.1354,1.3284,1.4087,1.5476,1.7009,1.8358,1.9707,2.1439,2.4504,2.5899,2.6761,2.7865,2.7668,2.6482,2.3827,2.2468,2.1101,0.0,0.0,1.805,1.7813,1.9172,2.0724,2.2103,2.2807,2.3808,0.0,0.0,0.0,0.0,0.0,0.0,2.6399,0.0,2.9285,3.1332,3.2854,3.4151,3.5318,3.6216,3.6997,3.7626,3.7038,3.5998,3.4627,3.3913,3.287,3.1452,3.0017,2.8266,2.6337,2.4663,2.3133,2.1753,2.0052,1.9323,1.9128,1.7885,1.739,1.6983,1.4562,1.3655,1.3625,0.0,0.0,0.0,0.0,0.0,0.0,0.0,0.0,0.0,0.0,0.0,0.0,0.0,0.0,0.0,0.0,0.0,0.0,0.9003,0.8679,0.7743,0.6089,0.6869,0.7116,0.6766,0.7918,0.8829,0.9363,1.0785,1.1671,1.2139,1.239,1.2592,1.2603,1.21,1.1913,1.1948,1.1443,1.1229,1.122,1.1275,1.0526,0.9379,0.9312,0.8703,0.7823,0.7509,0.6934,0.6499,0.777,0.8687,0.9538,1.0473,1.183,1.3385,1.5309,1.6609,1.7888,1.9985,2.1281,2.2654,2.5436,2.6321,2.6794,2.7834,2.7039,2.5485,2.3564,2.1617,2.0015,0.0,0.0,0.0,1.9842,2.0698,0.0,2.347,2.4172,0.0,2.4469,0.0,2.5078,2.4405,2.5227,0.0,0.0,2.7622,2.9169,3.0664,3.2083,3.2641,3.233,3.4197,3.5278,3.5278,3.5217,3.481,3.3954,3.2684,3.1847,3.1467,3.0483,2.8964,2.6989,2.5988,2.414,2.1854,2.0935,1.9694,1.827,1.7843,1.696,1.5807,1.4896,1.3994,1.3096,0.0,0.0,0.0,0.0,0.0,0.0,0.0,0.0,0.0,0.0,0.0,0.0,0.0,0.0,0.0,0.0,0.0,0.0,0.0,1.0425,0.952,0.7822,0.8242,0.7909,0.6706,0.7159,0.7201,0.6683,0.7634,0.8159,0.8343,0.8728,0.9112,0.9507,0.8715,0.8727,0.926,0.935,0.9646,0.0,0.0,0.891,0.8027,0.7637,0.7106,0.6539,0.6249,0.5764,0.5449,0.7003,0.8052,0.8953,1.0425,1.1675,1.3023,1.5514,1.6983,1.8316,2.0541,2.1671,2.2735,2.5157,2.5946,2.6183,2.6552,2.5707,2.4463,2.2959,2.1083,1.9628,1.9268,1.9293,0.0,0.0,0.0,0.0,2.3091,2.4437,2.5217,0.0,2.5908,0.0,2.5269,2.5872,2.6418,0.0,2.7712,2.8641,2.9346,3.0413,3.0881,3.0657,3.1961,3.2752,3.2992,3.311,3.3046,3.271,3.192,3.1375,3.1019,3.0306,2.9016,2.7343,0.0,2.4728,2.2857,2.1524,2.0297,1.9024,1.7983,1.69,1.5856,1.4906,1.3918,1.2887,0.0,0.0,0.0,0.0,0.0,0.0,0.0,0.0,0.0,0.0,0.0,0.0,0.0,0.0,0.0,0.0,0.0,0.0,0.0,0.0,1.1979,1.0627,1.029,0.9221,0.7238,0.7258,0.6599,0.5169,0.5178,0.5262,0.5495,0.5639,0.6087,0.6668,0.6018,0.5779,0.5973,0.7171,0.7866,0.8147,0.7322,0.6987,0.6895,0.0,0.605,0.6228,0.5592,0.5179,0.5146,0.673,0.7537,0.8153,1.0087,1.1505,1.2923,1.55,1.7124,1.8507,2.0706,2.152,2.2262,2.4354,2.5179,2.5251,2.4826,2.4112,2.327,2.2237,2.0736,1.9695,1.9771,1.9886,1.9672,1.8852,0.0,2.1938,2.2515,2.4354,2.5851,2.6412,2.7,2.7081,2.6559,2.6665,2.7011,2.7503,2.7679,2.7909,2.8136,2.8684,2.9263,2.9837,2.9817,3.0233,3.1094,3.118,3.1302,3.1482,3.1482,3.1165,3.0477,2.9953,2.8887,2.7417,0.0,0.0,2.4124,2.2061,2.0868,2.0214,1.8223,1.7093,1.634,1.4832,1.3709,1.2887,0.0,0.0,0.0,0.0,0.0,0.0,0.0,0.0,0.0,0.0,-0.193,-0.1713,0.0,0.0,0.0,0.0,0.0,0.0,0.0,0.0,0.0,1.2942,1.1558,1.018,0.8841,0.8066,0.7285,0.6465,0.5886,0.555,0.5491,0.499,0.4132,0.3046,0.1711,0.1483,0.2075,0.2289,0.3493,0.5155,0.4985,0.4903,0.4999,0.5673,0.0,0.0,0.4739,0.471,0.4886,0.5931,0.7659,0.9592,1.1055,1.2857,1.4846,1.6858,1.7764,1.872,2.1396,2.1955,2.2401,2.4747,2.4763,2.4228,2.4089,2.2922,2.1807,2.1412,2.0417,1.9866,2.0618,2.0528,2.0907,2.2643,2.2566,2.3121,2.5567,2.5807,2.5932,0.0,2.6966,2.7092,2.654,0.0,0.0,0.0,0.0,0.0,2.8771,2.8959,2.9025,2.9155,2.8985,2.9405,3.0427,3.0978,3.1302,3.1482,3.1482,3.1165,3.0507,3.0387,2.9286,2.7446,0.0,0.0,2.4182,2.2698,2.1068,1.9479,1.897,1.7487,1.5545,1.5004,1.4005,1.2887,0.0,0.0,0.0,0.0,0.0,0.0,0.0,-0.8738,-0.8279,-0.6715,-0.4891,-0.3464,-0.2786,-0.1696,0.0,0.0,0.0,0.0,0.0,0.0,0.0,0.0,1.2731,1.1652,0.9956,0.9277,0.8199,0.6694,0.0,0.5462,0.4938,0.3569,0.2279,0.0943,-0.1333,-0.2164,-0.1766,-0.0716,-0.022,-0.0,0.2314,0.3269,0.3287,0.379,0.0,0.0,0.4919,0.4912,0.4934,0.5911,0.7696,0.9725,1.1271,1.2991,1.4793,1.6455,1.7182,1.7781,1.9783,2.0688,2.1436,2.284,2.3152,2.2931,2.2035,2.1428,2.0962,2.0731,2.0286,2.0239,2.1154,2.1263,2.1428,2.2024,2.2439,2.3125,2.4258,2.5116,2.5762,2.6032,2.681,2.7101,0.0,0.0,0.0,0.0,0.0,0.0,2.7636,2.7382,2.7259,2.7262,2.7128,2.7799,2.9223,2.9755,3.0369,3.1001,3.1001,3.0657,3.0013,2.9669,2.8769,2.7432,2.6357,0.0,2.4195,2.2872,2.1653,2.0552,1.9281,1.7954,1.6647,1.5552,1.4496,1.3485,0.0,0.0,0.0,0.0,0.0,0.0,0.0,-1.0603,-0.8572,-0.9237,-0.7682,-0.5705,-0.3584,-0.2856,-0.1061,0.0,0.0,0.0,0.0,0.0,0.0,0.0,0.0,0.0,1.0943,0.0,0.0,0.7015,0.6246,0.0,0.0,0.0,0.0,0.0,-0.3569,-0.4768,-0.4591,-0.3056,-0.3176,0.0,0.0,0.1451,0.0,0.0,0.0,0.0,0.0,0.5079,0.4986,0.5884,0.7479,0.9409,1.0858,1.2505,1.4232,1.5583,1.6262,1.6866,1.8231,1.9283,2.0142,2.0907,2.1332,2.1286,2.022,2.0119,2.0235,2.0199,2.0335,2.0735,2.1595,2.1781,2.1601,2.1038,2.1813,2.255,2.2697,2.4204,2.5336,0.0,2.659,0.0,0.0,0.0,0.0,0.0,0.0,0.0,0.0,2.5904,2.5668,2.5794,2.5577,2.6233,2.792,2.8374,2.91,3.0045,3.0242,2.9983,2.9355,2.8981,2.8252,2.723,2.6078,0.0,0.0,2.2872,2.2014,2.1353,1.9297,1.8156,1.7486,1.5949,1.4864,1.4085,0.0,0.0,0.0,0.0,0.0,0.0,0.0,-0.8381,-0.9486,-0.8851,-0.8436,-0.7468,-0.5618,-0.4685,-0.3158,0.0,0.0,0.0,0.0,0.0,0.0,0.0,0.0,0.0,0.0,0.0,0.0,0.8343,0.6804,0.0,0.0,0.0,0.0,0.0,0.0,-0.5622,-0.5382,-0.521,0.0,0.0,0.0,0.0,0.0,0.0,0.0,0.0,0.0,0.464,0.4819,0.5329,0.692,0.8831,0.9625,1.18,1.426,1.4918,1.5732,1.6647,1.8252,1.8701,1.9079,2.0814,2.0159,1.9252,1.9851,1.9512,1.9286,2.0044,2.0575,2.1187,2.2068,2.1615,2.1455,2.2595,2.1725,2.1624,2.3749,2.4137,2.4585,2.5466,0.0,0.0,0.0,0.0,0.0,0.0,0.0,0.0,0.0,2.59,2.5824,2.642,2.541,2.555,2.6993,2.7244,2.779,2.8595,2.9351,2.9325,2.8712,2.925,2.8429,2.6572,0.0,0.0,0.0,2.2872,2.1617,2.0391,1.9023,1.775,1.655,1.572,1.4864,1.4085,0.0,0.0,0.0,0.0,0.0,0.0,-0.8931,-0.999,-1.0071,-1.0024,-0.9474,-0.8418,-0.6674,-0.6089,-0.4877,0.0,0.0,0.0,0.0,0.0,0.0,0.0,0.0,0.0,0.0,0.0,0.914,0.6131,0.4004,0.0,0.0,0.0,0.0,0.0,0.0,0.0,-0.5487,-0.5058,0.0,0.0,0.0,0.0,0.0,0.0,0.0,0.0,0.0,0.0,0.4622,0.481,0.6147,0.7768,0.8054,0.98,1.2054,1.3874,1.4858,1.5454,1.6603,1.7569,1.8341,1.8688,1.8249,1.7891,1.8468,1.8235,1.8248,1.9562,2.0242,2.075,2.1399,2.1229,2.1069,2.1321,2.0848,2.0818,2.1897,2.2275,2.3004,2.4429,2.5291,0.0,0.0,0.0,0.0,0.0,0.0,0.0,0.0,2.5724,2.5561,2.5473,2.5046,2.5179,2.5871,2.678,2.7423,2.7862,2.903,2.9026,2.8008,2.8682,2.7847,2.5851,0.0,0.0,0.0,2.2652,2.1998,2.1354,1.98,1.8555,1.7549,1.6472,1.5575,1.4815,0.0,0.0,0.0,0.0,0.0,-0.2196,-0.903,-1.0328,-1.0527,-1.0514,-0.9461,-0.8258,-0.7134,-0.7453,-0.7064,-0.5403,0.0,0.0,0.0,0.0,0.0,0.0,0.0,0.0,0.0,0.0,0.73,0.3257,0.081,-0.1005,0.0,0.0,0.0,0.0,0.0,0.0,0.0,0.0,0.0,0.0,0.0,0.0,0.0,0.0,0.0,0.0,0.0,0.0,0.0,0.0,0.0,0.6971,0.7049,0.8291,1.016,1.2504,1.3576,1.4145,1.4897,1.6112,1.7055,1.6751,1.664,1.6765,1.7216,1.738,1.7773,1.9082,1.9854,2.0449,2.0926,2.0894,2.0682,2.0348,2.0177,2.03,2.0838,2.1195,2.1995,0.0,0.0,0.0,0.0,0.0,0.0,0.0,0.0,0.0,0.0,2.5904,2.561,2.4833,2.4494,2.4493,2.4836,2.584,2.6519,2.6899,2.7853,2.7983,2.7321,2.795,2.7101,2.5063,0.0,0.0,0.0,2.2121,2.1832,2.1675,1.9987,1.8899,1.8069,1.6949,1.6036,1.5294,0.0,0.0,0.0,0.0,0.0,0.0,-0.4207,-0.8233,-1.0886,-0.9747,-0.7997,-0.6863,-0.7001,-0.8772,-1.0002,-1.0116,0.0,0.0,0.0,0.0,0.0,0.0,0.0,0.0,0.0,0.0,0.3604,0.0046,-0.2256,-0.3697,-0.4391,-0.5762,-0.6763,0.0,0.0,0.0,0.0,0.0,0.0,0.0,0.0,0.0,0.0,0.0,0.0,0.0,0.0,0.0,0.0,0.0,0.0,0.0,0.0,0.7909,0.9125,1.0624,1.1899,1.2922,1.348,1.4353,1.5179,1.5599,1.5606,1.5668,1.6364,1.7195,1.798,1.8664,1.9591,2.0449,2.0926,2.0616,2.0314,2.0314,1.9965,2.0138,2.1384,2.1458,2.1884,0.0,0.0,0.0,0.0,0.0,0.0,0.0,0.0,0.0,0.0,0.0,2.6091,2.4833,2.374,2.3427,2.3991,2.4196,2.4694,2.5412,2.5412,2.5797,2.6525,2.7212,2.6372,0.0,0.0,0.0,0.0,2.1142,2.0743,2.0573,1.9209,1.8232,1.7523,1.6754,1.6036,1.5294,0.0,0.0,0.0,0.0,0.0,0.0,0.0,-1.035,-1.1755,-1.1302,-1.0205,-0.938,-0.9144,-1.1005,-1.2395,-1.2697,0.0,0.0,0.0,0.0,0.0,0.0,0.0,0.0,0.0,0.0,0.0535,-0.1785,-0.5315,-0.6935,-0.6806,-0.6965,-0.7245,-0.7524,-0.614,0.0,0.0,0.0,0.0,0.0,0.0,0.0,0.0,0.0,0.0,0.0,0.0,0.0,0.0,0.0,0.0,0.0,0.0,0.0,0.0,0.9223,1.0331,1.1426,1.224,1.3132,1.3817,1.3792,1.3976,1.4455,1.5301,1.5843,1.6645,1.8039,1.8887,1.9507,2.0035,1.998,2.0025,2.0509,2.0452,2.0676,2.1547,0.0,0.0,0.0,0.0,0.0,0.0,0.0,0.0,0.0,0.0,0.0,0.0,0.0,2.6188,2.5775,2.4951,2.4365,2.4229,2.4268,2.4408,2.4681,2.5643,2.5967,2.5742,2.602,0.0,0.0,0.0,0.0,0.0,2.0447,1.9934,1.9806,1.8484,1.7523,1.6778,1.6282,1.5818,1.5313,0.0,0.0,0.0,0.0,0.0,0.0,0.0,-1.0169,-1.1978,-1.1967,-1.1304,-1.0945,-1.1193,-1.2627,-1.3838,-1.4573,0.0,0.0,0.0,0.0,0.0,0.0,0.0,0.0,0.0,-0.2283,-0.3293,-0.467,-0.7382,-0.8392,-0.7759,-0.7294,-0.6998,-0.6834,-0.5651,-0.5128,0.0,0.0,0.0,0.0,0.0,0.0,-0.0,0.0,0.0,0.0,0.0,0.0,0.0,0.0,0.0,0.0,0.0,0.0,0.0,0.0,0.9417,1.0174,1.1286,1.2387,1.3188,1.3284,1.3643,1.4214,1.5022,1.5659,1.643,1.7571,1.838,1.9006,1.9332,1.9566,1.9824,2.0258,2.0318,2.0557,2.1237,0.0,0.0,0.0,0.0,0.0,0.0,0.0,0.0,0.0,0.0,0.0,0.0,0.0,2.6399,2.6731,2.5723,2.494,2.4292,2.4292,2.4292,2.4292,2.4869,2.4953,2.4667,2.497,0.0,0.0,0.0,0.0,0.0,1.9879,1.928,1.9136,1.802,1.7146,1.643,1.6058,1.5583,1.506,0.0,0.0,0.0,0.0,0.0,0.0,0.0,0.0,-1.1673,-1.2011,-1.1595,-1.1807,-1.3184,-1.3838,-1.4673,-1.5895,0.0,0.0,0.0,0.0,0.0,0.0,0.0,0.0,-0.5587,-0.6446,-0.7273,-0.7957,-0.843,-0.8325,-0.7662,-0.6881,-0.6159,-0.5483,-0.4798,-0.4519,0.0,0.0,0.0,0.0,0.0,0.0,0.0,0.0,0.0,0.0,0.0,0.0,0.0,0.0,0.0,0.0,0.0,0.0,0.0,0.0,0.0,0.0,0.0,1.1965,1.3006,1.3611,1.4141,1.4738,1.5323,1.6231,0.0,1.728,1.8145,1.8869,1.8988,1.9398,1.972,1.9809,1.9824,2.0072,0.0,0.0,0.0,0.0,0.0,0.0,0.0,0.0,0.0,0.0,0.0,0.0,0.0,0.0,0.0,2.7425,2.614,2.5066,2.4385,2.4302,2.4218,2.4173,2.3416,2.3134,2.3371,2.392,0.0,0.0,0.0,0.0,0.0,1.9543,1.8691,1.8496,1.7795,1.7014,1.6279,1.5855,1.5284,1.4567,0.0,0.0,0.0,0.0,0.0,0.0,0.0,0.0,0.0,0.0,-1.3163,-1.3608,-1.5353,-1.5769,-1.6455,0.0,0.0,0.0,0.0,0.0,0.0,0.0,0.0,0.0,-0.5244,-0.5843,-0.624,-0.6422,-0.764,-0.8312,-0.8406,-0.6486,-0.5658,-0.576,-0.491,-0.4519,0.0,0.0,0.0,0.0,0.0,0.0,0.0,0.0,0.0,0.0,0.3863,0.4636,0.0,0.0,0.0,0.0,0.0,0.0,0.0,0.0,0.9543,1.0222,1.1366,0.0,1.1469,1.2137,1.2792,1.3623,0.0,1.5061,1.5751,1.7544,1.8106,1.8691,2.0047,1.996,2.0034,2.1051,2.1216,2.1461,0.0,0.0,0.0,0.0,0.0,0.0,0.0,0.0,0.0,0.0,0.0,0.0,0.0,0.0,0.0,2.6093,2.5712,2.5423,2.5212,2.4157,2.3353,2.2837,2.2672,2.2594,2.2614,2.2366,0.0,0.0,0.0,0.0,2.0893,1.9888,1.8662,1.7349,1.658,1.5621,1.4592,1.4208,1.4162,1.416,0.0,0.0,0.0,0.0,0.0,0.0,0.0,0.0,0.0,0.0,0.0,0.0,0.0,0.0,0.0,0.0,0.0,0.0,0.0,0.0,0.0,0.0,0.0,-0.6546,-0.5218,-0.5484,-0.5621,-0.5613,-0.6713,-0.7178,-0.697,-0.5761,-0.5242,-0.5255,-0.4714,-0.4519,0.0,0.0,0.0,0.0,-0.4511,0.0,0.0,0.0,0.0,0.0,0.5207,0.5745,0.0,0.6704,0.702,0.7511,0.0,0.0,0.0,0.0,0.996,1.1027,1.172,1.1842,1.201,1.3055,1.3646,1.4244,1.5233,1.5474,1.5864,1.7092,1.7747,1.84,1.9315,1.9605,2.0034,2.1081,2.0981,0.0,0.0,0.0,0.0,0.0,0.0,0.0,0.0,0.0,0.0,0.0,0.0,0.0,0.0,0.0,0.0,0.0,2.5001,2.4796,2.502,2.4289,2.3547,2.2883,2.2578,2.2432,2.2468,2.2197,0.0,0.0,0.0,0.0,2.1148,2.0117,1.8722,1.7165,1.6235,1.5311,1.4355,1.374,1.3436,1.3221,0.0,0.0,0.0,0.0,0.0,0.0,0.0,0.0,0.0,0.0,0.0,0.0,0.0,0.0,0.0,0.0,0.0,0.0,0.0,0.0,0.0,0.0,-0.7698,-0.6229,-0.5217,-0.5173,-0.5156,-0.5132,-0.5795,-0.5726,-0.5042,-0.4994,-0.4685,-0.4132,-0.4132,-0.4298,0.0,0.0,0.0,0.0,-0.4511,0.0,0.0,0.0,0.0,0.0,0.0,0.0,0.0,0.8092,0.8142,0.8088,0.9125,0.0,0.0,0.0,0.0,0.0,1.1999,1.2555,1.3275,1.455,1.5086,1.5397,1.5951,1.6287,1.6523,1.6735,1.7463,1.8173,1.8349,1.9113,1.9901,2.0493,0.0,0.0,0.0,0.0,0.0,0.0,0.0,0.0,0.0,0.0,0.0,0.0,0.0,0.0,0.0,0.0,0.0,0.0,2.4103,2.3763,2.4375,2.4375,2.3985,2.3271,2.2719,2.2501,2.2609,2.2609,0.0,0.0,0.0,0.0,2.1602,2.0315,1.8815,1.731,1.617,1.5154,1.4286,1.362,1.2991,1.2259,0.0,0.0,0.0,0.0,0.0,0.0,0.0,0.0,0.0,0.0,0.0,0.0,0.0,0.0,0.0,0.0,0.0,0.0,0.0,0.0,0.0,-0.7897,-0.6582,-0.5505,-0.4711,-0.4585,-0.448,-0.4355,-0.4911,-0.5195,-0.5219,-0.48,-0.384,-0.2525,-0.2525,-0.3302,-0.4405,-0.3079,-0.3312,-0.4497,-0.4518,0.0,0.0,0.0,0.0,0.0,0.0,0.0,0.0,0.8415,0.879,0.9138,1.0241,0.0,0.0,0.0,0.0,0.0,1.2848,1.3427,1.3542,1.3715,1.4489,1.518,1.4987,1.5729,1.67,1.7679,1.7987,1.843,1.9415,1.9674,1.9767,0.0,0.0,0.0,0.0,0.0,0.0,0.0,0.0,0.0,0.0,0.0,0.0,0.0,0.0,0.0,0.0,0.0,0.0,0.0,0.0,2.3118,2.3747,2.3762,2.3436,2.2798,2.2705,2.2648,2.2701,2.2701,2.2962,0.0,0.0,2.2801,2.1608,2.0435,1.8609,1.6469,1.5254,1.3761,1.2337,1.2811,1.2546,1.1899,0.0,0.0,0.0,0.0,0.0,0.0,0.0,0.0,0.0,0.0,0.0,0.0,0.0,0.0,0.0,0.0,0.0,0.0,0.0,0.0,-0.8886,-0.7209,-0.5558,-0.4544,-0.4272,-0.4125,-0.4051,-0.3982,-0.4391,-0.4566,-0.4519,-0.1173,-0.0112,-0.101,-0.0449,-0.0447,-0.0891,-0.0952,-0.0952,-0.0894,0.0,0.0,0.0,0.0,0.0,0.0,0.0,0.0,0.0,0.0,0.8864,0.9136,0.9984,0.0,0.0,0.0,0.0,0.0,1.282,1.3442,1.3798,1.3574,1.4314,1.5018,1.4645,1.5279,1.613,1.6642,1.7231,1.7828,1.8398,0.0,1.9613,2.0617,0.0,0.0,0.0,0.0,0.0,0.0,0.0,0.0,0.0,0.0,0.0,0.0,0.0,0.0,0.0,0.0,0.0,0.0,0.0,2.2278,2.2562,2.2577,2.278,2.3187,2.2844,2.2875,2.3201,2.283,2.2834,2.3101,0.0,2.238,2.1105,2.0264,1.8678,1.6584,1.5121,1.3581,1.213,1.1872,1.1783,1.1855,0.0,0.0,0.0,0.0,0.0,0.0,0.0,0.0,0.0,0.0,0.0,0.0,0.0,0.0,0.0,0.0,0.0,0.0,0.0,0.0,-0.6371,-0.5761,-0.4249,-0.3624,-0.4069,-0.3878,-0.3603,-0.3257,-0.3401,-0.3257,-0.2613,0.1898,0.3088,0.1567,0.224,0.2749,0.3144,0.2001,0.2218,0.3224,0.0,0.0,0.0,0.0,0.0,0.0,0.0,0.0,0.0,0.0,0.0,0.0,0.0,0.0,0.0,1.0965,1.1998,1.3055,1.2791,1.3313,1.3916,1.3584,1.4337,1.5028,1.4652,1.5237,1.5939,1.6138,1.6774,1.7355,1.7368,1.815,0.0,0.0,0.0,0.0,0.0,0.0,0.0,0.0,0.0,0.0,0.0,0.0,0.0,0.0,0.0,0.0,0.0,0.0,0.0,0.0,2.1156,2.1411,2.1695,2.1695,2.2188,2.3146,2.2673,2.279,2.3385,2.2893,2.2687,2.2724,2.2724,2.1919,2.0625,1.9821,1.8468,1.668,1.5011,1.3611,1.2489,1.1429,1.1427,1.1998,0.0,0.0,0.0,0.0,0.0,0.0,0.0,0.0,0.0,0.0,0.0,0.0,0.0,0.0,0.0,0.0,0.0,0.0,0.0,0.0,-0.2751,-0.2272,-0.2234,-0.2888,-0.4351,-0.3884,-0.2954,-0.1689,-0.1471,-0.0605,0.1008,0.2003,0.3785,0.6082,0.5673,0.5788,0.6303,0.6192,0.6173,0.6294,0.6274,0.0,0.0,0.0,0.0,0.0,0.0,0.0,0.0,0.0,0.0,0.0,0.0,0.0,1.0115,1.1366,1.1832,1.2149,1.3125,1.3474,1.3545,1.3516,1.4358,1.5184,1.5081,1.5888,1.6954,1.7756,1.7641,1.7452,1.7638,1.7994,0.0,0.0,0.0,0.0,0.0,0.0,0.0,0.0,0.0,0.0,0.0,0.0,0.0,0.0,0.0,0.0,0.0,0.0,0.0,0.0,0.0,2.0567,2.1695,2.1695,2.1739,2.1844,2.1789,2.2103,2.2742,2.27,2.2712,2.2724,2.2724,2.1919,2.0597,1.8985,1.7549,1.6196,1.4479,1.346,1.2763,1.199,1.2016,1.2522,0.0,0.0,0.0,0.0,0.0,0.0,0.0,0.0,0.0,0.0,0.0,0.0,0.0,0.0,0.0,0.0,0.0,0.0,0.0,-0.0351,0.0263,-0.013,0.0163,0.0395,0.0516,-0.0707,-0.1126,-0.0678,0.0424,0.2273,0.4772,0.5229,0.5756,0.6338,0.6338,0.6541,0.6951,0.6535,0.6707,0.7178,0.6753,0.6514,0.0,0.0,0.0,0.0,0.0,0.0,0.0,0.0,0.8995,0.8956,0.9865,1.0012,1.0064,1.1416,1.1814,1.1999,1.2908,1.3125,1.3125,1.3125,1.3472,1.3872,1.4373,1.5153,1.5837,1.6157,1.6815,1.7417,1.7665,0.0,0.0,0.0,0.0,0.0,0.0,0.0,0.0,0.0,0.0,0.0,0.0,0.0,0.0,0.0,0.0,0.0,0.0,0.0,0.0,0.0,0.0,1.9498,1.9938,2.0287,2.0453,2.0453,2.1291,2.1829,2.2069,2.2069,2.1844,2.1455,2.1455,2.0725,1.9505,1.8547,1.7437,1.6159,1.4003,1.2793,1.2215,1.2222,1.2628,1.3265,0.0,0.0,0.0,0.0,0.0,0.0,0.0,0.0,0.0,0.0,0.0,0.0,0.0,0.0,0.0,0.0,0.0,0.0,0.3751,0.4075,0.3863,0.2939,0.2884,0.3322,0.4256,0.2982,0.2085,0.1739,0.2952,0.4836,0.7342,0.7599,0.7541,0.7237,0.7532,0.783,0.8133,0.7715,0.7957,0.8553,0.7899,0.7488,0.0,0.0,0.0,0.0,0.0,0.0,0.0,0.0,0.8804,0.8857,0.9361,0.9614,1.0012,1.1166,1.1616,1.1972,1.2715,1.2881,1.2881,1.2881,1.2988,1.3301,1.415,1.476,1.5267,1.5563,1.6364,1.7049,1.7059,0.0,0.0,0.0,0.0,0.0,0.0,0.0,0.0,0.0,0.0,0.0,0.0,0.0,0.0,0.0,0.0,0.0,0.0,0.0,0.0,0.0,0.0,0.0,1.8893,1.9244,1.9588,1.9889,2.0827,2.131,2.138,2.138,2.1141,2.0669,2.0502,1.9874,1.8855,1.8145,1.7053,1.5684,1.3856,1.2696,1.2175,1.2521,1.3058,1.3789,0.0,0.0,0.0,0.0,0.0,0.0,0.0,0.0,0.0,0.0,0.0,0.0,0.0,0.0,0.0,0.0,0.0,0.0,0.9373,0.8885,0.823,0.7289,0.5975,0.5487,0.6041,0.6814,0.6785,0.5906,0.6171,0.7066,0.8518,0.8648,0.8995,0.9527,0.9813,1.003,1.0243,1.0335,1.0556,1.0756,1.0089,0.9379,0.8704,0.0,0.0,0.0,0.0,0.0,0.0,0.0,0.8804,0.8804,0.8804,0.9263,0.9917,1.0618,1.1266,1.1972,1.2715,1.2881,1.2881,1.2881,1.3203,1.373,1.458,1.5098,1.5654,1.648,1.6557,1.6233,1.5787,1.6005,0.0,0.0,0.0,0.0,0.0,0.0,0.0,0.0,0.0,0.0,0.0,0.0,0.0,0.0,0.0,0.0,0.0,0.0,0.0,0.0,0.0,0.0,1.8855,1.8893,1.9346,2.028,2.0314,2.0421,2.0707,2.0707,2.0707,2.0669,2.0123,1.9497,1.8817,1.7747,1.6262,1.4652,1.405,1.342,1.2881,1.2881,1.3418,1.4077,0.0,0.0,0.0,0.0,0.0,0.0,0.0,0.0,0.0,0.0,0.0,0.0,0.0,0.0,0.0,0.0,0.0,0.0,1.4874,1.274,1.1245,1.0722,0.9373,0.8777,0.9025,0.883,0.8236,0.7217,0.7325,0.7913,0.8945,0.989,1.0348,1.0382,1.1364,1.1979,1.2258,1.1378,1.1481,1.2046,1.0444,0.9688,0.9438,0.0,0.0,0.0,0.0,0.0,0.0,0.0,0.0,0.0,0.8804,0.8956,0.9309,1.0466,1.0965,1.1375,1.2569,1.2881,1.2881,1.2881,1.3418,1.3936,1.3896,1.4443,1.5215,1.6084,1.5505,1.5099,1.6032,0.0,0.0,0.0,0.0,0.0,0.0,0.0,0.0,0.0,0.0,0.0,0.0,0.0,0.0,0.0,0.0,0.0,0.0,0.0,0.0,0.0,0.0,0.0,1.7787,1.8535,1.9214,1.9798,2.0128,2.032,2.043,2.043,2.0248,1.9989,1.9827,1.9232,1.8263,1.7188,1.5952,1.4698,1.4514,1.3789,1.291,1.3213,1.3477,1.374,0.0,0.0,0.0,0.0,0.0,0.0,0.0,0.0,0.0,0.0,1.5667,1.7144,0.0,0.0,0.0,0.0,0.0,0.0,0.0,1.5548,1.3783,1.3362,1.2074,1.1222,1.0845,1.0495,0.992,0.9069,0.8875,0.9119,0.9876,1.1224,1.1704,1.1508,1.2855,1.3499,1.3486,1.2665,1.2641,1.3032,1.1312,1.0605,1.0505,0.0,0.0,0.0,0.0,0.0,0.0,0.0,0.0,0.0,0.8804,0.8804,0.9008,1.0064,1.0415,1.0669,1.1742,1.2058,1.2085,1.225,1.2764,1.3222,1.3095,1.409,1.5225,1.5918,1.5166,1.4661,1.5578,0.0,0.0,0.0,0.0,0.0,0.0,0.0,0.0,0.0,0.0,0.0,0.0,0.0,0.0,0.0,0.0,0.0,0.0,0.0,0.0,0.0,0.0,0.0,1.7312,1.8145,1.8939,1.9621,2.0249,2.0583,2.0583,2.0382,2.0158,1.9909,1.9536,1.8893,1.8027,1.7146,1.6244,1.5353,1.5141,1.4329,1.3268,1.353,1.3551,1.3545,0.0,0.0,0.0,0.0,0.0,0.0,0.0,0.0,0.0,0.0,1.8557,1.9955,0.0,0.0,0.0,0.0,0.0,0.0,0.0,0.0,1.5802,1.5348,1.4154,1.3027,1.1951,1.1864,1.1604,1.1061,1.0555,1.0507,1.1023,1.2509,1.3059,1.2793,1.4239,1.4642,1.43,1.4054,1.3928,1.3778,1.2416,1.1856,1.1731,1.1054,0.0,0.0,0.0,0.0,0.0,0.0,0.0,0.0,0.8804,0.8804,0.8956,0.9614,0.9791,0.9923,1.0602,1.0788,1.0854,1.1173,1.1605,1.1993,1.2332,1.3848,1.5274,1.5691,0.0,1.471,0.0,0.0,0.0,0.0,0.0,0.0,0.0,0.0,0.0,0.0,0.0,0.0,0.0,0.0,0.0,0.0,0.0,0.0,0.0,0.0,0.0,0.0,0.0,0.0,1.7229,1.7827,1.8584,0.0,2.0485,2.0991,2.1023,2.0616,2.0416,2.0314,1.9383,1.8688,1.821,1.7626,1.6995,1.6336,1.5884,1.4949,1.3862,1.3862,1.3762,1.359,0.0,0.0,0.0,0.0,0.0,0.0,0.0,0.0,0.0,0.0,0.0,0.0,0.0,0.0,0.0,0.0,0.0,0.0,0.0,0.0,1.6927,1.7126,1.5821,1.4684,1.376,1.3135,1.2401,1.1627,1.1105,1.0891,1.1023,1.264,1.3518,1.3838,1.5404,1.6046,1.5948,1.5433,1.496,1.44,1.3082,1.2289,1.1731,1.1054,1.078,0.0,0.0,0.0,0.0,0.0,0.0,0.0,0.8962,0.8804,0.8956,0.9614,0.9634,0.9684,1.0537,1.0665,1.0532,1.0846,1.1416,1.2049,1.2563,1.2939,1.3287,1.3512,1.3754,0.0,0.0,0.0,0.0,0.0,0.0,0.0,0.0,0.0,0.0,0.0,0.0,0.0,0.0,0.0,0.0,0.0,0.0,0.0,0.0,0.0,0.0,0.0,0.0,1.6552,1.668,1.7626,1.8377,0.0,1.9958,2.0813,2.146,2.1368,2.1134,2.0797,1.9869,1.939,1.9207,1.8313,1.7313,1.6391,1.6262,1.552,1.4514,1.4514,1.4488,1.4446,0.0,0.0,0.0,0.0,0.0,0.0,0.0,0.0,0.0,0.0,0.0,0.0,0.0,0.0,0.0,0.0,0.0,0.0,0.0,0.0,1.7912,1.7698,1.6715,1.569,1.4665,1.4056,1.3239,1.2128,1.162,1.1619,1.2121,1.3472,1.4407,1.4898,1.6015,1.6522,1.6466,1.586,1.5404,1.5037,1.4079,1.3527,1.3163,1.2799,1.2484,1.2264,1.2267,0.0,0.0,0.0,0.0,0.0,0.0,0.0,0.8857,0.9211,0.9195,0.9205,0.9717,0.9738,0.9693,0.9963,1.0419,1.0952,1.1249,1.1236,1.1368,1.2003,1.2634,0.0,0.0,0.0,0.0,0.0,0.0,0.0,0.0,0.0,0.0,0.0,0.0,0.0,0.0,0.0,0.0,0.0,0.0,0.0,0.0,0.0,0.0,0.0,1.6384,1.6522,1.6522,1.7544,1.8235,1.8478,1.9713,2.0765,2.1582,2.1582,2.1368,2.0959,2.0467,2.0249,2.0181,1.9207,1.8464,1.7851,1.7136,1.6305,1.5487,1.5231,1.4971,1.4698,0.0,0.0,0.0,0.0,0.0,0.0,0.0,0.0,0.0,0.0,0.0,0.0,0.0,0.0,0.0,0.0,0.0,0.0,0.0,0.0,0.0,1.7827,1.7146,1.6297,1.5219,1.4659,1.3857,1.2736,1.2116,1.2424,1.3587,1.4186,1.4865,1.5593,1.6102,1.6318,1.6318,1.5942,1.5684,1.5555,1.4957,1.4664,1.4551,1.4444,1.4082,1.3621,1.3641,1.2502,1.0965,1.0864,0.0,0.0,0.0,0.0,0.8804,0.8804,0.8771,0.8744,0.8791,0.8804,0.8864,0.905,0.9385,0.9593,0.9546,0.968,1.0073,1.1046,0.0,0.0,0.0,0.0,0.0,0.0,0.0,0.0,0.0,0.0,0.0,0.0,0.0,0.0,0.0,0.0,0.0,0.0,0.0,0.0,0.0,0.0,1.6344,1.6117,1.6421,1.6663,1.6795,1.7747,1.8168,1.8096,1.9547,2.0639,2.1327,2.1592,2.1538,2.1229,2.1134,2.1086,2.1023,2.0112,1.9692,1.9462,1.8118,1.7203,1.6634,1.6089,1.5576,1.5141,0.0,0.0,0.0,0.0,0.0,0.0,0.0,0.0,0.0,0.0,2.3677,2.4553,0.0,0.0,0.0,0.0,0.0,0.0,0.0,0.0,0.0,1.8166,1.7277,1.6564,1.604,1.464,1.3813,1.3723,1.2442,1.277,1.4672,1.3424,1.3566,1.4924,1.5471,1.5727,1.574,1.6182,1.6089,1.555,1.4955,1.438,1.3839,1.3345,1.3078,1.3024,1.3044,1.2442,1.1566,1.1015,1.0312,0.0,0.0,0.0,0.8804,0.8804,0.8631,0.8484,0.8738,0.8804,0.8818,0.8851,0.9085,0.9176,0.8985,0.0,1.0354,0.0,0.0,0.0,0.0,0.0,0.0,0.0,0.0,0.0,0.0,0.0,0.0,0.0,0.0,0.0,0.0,0.0,0.0,0.0,0.0,0.0,0.0,1.6617,1.6763,1.7757,1.7283,1.7297,1.7894,1.8496,1.8493,1.7963,1.935,2.0064,2.0157,2.1574,2.218,2.2106,2.1705,2.1521,2.146,2.0567,1.9989,1.9534,1.8939,1.8327,1.7814,1.7244,1.7008,1.6786,0.0,0.0,0.0,0.0,0.0,0.0,0.0,0.0,0.0,0.0,0.0,2.4777,0.0,0.0,0.0,0.0,0.0,0.0,0.0,0.0,0.0,1.8448,1.7693,1.697,1.6215,1.5077,1.4297,1.3905,1.2482,1.2566,1.3974,1.2636,1.3137,1.5234,1.5153,1.5106,1.5124,1.574,1.566,1.5112,1.5179,1.4729,1.3968,1.3941,1.3552,1.3032,1.3311,1.2686,1.1715,1.1015,1.0364,0.9666,0.9008,0.0,0.0,0.0,0.8717,0.8611,0.8571,0.8684,0.8764,0.8604,0.8784,0.8965,0.8838,0.9415,1.0166,0.0,0.0,0.0,0.0,0.0,0.0,0.0,0.0,0.0,0.0,0.0,0.0,0.0,0.0,0.0,0.0,0.0,0.0,0.0,0.0,0.0,1.6877,1.6797,1.6854,1.7084,1.6725,1.6674,1.6972,1.7879,1.8433,1.8642,1.9939,2.0219,1.967,2.1485,2.2163,2.1899,2.1974,2.2003,2.1928,2.129,2.0765,2.0317,1.9585,1.8977,1.8458,1.7626,1.7312,1.7133,0.0,0.0,0.0,0.0,0.0,0.0,0.0,0.0,0.0,0.0,0.0,0.0,0.0,0.0,0.0,0.0,0.0,0.0,0.0,0.0,0.0,1.8606,1.8014,1.732,1.6503,1.5499,1.469,1.4192,1.2542,1.2247,1.307,1.1821,1.2277,1.4209,1.4209,1.4078,1.3872,1.4731,1.4693,1.4087,1.4605,1.4253,1.3417,1.3663,1.3314,1.2716,1.3223,1.2696,1.1715,1.1216,1.0618,0.9909,0.9263,0.9061,0.0,0.0,0.0,0.8758,0.8544,0.8644,0.8758,0.8537,0.8651,0.8804,0.0,0.0,0.0,0.0,0.0,0.0,0.0,0.0,0.0,0.0,0.0,0.0,0.0,0.0,0.0,0.0,0.0,0.0,0.0,0.0,0.0,0.0,0.0,0.0,1.6915,1.7139,1.7269,1.7312,1.6613,1.6564,1.7157,1.7784,1.8342,1.8858,2.0146,2.0277,1.9465,2.1407,2.1931,2.1348,2.2022,2.231,2.2254,2.1794,2.143,2.1055,2.0147,1.9549,1.9089,1.7933,1.7422,1.7079,0.0,0.0,0.0,0.0,0.0,0.0,0.0,0.0,0.0,0.0,0.0,0.0,2.5168,2.5385,2.5508,2.5492,2.454,2.3026,2.0883,1.9645,1.8894,1.8611,1.8014,0.0,1.7248,1.5699,1.4907,1.4921,1.2761,1.1998,1.2512,1.093,1.0301,1.0571,1.2173,1.2387,1.1592,1.3123,1.3248,1.2346,1.2592,1.2184,1.1444,1.1199,1.1267,1.1549,1.2087,1.2064,1.1814,1.1765,1.1316,1.061,0.9961,0.9762,0.9614,0.0,0.0,0.0,0.8791,0.8798,0.8804,0.8791,0.8798,0.8804,0.0,0.0,0.0,0.0,0.0,0.0,0.0,0.0,0.0,0.0,0.0,0.0,0.0,0.0,0.0,0.0,0.0,0.0,0.0,0.0,0.0,0.0,0.0,0.0,1.8011,1.7783,1.8398,2.0058,1.7859,1.7783,2.0039,1.9144,1.837,1.79,1.9343,1.9822,1.9465,2.1407,2.1647,2.0624,2.1787,2.231,2.2254,2.1794,2.1582,2.1491,2.0601,2.0246,2.0058,1.8584,1.7706,1.6972,0.0,0.0,0.0,0.0,0.0,0.0,0.0,0.0,0.0,0.0,0.0,0.0,0.0,2.5456,2.5508,2.5492,2.439,2.3089,2.1658,2.0569,2.0094,2.0367,1.9807,1.9443,1.9359,1.8097,1.7131,1.6409,1.3927,1.2436,1.1893,1.0335,0.9173,0.8483,1.0409,1.0902,1.0356,1.1798,1.1982,1.1313,1.1619,1.114,1.0266,1.0251,1.0182,1.0197,0.0,0.0,0.0,1.1733,1.1665,1.1316,0.0,0.0,0.0,0.9666,0.9159,0.8764,0.8577,0.8664,0.8764,0.8577,0.8671,0.8804,0.8804,0.0,0.0,0.0,0.0,0.0,0.0,0.0,0.0,0.0,0.0,0.0,0.0,0.0,0.0,0.0,0.0,0.0,0.0,0.0,0.0,0.0,0.0,0.0,1.8106,1.8266,1.862,1.9258,1.7837,1.7836,1.9372,1.9029,1.9053,1.9544,2.0551,2.0578,1.9855,2.1518,2.1518,2.0224,2.1191,2.1583,2.1617,2.1905,2.1869,2.1552,2.0975,2.055,2.0128,1.8646,1.7706,1.6905,0.0,0.0,0.0,0.0,0.0,0.0,0.0,0.0,0.0,2.4986,0.0,0.0,0.0,0.0,2.5449,2.5282,2.4176,2.316,2.2395,2.1459,2.1084,2.1388,2.1084,2.0853,2.0766,2.0027,1.9177,1.8283,1.5844,1.3958,1.2598,1.0811,0.9114,0.7623,0.9074,0.9387,0.8876,1.0026,1.0303,1.0008,1.0314,1.0077,0.9603,0.9729,0.9851,0.0,0.0,0.0,0.0,0.0,0.0,0.0,0.0,0.0,0.0,1.0267,0.9649,0.912,0.892,0.8833,0.8758,0.8571,0.8664,0.8778,0.8703,0.0,0.0,0.0,0.0,0.0,0.0,0.0,0.0,0.0,0.0,0.0,0.0,0.0,0.0,0.0,0.0,0.0,0.0,0.0,0.0,0.0,0.0,0.0,1.8106,1.8484,1.8665,1.8606,1.8563,1.8566,1.8555,1.926,1.9677,1.9816,2.1006,2.1043,2.0052,2.1617,2.1465,2.0035,2.0839,2.1204,2.1254,2.1735,2.19,2.1764,2.1229,2.0829,2.0333,1.8684,1.7599,1.6587,0.0,0.0,0.0,0.0,0.0,0.0,0.0,0.0,2.4869,2.4998,0.0,0.0,0.0,0.0,0.0,2.4845,2.4027,2.341,2.3068,2.2282,2.1723,2.1479,2.1652,2.1637,2.1385,2.125,2.0939,2.0483,1.8404,1.6499,1.473,1.2509,1.0225,0.8011,0.8231,0.7882,0.7181,0.7846,0.8252,0.8462,0.862,0.8985,0.9418,0.0,0.0,0.0,1.1496,1.2142,0.0,1.2338,0.0,0.0,0.0,0.0,0.0,0.0,1.0325,0.9782,0.0,0.0,0.0,0.8804,0.0,0.0,0.8493,0.0,0.0,0.0,0.0,0.0,0.0,0.0,0.0,0.0,0.0,0.0,0.0,0.0,0.0,0.0,0.0,0.0,0.0,0.0,0.0,0.0,0.0,1.8106,1.8106,1.8499,1.8619,1.8423,2.0083,1.9997,1.8001,1.9996,2.0162,1.8541,2.0624,2.1059,2.0086,2.1589,2.1437,2.0018,2.0805,2.1126,2.1109,2.1143,2.1583,2.2113,2.1258,2.0943,2.0716,1.8769,1.7316,1.6028,0.0,0.0,0.0,0.0,0.0,0.0,2.5313,2.5313,2.5286,0.0,0.0,0.0,2.5493,2.5494,2.5321,2.4917,2.4598,2.4293,2.3877,2.3106,2.2901,2.34,2.3063,2.3111,2.3601,2.3152,2.2623,2.206,2.0272,1.8533,1.6802,1.4253,1.2162,1.0439,0.8973,0.8351,0.8475,0.8383,0.865,0.9126,0.9206,0.9376,0.0,0.0,0.0,0.0,0.0,1.1165,1.1528,0.0,1.2802,1.2871,0.0,0.0,1.1545,0.0,1.0699,0.9782,0.9782,0.0,0.0,0.0,0.0,0.0,0.0,0.0,0.0,0.0,0.0,0.0,0.0,0.0,0.0,0.0,0.0,0.0,0.0,0.0,0.0,0.0,0.0,0.0,0.0,0.0,0.0,0.0,1.7504,1.8106,1.8106,1.8957,1.928,1.8978,1.9783,2.0058,1.9792,2.0671,2.1167,2.1227,2.1804,2.1675,2.0889,2.187,2.1042,1.8884,1.9641,1.9524,1.8876,1.9915,2.0171,1.9878,1.9589,1.9374,1.9106,1.7828,1.6649,1.5457,0.0,0.0,0.0,0.0,0.0,2.588,2.5505,2.6108,2.6428,0.0,0.0,0.0,2.6587,2.6255,2.5897,2.5557,2.5077,2.4662,2.4357,2.3805,2.3695,2.4171,2.3928,2.4017,2.4489,2.4293,2.4036,2.3687,2.2305,2.096,1.9594,1.6777,1.4607,1.3,1.1309,1.0391,1.0108,1.0251,1.0086,0.0,0.9438,0.0,0.0,0.9804,0.9745,0.0,0.0,0.0,1.1518,1.2345,1.275,0.0,0.0,0.0,0.0,0.0,0.0,1.0589,1.0279,0.9715,0.9169,0.0,0.0,0.0,0.8573,0.866,0.0,0.0,0.0,0.0,0.0,0.0,0.0,0.0,0.0,0.0,0.0,0.0,0.0,0.0,0.0,0.0,0.0,0.0,0.0,0.0,1.6912,1.772,1.8419,1.9244,1.9708,1.9657,2.0099,2.0392,2.0496,2.1256,2.1718,2.1837,2.2158,2.1752,2.0737,2.182,2.0854,1.8433,1.9194,1.8811,1.7729,1.8411,1.8788,1.8977,1.8763,1.8656,1.8495,1.7478,1.6295,1.4987,0.0,0.0,2.5349,2.5525,2.6204,2.6497,2.582,2.7078,2.7818,0.0,2.7575,2.8092,2.8101,2.7419,2.6832,2.659,2.5576,2.4862,2.4653,2.4375,2.4208,2.419,2.436,2.4482,2.4487,2.4807,2.5013,2.5093,2.4194,2.34,2.2595,1.9759,1.751,1.5854,1.4645,1.3369,1.2196,1.2973,0.0,1.0623,0.9959,1.0383,0.0,0.0,1.0868,1.1563,1.163,1.1877,1.2128,1.2258,1.2536,0.0,0.0,0.0,0.0,0.0,1.2366,1.1626,1.0957,1.0309,0.9655,0.0,0.0,0.0,0.8423,0.8633,0.0,0.0,0.0,0.0,0.0,0.0,0.0,0.0,0.0,0.0,0.0,0.0,0.0,0.0,0.0,0.0,0.0,0.0,1.5504,1.5511,1.6201,1.7259,1.8797,1.9427,1.9874,2.0212,2.0731,2.0844,2.0553,2.1714,2.1972,2.1339,2.1989,2.1471,2.0052,2.1515,2.0736,1.8266,1.9081,1.8598,1.7195,1.6912,1.7518,1.861,1.8308,1.8218,1.8204,1.7306,1.6035,1.4563,0.0,2.4503,2.543,2.6367,2.6697,2.7036,2.7569,2.8006,2.8157,2.7867,2.7989,2.8105,2.8104,2.7947,2.7751,2.755,2.6598,2.5849,2.55,2.482,2.4374,2.4208,2.4247,2.4335,2.4501,2.4622,2.4827,2.5108,2.4895,2.4613,2.4205,2.2492,2.0978,1.9647,1.7634,1.6282,1.5451,1.5212,0.0,1.3717,1.2624,0.0,1.2754,1.2185,1.1589,1.1219,1.1902,1.1973,1.1828,1.2541,1.2802,1.2881,0.0,0.0,0.0,0.0,0.0,0.0,0.0,0.0,0.0,0.0,0.0,0.0,0.9387,0.9551,0.0,0.0,0.0,0.0,0.0,0.0,0.0,0.0,0.0,0.0,0.0,0.0,0.0,0.0,0.0,0.0,0.0,0.0,1.4994,1.5097,1.6786,1.8094,1.8848,1.9396,1.9762,1.9803,2.0599,2.0959,2.0909,2.1832,2.2243,2.209,2.2243,2.1471,2.0035,2.0974,1.9834,1.7191,1.8446,1.7922,1.6153,1.6547,1.6605,1.6449,1.6648,1.6664,1.6556,1.6368,1.5413,1.4177,2.3918,2.4615,2.546,2.6601,2.7072,2.7479,2.8051,2.9296,2.9959,2.9428,2.9689,2.995,2.9938,2.9199,2.8636,2.8504,2.7581,2.6845,2.647,2.5594,2.5005,2.4818,2.4411,2.4248,2.4348,2.4321,2.4484,2.4846,2.4784,2.4798,2.4868,2.3462,2.22,2.1038,1.9792,1.858,1.7427,0.0,1.7263,1.6541,1.4364,0.0,1.3024,1.2359,1.1964,1.1897,1.2517,1.2727,1.2714,1.2871,1.2881,0.0,0.0,1.2881,1.2881,0.0,1.2618,1.2201,0.0,0.0,0.0,0.9468,0.0,0.0,0.0,1.0326,1.0887,0.0,0.0,0.0,0.0,0.0,0.0,0.0,0.0,0.0,0.0,0.0,0.0,0.0,0.0,0.0,0.0,0.0,1.4507,1.4882,1.6391,1.7667,1.8475,1.9002,1.9417,1.9675,2.0331,2.0657,2.0649,2.1323,2.1751,2.1957,2.159,2.1105,2.0619,2.077,1.975,1.7887,1.8575,1.7903,1.6248,1.6426,1.6229,1.5827,1.5983,1.6037,1.6027,1.5785,1.5,1.3974,2.4181,2.4866,2.5738,2.6841,2.7547,2.8189,2.8762,3.063,3.1793,3.1196,3.1543,3.1777,3.161,3.0234,2.924,2.9011,2.8084,2.7376,2.704,2.6094,2.5425,2.5245,2.4579,2.417,2.411,2.4001,2.4089,2.4387,2.435,2.4545,2.4931,2.3811,2.2786,2.1875,2.1371,2.0428,1.92,1.96,0.0,1.88,0.0,1.4536,1.373,1.2986,1.2851,1.3089,1.3275,1.363,1.3903,1.3409,0.0,1.3065,1.3056,1.2998,0.0,0.0,0.0,0.0,0.0,0.0,0.0,0.0,0.0,0.9399,0.0,0.0,0.0,1.2696,0.0,0.0,0.0,0.0,0.0,0.0,0.0,0.0,0.0,0.0,0.0,0.0,0.0,0.0,0.0,0.0,1.4055,1.4737,1.5854,1.697,1.8048,1.8602,1.9148,1.9675,2.0095,2.0289,2.0289,2.0761,2.115,2.1491,2.0901,2.0702,2.0944,2.0541,1.9771,1.8763,1.8763,1.7972,1.6667,1.6479,1.6146,1.5799,1.5799,1.5875,1.5941,1.5466,1.4756,1.3864,2.4793,2.5768,2.6724,2.7689,2.8512,2.9579,3.1214,3.1777,3.2241,3.2914,3.2403,3.1669,3.0914,3.0025,2.9137,2.8305,2.7355,0.0,2.6416,0.0,2.4817,2.4608,2.434,2.4071,2.3754,2.3754,2.3709,2.3628,2.3907,2.4155,2.4376,2.4347,2.4111,2.3649,2.2306,2.1697,2.162,0.0,2.0076,0.0,1.9094,1.8001,0.0,1.619,1.5396,1.4597,1.4155,1.4239,1.4606,0.0,1.4143,1.3716,0.0,1.333,1.2881,0.0,0.0,0.0,0.0,0.0,0.0,0.0,1.0626,0.0,0.0,0.0,1.2003,1.2715,0.0,1.2871,1.2745,0.0,0.0,0.0,0.0,0.0,0.0,0.0,0.0,0.0,0.0,0.0,0.0,0.0,0.0,1.4736,1.5852,1.6954,1.8037,1.8622,1.9153,1.969,2.0095,2.0309,2.0314,2.0761,2.1037,2.1055,2.0974,2.0621,2.0044,1.9997,1.9355,1.8269,1.8269,1.767,1.6712,1.6667,1.6323,1.5799,1.5799,1.5875,1.5941,1.5466,1.4756,1.3914,2.5371,2.5995,2.6832,2.8464,2.8951,2.9548,3.0883,3.2007,3.3177,3.4525,3.3994,3.335,3.2957,0.0,0.0,0.0,0.0,2.8602,0.0,0.0,2.5665,2.604,2.4875,2.4113,2.3881,2.358,2.3389,2.3328,2.3263,2.3455,2.3821,2.3771,2.3596,2.3269,2.2831,0.0,2.1631,0.0,2.1199,0.0,0.0,0.0,0.0,1.75,1.6627,1.6264,1.598,1.5795,1.5608,0.0,1.4698,0.0,0.0,0.0,0.0,0.0,0.0,0.0,0.0,0.0,0.0,0.0,0.0,0.0,0.0,0.0,1.1416,0.0,0.0,0.0,0.0,0.0,0.0,0.0,0.0,0.0,0.0,0.0,0.0,0.0,0.0,0.0,0.0,0.0,0.0,0.0,0.0,1.6297,1.8032,1.8314,1.8826,1.9675,1.9852,1.9948,1.9948,2.0152,2.0491,2.0991,2.0288,2.0288,2.0862,1.9906,1.9484,1.9374,1.8541,1.8087,1.7779,1.6848,1.6395,1.6293,1.5948,1.5846,1.5784,1.5099,1.4599,1.4109,2.6399,2.6636,2.7167,2.8961,2.9267,2.9708,3.095,3.2734,3.439,3.5625,0.0,0.0,3.4233,3.327,0.0,0.0,2.9681,2.9076,0.0,0.0,2.6001,2.6563,2.511,0.0,0.0,2.3472,2.3151,2.3059,2.2815,2.2911,2.3279,2.3225,2.3149,2.3042,2.3022,2.263,2.1976,0.0,2.2114,2.1427,2.1705,2.1566,2.0926,1.8649,1.7776,1.7726,1.7544,1.7205,1.6802,1.6262,1.574,0.0,1.5752,0.0,0.0,0.0,0.0,0.0,1.4903,0.0,0.0,0.0,0.0,0.0,0.0,0.0,0.0,0.0,0.0,0.0,0.0,0.0,1.1807,1.1751,0.0,0.0,0.0,0.0,0.0,0.0,0.0,0.0,0.0,0.0,0.0,0.0,1.5043,0.0,1.8011,1.8257,1.8659,1.9483,1.9609,1.969,1.969,1.969,2.0015,2.0632,1.9855,2.0052,2.1026,1.9972,1.9743,2.0073,1.8869,1.8489,1.8616,1.7228,1.6683,1.6667,1.6219,1.5963,1.5697,1.4814,1.4501,1.4264,2.8154,2.81,2.8123,2.9037,2.9625,0.0,0.0,0.0,0.0,0.0,0.0,0.0,0.0,0.0,0.0,0.0,0.0,2.6585,2.5572,0.0,2.5122,2.5075,2.47,2.4336,0.0,0.0,2.3038,2.2728,2.27,2.2711,2.2722,2.3044,2.3384,2.365,2.2869,2.292,2.3564,2.2829,2.2565,2.2641,2.2658,2.2238,2.1444,0.0,1.9251,1.8788,1.8249,0.0,0.0,1.8013,1.7612,0.0,0.0,0.0,0.0,0.0,0.0,0.0,0.0,0.0,0.0,1.3909,0.0,0.0,0.0,0.0,1.2618,0.0,0.0,0.0,0.0,1.1366,1.1562,1.0804,1.1488,0.0,0.0,0.0,0.0,0.0,0.0,0.0,0.0,0.0,0.0,1.5528,1.6023,1.6798,1.8037,1.8567,1.8887,1.892,1.9417,1.969,1.969,1.969,1.9711,1.9747,2.0087,2.0102,1.9782,2.0101,2.005,1.9681,1.9007,1.8708,1.8658,1.7941,1.7285,1.6712,1.6697,1.6323,1.5697,1.4814,1.4501,1.4296,2.9254,2.9624,2.9831,3.0537,0.0,0.0,0.0,3.4539,0.0,0.0,0.0,0.0,0.0,3.3594,3.1621,0.0,0.0,2.738,2.6445,2.5631,0.0,0.0,0.0,2.4456,0.0,0.0,2.3049,2.2693,2.2518,2.2536,2.27,2.2649,2.2892,2.3367,2.307,2.2938,0.0,0.0,0.0,0.0,0.0,2.2552,2.2161,0.0,0.0,1.9778,1.9339,1.893,0.0,1.8612,1.8249,1.78,1.78,1.7652,1.7505,1.7505,1.7342,0.0,0.0,0.0,1.5696,1.5129,0.0,0.0,0.0,0.0,0.0,0.0,0.0,0.0,0.0,1.0669,1.118,1.1366,1.1469,1.1631,0.0,0.0,0.0,0.0,0.0,0.0,0.0,0.0,0.0,1.5758,1.6642,1.7347,0.0,1.8541,1.908,1.9417,1.9594,1.969,1.969,1.9974,2.0261,2.055,2.0684,2.0703,2.054,2.0369,2.0095,1.966,1.8986,1.8969,1.9276,1.8174,1.7836,1.7988,1.7554,1.697,1.623,1.4961,1.4501,1.4342,3.0297,3.0988,0.0,0.0,0.0,0.0,0.0,0.0,0.0,0.0,3.6582,0.0,3.5605,0.0,3.2051,0.0,2.8476,2.7519,2.6934,2.5913,0.0,2.6659,2.5468,0.0,0.0,0.0,0.0,2.3049,2.263,2.2579,2.2867,2.2495,2.2617,2.3192,2.3199,2.3103,2.2975,2.384,2.3637,0.0,0.0,2.2581,0.0,0.0,2.074,2.0671,0.0,1.9609,1.9169,1.9169,1.8968,1.865,1.865,1.865,1.865,1.865,1.8535,1.8302,1.7947,1.7327,0.0,1.6003,1.5443,0.0,1.4003,0.0,0.0,0.0,0.0,0.0,0.0,0.0,1.1316,1.1715,1.181,1.2043,0.0,1.3055,0.0,0.0,0.0,0.0,0.0,0.0,1.3507,1.3736,1.5906,1.7407,0.0,0.0,1.8775,1.9391,1.9379,1.945,1.969,1.9939,2.0237,2.0555,2.0686,2.0685,2.0538,2.0361,2.0095,1.9675,1.9241,1.9307,1.963,1.8778,1.8549,1.8643,1.8231,1.7648,1.6879,1.5389,1.4493,1.3993,3.1326,0.0,0.0,0.0,3.3506,0.0,0.0,0.0,3.6934,0.0,3.6777,3.6641,3.4883,3.3164,3.1426,2.9687,2.7949,0.0,2.6836,2.6074,0.0,0.0,2.5663,2.5004,2.4814,0.0,0.0,0.0,2.3033,2.2867,2.3183,2.2584,2.2625,2.3175,2.3195,2.3359,2.3709,2.4023,2.3756,2.3135,2.2544,2.2327,2.2288,2.1811,0.0,2.1448,2.0612,2.0035,1.969,1.969,1.969,1.969,1.969,1.969,1.969,1.969,1.9332,1.893,1.8893,1.8145,1.7216,1.6604,0.0,0.0,0.0,0.0,1.3474,0.0,0.0,0.0,0.0,0.0,0.0,1.1765,1.2403,1.2881,1.2881,0.0,0.0,0.0,0.0,0.0,0.0,1.2719,1.2593,1.0151,1.416,1.7072,0.0,0.0,1.8106,1.8925,1.8815,1.9046,1.9675,1.9711,1.9721,1.9717,2.0162,2.0114,1.9749,2.0089,2.004,1.9651,1.9645,1.9645,1.9594,1.966,1.9256,1.8665,1.8665,1.8263,1.7513,1.6026,1.452,1.3286,3.2238,3.4283,3.5828,0.0,3.5334,3.5176,0.0,0.0,0.0,0.0,3.7129,3.6641,3.4883,3.2637,3.0527,2.8789,2.7031,0.0,0.0,0.0,0.0,2.5888,2.5427,2.5138,2.5026,2.4356,0.0,2.3926,0.0,2.2868,2.3195,2.2582,2.2496,2.2824,2.2828,2.3008,2.3322,2.3433,2.3199,2.2822,2.266,2.2815,0.0,0.0,2.2212,2.2199,2.0785,2.0035,1.969,1.969,1.969,1.969,1.969,1.969,1.969,1.969,1.9603,1.9406,1.9006,1.8419,1.7773,1.7216,1.6685,1.6051,0.0,0.0,0.0,0.0,0.0,0.0,0.0,0.0,0.0,1.1166,1.2098,1.2881,0.0,0.0,0.0,0.0,0.0,0.0,1.2686,1.1492,1.1585,1.3543,1.5757,1.7217,0.0,0.0,0.0,1.9464,1.9439,1.951,1.969,2.0,2.0154,2.0146,2.0618,2.0585,2.0131,1.9787,1.9366,1.8958,1.8971,1.8731,1.8397,1.8905,1.876,1.8252,1.8252,1.7906,1.7268,1.5976,1.4519,1.3286,3.2919,0.0,0.0,3.8001,0.0,0.0,3.7459,0.0,0.0,3.7167,3.6914,0.0,3.4316,3.1855,2.9785,2.8418,2.6719,0.0,2.623,0.0,0.0,2.6152,2.5625,2.5258,2.5091,2.4605,0.0,2.421,0.0,2.3077,2.3403,2.2642,2.2436,2.2701,2.2708,2.2794,2.298,2.3146,2.3006,2.2694,2.2703,0.0,0.0,2.2462,2.2254,2.2094,2.0973,2.033,1.9945,1.9747,1.969,1.969,1.969,1.969,1.969,1.969,1.969,1.9639,1.9332,1.8855,1.8341,1.7787,1.7229,1.6612,1.5808,1.532,1.4721,0.0,0.0,0.0,0.0,0.0,0.0,1.0914,1.1733,0.0,0.0,0.0,0.0,0.0,0.0,0.0,1.3532,1.2649,1.2899,1.4868,1.5705,1.6583,0.0,0.0,0.0,1.9645,1.9405,1.939,1.969,1.9929,2.0041,2.0029,2.032,2.0285,2.005,1.9691,1.9395,1.9131,1.8867,1.8605,1.8355,1.8478,1.8369,1.8127,1.8369,1.8115,1.7562,1.6892,1.5799,1.4724,0.0,0.0,0.0,0.0,0.0,0.0,0.0,3.7907,0.0,3.7105,0.0,3.5293,3.3437,3.1055,2.9199,2.8203,0.0,2.6016,2.6777,2.6113,2.6015,2.6693,2.5944,2.5396,2.513,2.4924,0.0,0.0,2.3696,2.3453,2.3894,2.2816,2.2497,2.2798,2.2694,2.2648,0.0,2.301,2.2953,2.2656,2.266,2.25,2.231,2.231,2.2049,2.1628,2.1166,2.0698,2.0246,1.9854,1.969,1.969,1.969,1.969,1.9705,1.9794,1.975,1.9705,1.9794,1.9391,1.8765,1.8224,1.7706,1.7008,1.594,1.5676,1.5309,1.4272,1.3909,0.0,0.0,0.0,0.0,1.1015,0.0,0.0,0.0,0.0,0.0,0.0,0.0,0.0,0.0,1.4738,1.5066,1.4889,1.4856,1.5619,0.0,0.0,0.0,1.9419,1.898,0.0,1.9479,0.0,1.9566,1.9479,1.9639,1.9639,1.9603,1.9513,1.9476,1.9423,1.8967,1.8727,1.8628,1.835,1.8166,1.8163,1.871,1.8621,1.8223,1.8267,1.7726,1.6978,0.0,0.0,0.0,0.0,0.0,3.9554,4.0185,3.91,3.792,3.7123,3.6426,3.5078,3.2676,3.0684,2.8887,2.7285,2.6211,0.0,0.0,0.0,0.0,2.582,2.5615,2.546,2.5351,2.4981,2.5114,0.0,2.4016,2.3868,2.5159,2.3209,2.2643,2.3238,2.2643,2.2381,2.2385,2.2685,0.0,2.2369,2.2373,2.2349,2.231,2.231,2.2254,2.2077,2.1291,2.0698,2.0246,1.9854,1.969,1.969,1.969,1.969,1.9794,2.0363,2.0124,1.9809,2.0378,1.9721,1.8765,1.8224,1.7706,1.7146,1.6497,1.5952,1.5543,1.532,1.4503,1.3627,1.2938,0.0,0.0,0.0,0.0,0.0,0.0,0.0,0.0,0.0,0.0,0.0,0.0,0.0,0.0,0.0,0.0,0.0,0.0,0.0,0.0,0.0,0.0,0.0,0.0,0.0,1.8817,1.838,1.9281,1.9479,1.9029,1.847,1.8216,1.822,1.8131,1.7832,1.7492,1.84,1.8495,1.814,1.8701,1.8841,1.8811,1.9256,1.9277,1.8969,0.0,0.0,0.0,0.0,0.0,0.0,0.0,3.9362,0.0,3.7123,3.5605,3.3809,3.1758,2.9941,2.8353,2.706,2.6145,2.5648,2.5644,2.5684,2.5675,2.5595,2.5531,0.0,2.5409,2.5068,2.5267,2.6004,2.4237,2.41,2.5446,2.3302,2.2699,2.3359,2.2632,2.231,0.0,0.0,0.0,2.2315,2.2453,2.2424,2.231,2.231,2.231,2.2209,2.1538,2.1039,2.055,1.9909,1.969,1.969,1.969,1.969,1.9824,2.0513,2.0228,1.9839,2.0528,2.0012,1.9132,1.8302,1.7907,1.7504,1.668,1.6281,1.5964,1.5676,1.5129,1.4343,1.3052,1.2248,0.0,0.0,0.0,0.0,0.0,0.0,0.0,0.0,0.0,0.0,0.0,0.0,0.0,0.0,0.0,0.0,0.0,0.0,0.0,0.0,0.0,0.0,0.0,0.0,0.0,1.8106,1.8612,1.8727,1.8468,1.7862,1.7731,1.7953,1.7418,1.7184,1.7249,1.7854,1.8249,1.8536,1.8782,1.9059,1.9337,1.9594,1.969,1.9579,0.0,3.9877,0.0,0.0,4.1331,0.0,0.0,3.9323,3.7925,3.6907,3.4761,3.2695,3.1074,2.9336,2.7932,2.7043,2.6184,2.5676,2.5683,2.5684,2.5664,2.5586,2.5518,2.5466,2.539,2.5133,2.5317,0.0,2.456,2.45,2.5711,2.3781,2.3073,2.3359,2.2632,0.0,0.0,0.0,2.2496,2.2304,2.2547,2.2496,2.231,2.231,2.231,2.2237,2.1764,2.1399,2.1023,2.0243,1.9854,1.9711,1.9818,1.9854,2.0005,2.0946,2.0561,1.9999,2.0828,2.0377,1.9479,1.8496,1.8263,1.7987,1.6909,1.668,1.6497,1.5908,1.5676,1.5073,1.3338,1.2589,0.0,0.0,0.0,0.0,0.0,0.0,0.0,0.0,0.0,0.0,0.0,0.0,0.0,0.0,0.0,1.5029,1.5309,1.5929,0.0,0.0,0.0,1.7814,1.7558,0.0,1.7814,0.0,1.7933,1.7973,1.7706,1.7317,1.7363,1.7678,1.6864,1.6824,1.7293,1.7288,1.7812,1.8567,1.8811,1.9159,1.9549,1.966,1.969,1.969,0.0,0.0,0.0,0.0,0.0,0.0,0.0,3.9323,3.7762,3.6196,3.4486,3.2754,3.1074,2.9297,2.7851,2.6989,2.611,2.5604,2.5605,2.5664,2.5644,2.5508,2.5499,2.5447,2.5303,2.512,2.5321,0.0,0.0,2.5565,2.6568,2.5394,2.4316,2.3359,0.0,0.0,0.0,2.2332,2.2332,2.231,2.2332,2.2332,2.231,2.231,2.231,2.2237,2.1764,2.1598,2.146,2.1023,2.0345,1.9747,2.0124,2.0246,2.0578,2.2362,2.1635,2.0539,2.1889,2.099,1.9566,1.8968,1.8817,1.8535,1.7463,1.7229,1.7063,1.6552,1.5964,1.5219,1.3946,1.3674,1.3178,0.0,0.0,0.0,0.0,0.0,0.0,0.0,0.0,0.0,0.0,0.0,0.0,0.0,0.0,1.4014,1.5558,1.556,1.585,1.6612,0.0,1.687,1.584,1.687,0.0,1.584,1.7382,1.7558,1.6579,1.6572,1.6584,1.6549,1.6532,1.6792,1.7281,1.7291,1.7381,1.7553,1.8506,1.8928,1.9051,1.9513,1.969,1.969,0.0,0.0,0.0,0.0,0.0,0.0,0.0,3.9335,3.7533,3.5396,3.4086,3.2519,3.0351,2.9004,2.8125,2.7773,2.6465,2.5879,2.6406,2.5977,2.5664,2.5566,2.5518,2.5466,2.537,2.5245,2.5482,0.0,0.0,2.5991,2.7139,2.5453,2.4069,0.0,0.0,2.2738,2.2538,2.2535,2.2538,2.2538,2.2371,2.231,2.231,2.231,2.231,2.2282,2.2106,2.184,2.1587,2.1424,2.0973,2.0577,2.1205,2.1399,2.1702,2.3311,2.2936,2.2074,2.2316,2.162,2.0461,1.9217,1.8903,1.8697,1.7961,1.7555,1.7255,1.7012,1.6225,1.5454,1.4949,1.4595,1.3888,0.0,0.0,0.0,0.0,0.0,0.0,0.0,0.0,0.0,0.0,0.0,0.0,0.0,0.0,1.4451,1.542,1.5489,1.5801,1.6466,0.0,1.6058,1.5588,1.5708,1.5531,1.505,1.5728,1.569,1.5026,1.4971,1.4773,1.4488,1.4897,1.5581,1.6427,1.6686,1.7208,1.7828,1.8242,1.8407,1.8462,1.8651,1.8731,1.8731,4.035,0.0,4.1154,0.0,4.1116,4.0773,4.0431,3.9189,3.7507,3.5293,3.4023,3.2461,3.0234,2.9199,2.8672,2.8672,2.7324,2.6621,2.6973,2.6426,2.5937,2.5605,2.5541,0.0,2.5409,2.5582,2.5746,2.5842,2.6192,0.0,2.7127,0.0,0.0,0.0,2.3534,2.3287,2.2853,2.2833,2.2799,2.2677,2.2504,2.2361,2.231,2.231,2.231,2.231,2.231,2.2102,2.1799,2.1799,2.1757,2.174,2.1908,2.2245,2.2844,2.3953,2.3872,2.3379,2.3219,2.2467,2.1414,2.002,1.9564,1.9253,1.8517,1.8043,1.7745,1.7587,1.6756,1.6065,1.586,1.5351,1.4608,1.3533,0.0,0.0,0.0,0.0,0.0,0.0,0.0,0.0,0.0,0.0,0.0,0.0,0.0,0.0,1.5344,1.5688,0.0,0.0,0.0,0.0,0.0,1.4824,1.4606,1.4422,1.4617,1.4485,1.4016,1.3916,1.3619,1.3219,1.383,1.4542,1.5354,1.584,1.656,1.7436,1.7747,1.7863,1.7894,1.8054,1.812,1.812,3.937,4.0792,4.1671,4.0696,4.1232,4.1289,3.9838,3.8881,3.7735,3.6186,3.4473,3.2754,3.1074,3.0117,2.957,2.957,2.8789,2.791,2.7051,2.6992,2.6562,0.0,0.0,2.5467,2.5399,2.6179,2.6083,2.5005,0.0,0.0,2.6315,0.0,2.6313,2.5437,2.4718,2.3939,2.3189,2.3189,2.2996,2.2686,2.2702,2.2553,2.231,2.231,2.231,2.231,2.231,2.231,2.231,2.231,2.2779,2.317,2.1967,2.2654,2.3963,2.4363,2.4214,2.4067,2.4761,2.3722,2.2226,2.1626,2.1059,2.0351,1.9142,1.8875,1.873,1.8192,1.7666,1.7085,1.6498,1.596,1.5401,1.4777,0.0,0.0,0.0,0.0,0.0,0.0,0.0,0.0,1.4003,0.0,0.0,0.0,0.0,0.0,0.0,0.0,0.0,1.5632,1.5588,0.0,1.3815,1.4422,1.4376,1.3815,1.4422,1.4376,1.3805,1.3805,1.357,1.3219,1.3772,1.4054,1.4149,1.4709,1.5232,1.5845,1.6892,1.7325,1.7381,1.7916,1.8094,1.8094,3.8281,3.8974,3.9379,3.9054,3.9227,3.9265,3.8789,3.8009,3.7112,3.6069,3.4453,3.2988,3.1894,3.0488,2.9844,0.0,2.9141,2.8437,0.0,2.7656,2.6875,2.6562,2.5879,2.5489,2.5476,2.6217,2.6418,2.6082,0.0,0.0,0.0,2.7432,2.6904,2.5901,2.5896,2.533,2.4387,2.4931,2.4813,2.4165,2.3746,2.3522,2.3374,2.2609,2.231,2.231,2.231,2.231,2.231,2.231,2.2796,2.3232,2.2377,2.3438,2.5098,2.5194,2.553,2.5598,2.4529,2.3964,2.3291,2.1848,2.1105,2.0466,1.9642,1.9184,1.8769,1.8193,1.7963,1.7678,1.7115,1.6875,1.6436,1.5461,0.0,0.0,0.0,0.0,0.0,0.0,0.0,0.0,0.0,1.342,0.0,0.0,0.0,0.0,0.0,0.0,0.0,0.0,1.5186,0.0,1.3815,1.3563,1.3382,1.32,1.3382,1.3382,1.316,1.2238,1.2117,1.2604,1.2525,1.312,1.4137,1.4697,1.5444,1.6275,1.6595,1.6751,1.6764,1.6969,1.6995,1.6995,3.586,3.6944,3.7705,3.7344,3.7586,3.7725,3.7434,3.6687,3.5877,3.5076,3.3789,3.2754,3.2246,3.0937,0.0,3.0859,2.9902,2.9375,2.959,2.8574,2.7832,2.75,2.6836,2.6487,2.6487,0.0,0.0,2.7086,2.7965,2.8405,2.8393,2.8315,2.7698,2.6754,2.6969,2.6508,2.5568,2.6059,2.5941,2.5293,2.4784,2.4514,2.4282,2.3159,2.2885,2.3054,2.2513,2.2496,2.2682,2.2395,2.2796,2.3323,2.287,2.3852,2.5126,2.4869,2.5695,2.6367,2.4946,2.4477,2.4048,2.252,2.1519,2.0712,1.9897,1.9465,1.9121,1.8768,1.8528,1.8277,1.7949,1.7563,1.7063,1.6373,1.6089,1.5533,0.0,0.0,0.0,0.0,0.0,0.0,0.0,1.3238,0.0,0.0,0.0,0.0,0.0,0.0,0.0,1.5276,1.488,0.0,1.3467,1.3104,1.2881,1.2881,1.2881,1.2793,1.2607,1.1989,1.1816,1.2058,1.2235,1.298,1.4137,1.4697,1.5517,1.6522,1.6522,1.6522,1.6522,1.6522,1.6522,1.6522,3.2488,3.4715,0.0,0.0,3.6169,0.0,3.582,3.5039,3.4258,3.3496,3.2695,3.2207,3.2207,3.1426,3.0898,3.0898,0.0,0.0,0.0,2.9629,2.9238,2.8437,2.8202,2.8092,2.8097,2.8762,2.876,2.8061,2.8333,2.8796,2.9398,2.9131,2.8613,2.7879,2.7879,2.7438,2.6686,2.6741,2.6553,2.6193,2.5775,2.5455,2.509,2.3938,2.393,2.432,2.2885,2.2852,2.3359,2.2581,2.2796,2.3386,2.3386,2.3893,2.4379,2.3614,2.4924,2.6447,2.5647,2.5128,2.4544,2.345,2.2202,2.0963,1.9936,1.969,1.969,1.969,1.9307,1.8956,1.8905,1.8052,1.7346,1.7325,1.6832,1.6058,1.4845,0.0,0.0,0.0,0.0,0.0,0.0,1.2881,1.3152,0.0,0.0,0.0,0.0,0.0,1.5231,1.4663,1.4652,1.4071,1.2929,1.2881,1.2881,1.2881,1.2929,1.2714,1.2275,1.2802,1.2624,1.1887,1.2792,1.3563,1.4237,1.4759,1.5555,1.6522,1.6522,1.6522,1.6522,1.6522,1.6522,1.6522,0.0,0.0,3.3024,3.3711,3.4022,3.4121,3.4004,3.3828,3.3613,3.3418,3.2695,3.2207,3.2207,3.1426,3.0898,3.0898,3.0898,3.0801,3.0605,2.9961,2.9512,2.9297,2.8532,2.8107,2.8107,2.8752,2.9233,2.949,2.9432,2.9395,2.9375,2.9134,2.8883,2.8723,2.8723,2.8282,2.7548,2.8172,2.8017,2.7364,2.7031,2.6665,2.6284,2.5125,2.4607,2.4388,2.346,2.3613,2.4036,2.275,2.2796,2.3401,2.3401,2.3896,2.4356,2.3636,2.4574,2.5572,2.4269,2.4355,2.4475,2.3144,2.1657,2.0395,1.9843,1.969,1.969,1.969,1.9594,1.9403,1.8986,1.8366,1.7788,1.7349,1.6832,1.6058,1.4845,1.471,0.0,0.0,1.2881,1.2881,1.2881,1.2881,1.2968,0.0,0.0,0.0,0.0,0.0,1.4179,1.4003,1.4003,1.3647,1.2929,1.2881,1.2881,1.2929,1.3372,1.3273,1.2763,1.3491,1.3673,1.3387,1.3726,1.4429,1.5318,1.5452,1.5906,1.6522,1.6522,1.6522,1.6522,1.6522,1.6522,1.6522,2.8137,2.9646,3.0962,3.1747,3.2343,3.2715,3.2754,3.2461,3.2246,3.2168,3.1783,3.1504,3.1465,3.1044,3.0757,3.0757,3.0856,3.0898,3.0898,3.0469,3.0176,3.0117,2.954,2.9229,2.919,2.9529,2.9848,3.0186,2.9874,2.9645,2.9532,2.916,2.8994,2.8994,2.8994,2.8778,2.8374,2.8815,2.876,2.8315,2.7937,2.7695,2.7388,2.6107,2.569,2.562,2.4364,2.4374,2.4831,2.368,2.3562,2.3883,2.3883,2.4181,2.4421,2.4031,2.4715,2.5365,2.4223,2.402,2.3793,2.2309,2.1116,2.0177,1.9782,1.969,1.969,1.969,1.969,1.9594,1.9322,1.8636,1.7989,1.7721,1.6798,1.5763,1.4835,1.4457,0.0,1.3017,1.2881,1.2881,1.2881,1.2881,1.2881,1.2881,0.0,0.0,1.3372,1.3637,1.3815,1.3815,1.3815,1.3505,1.2929,1.2881,1.2881,1.2929,1.3505,1.3533,1.301,1.3972,1.4275,1.402,1.4321,1.4928,1.5693,1.5693,1.6019,1.6522,1.6522,1.6522,1.6522,1.6522,1.6522,1.6522,2.5321,2.7453,2.9251,2.9682,3.0646,3.1361,3.1426,3.0996,3.0644,3.0527,3.062,3.066,3.0602,3.0595,3.0607,3.0607,3.0755,3.0853,3.0859,3.0859,3.08,3.0693,3.0629,3.0564,3.0506,3.0417,3.0398,3.0398,2.9929,2.9701,2.9683,2.9348,2.9177,2.9177,2.9177,2.9177,2.9159,2.9049,2.8994,2.8952,2.8633,2.8446,2.8252,2.6996,2.6882,2.7174,2.5398,2.5275,2.5817,2.4887,2.4696,2.4842,2.4768,2.4768,2.4788,2.4837,2.5115,2.5298,2.4677,2.3947,2.2999,2.1421,2.0698,2.0296,1.9818,1.969,1.969,1.969,1.969,1.969,1.969,1.8834,1.8114,1.8089,1.6759,1.5544,1.4935,0.0,1.3826,1.3104,1.3065,1.3017,1.2929,1.2881,1.2881,1.2881,1.3372,1.342,0.0,1.3372,1.3637,1.3637,1.3637,1.342,1.2929,1.2881,1.2881,1.2929,1.36,1.3697,1.3271,1.4474,1.4791,1.4377,1.4893,1.5379,1.5819,1.5819,1.6095,1.6522,1.6522,1.6522,1.6522,1.6522,1.6522,1.6522,2.3754,2.5074,2.6349,2.7466,2.8044,2.845,2.8747,2.9277,2.9648,2.9687,3.0224,3.0602,3.0602,3.0609,3.0593,3.0593,3.0635,3.0644,3.0644,3.0644,3.0635,3.0617,3.0552,3.0506,3.0506,3.0417,3.0398,3.0398,2.9915,2.9716,2.9698,2.9909,3.0008,3.0008,3.0008,3.0008,2.9971,2.9287,2.8994,2.8994,2.8929,2.8707,2.8376,2.8146,2.795,2.763,2.6375,2.6638,2.7291,2.5588,2.5638,2.6377,2.6033,2.5962,2.5993,2.6282,2.5559,2.4664,2.4532,2.3956,2.2999,2.1421,2.0959,2.0665,1.9889,1.969,1.969,1.969,1.969,1.969,1.969,1.8807,1.8091,1.8094,1.714,1.6137,1.5563,0.0,1.4903,1.3779,1.3637,1.3457,1.2978,1.2881,1.2881,1.2881,1.2968,1.3017,1.2929,1.2968,1.3065,1.3065,1.3065,1.2968,1.2881,1.2881,1.2881,1.2929,1.4025,1.425,1.3757,1.5437,1.5936,1.5381,1.5991,1.6308,1.6384,1.6384,1.6446,1.6522,1.6522,1.6522,1.6522,1.6522,1.6522,1.6522,2.2302,2.3545,2.4808,2.5953,2.686,2.7537,2.7879,2.8365,2.8844,2.9285,2.9631,3.0006,3.0448,3.0487,3.0487,3.0487,3.0487,3.0481,3.0497,3.1002,3.1491,3.1881,3.185,3.1626,3.1153,3.066,3.0398,3.0398,3.0509,3.0495,3.0357,3.0847,3.0988,3.0834,3.0393,3.0448,3.076,2.9549,2.9255,2.9622,2.9159,2.8905,2.8682,2.8471,2.8298,2.8076,2.736,2.7454,2.7763,2.6898,2.6954,2.731,2.6934,2.6784,2.6792,2.6723,2.5949,2.4842,2.365,2.3638,2.3545,2.1784,2.1466,2.1311,2.0261,1.9879,1.969,1.969,1.969,1.969,1.969,1.8815,1.8097,1.8108,1.6913,0.0,0.0,1.5311,1.4926,1.4329,1.4283,1.4061,1.342,1.3372,1.3238,1.2929,1.2881,1.2881,1.2881,1.2881,1.2881,1.2881,1.2881,1.2881,1.2881,1.2881,1.2881,1.2929,1.4118,1.456,1.4329,1.5832,1.6337,1.6095,1.638,1.6522,1.6522,1.6522,1.6522,1.6522,1.6522,1.6522,1.6522,1.6522,1.6522,1.6522,2.1167,2.2395,2.3633,2.4593,2.5721,2.6637,2.7026,2.7435,2.7981,2.8813,2.9071,2.9486,3.0314,3.0398,3.0398,3.0398,3.0398,3.0475,3.0698,3.1417,3.2109,3.2666,3.289,3.2582,3.1715,3.1241,3.0891,3.0706,3.132,3.1458,3.1223,3.1815,3.1941,3.1641,3.1035,3.1109,3.1568,2.9971,2.9641,3.0136,2.9305,2.8994,2.897,2.8658,2.854,2.8489,2.8129,2.8093,2.8147,2.8065,2.8093,2.8093,2.766,2.75,2.733,2.6766,2.6133,2.5178,2.3329,2.363,2.4073,2.2304,2.184,2.1583,2.053,2.0,1.969,1.969,1.969,1.969,1.969,1.8942,1.8247,1.8139,0.0,0.0,0.0,1.5421,1.5062,1.4926,1.4926,1.4652,1.405,1.4003,1.3779,1.3152,1.3104,1.3065,1.2929,1.2881,1.2881,1.2881,1.2881,1.2881,1.2881,1.2881,1.2881,1.2929,1.3967,1.456,1.4744,1.5656,1.6238,1.6479,1.6337,1.638,1.6522,1.6522,1.6522,1.6522,1.6522,1.6522,1.6522,1.6522,1.6522,1.6522,2.0645,2.1487,2.2405,2.2976,2.3821,2.462,2.5212,2.5938,2.6834,2.7939,2.8679,2.9429,3.0314,3.0398,3.0398,3.0398,3.0398,3.0737,3.1545,3.1679,3.1738,3.1774,3.2511,3.2526,3.1734,3.2362,3.2351,3.1609,3.2205,3.2373,3.2128,3.2655,3.2771,3.2522,3.2467,3.2467,3.2412,3.0797,3.0155,3.0136,2.9305,2.8994,2.8994,2.897,2.897,2.8887,2.8515,2.8608,2.8863,2.8489,2.8608,2.8839,2.8446,2.8102,2.7642,2.6561,2.5942,2.5407,2.456,2.4421,2.4214,2.2946,2.1826,2.095,2.0428,1.9984,1.969,1.969,1.969,1.969,1.969,1.9249,1.8705,1.8173,0.0,0.0,1.6509,1.638,1.6151,1.5588,1.5543,1.532,1.4698,1.4652,1.4376,1.3779,1.3732,1.3505,1.2929,1.2881,1.2881,1.2881,1.2881,1.2881,1.2881,1.2881,1.2881,1.2929,1.3552,1.4143,1.4698,1.4789,1.5421,1.6466,1.5908,1.5996,1.6522,1.6522,1.6522,1.6522,1.6522,1.6522,1.6522,1.6522,1.6522,1.6522,1.9924,2.0274,2.0958,2.2177,2.2946,2.3675,2.4488,2.5101,2.6074,2.7706,2.8179,2.8871,3.0244,3.0398,3.0398,3.0398,3.0398,3.0533,3.0871,3.141,3.1911,3.242,3.3254,3.3319,3.2468,3.2743,3.2736,3.2436,3.3211,3.3371,3.2951,3.3715,3.3813,3.333,3.281,3.2892,3.322,3.1084,3.0485,3.0833,2.9512,2.8994,2.8994,2.8994,2.8994,2.8994,2.8839,2.8863,2.8994,2.8839,2.8863,2.8929,2.854,2.8316,2.7852,2.6044,2.5562,2.5338,2.4137,2.4489,2.485,2.3481,2.2395,2.1528,2.0872,2.0193,1.969,1.969,1.969,1.969,1.969,1.9251,1.8734,1.8196,0.0,1.7118,1.6595,1.6522,1.6423,1.6194,1.6151,1.592,1.532,1.5276,1.5005,1.4422,1.4376,1.4097,1.3505,1.3104,1.2881,1.2881,1.2881,1.2881,1.2881,1.3286,1.3467,1.3467,1.4457,1.4824,1.4698,1.5107,1.5511,1.5908,1.572,1.5952,1.6522,1.6522,1.6522,1.6522,1.6522,1.6522,1.6522,1.6522,1.6522,1.6522,1.9272,1.9499,2.0147,2.1795,2.2519,2.316,2.4077,2.4624,2.5532,2.7179,2.7695,2.8429,2.9852,3.0237,3.0398,3.0398,3.0398,3.0398,3.0398,3.1205,3.2058,3.2856,3.3991,3.4068,3.2914,3.3167,3.3173,3.2904,3.3493,3.3551,3.3134,3.392,3.39,3.3158,3.2757,3.2757,3.2938,3.0995,3.054,3.0895,2.9549,2.8994,2.8994,2.8994,2.8994,2.8994,2.8994,2.8994,2.8994,2.8994,2.8994,2.8952,2.8682,2.8334,2.7669,2.5662,2.5441,2.5428,2.3829,2.4303,2.498,2.3715,2.2575,2.1619,2.1138,2.0325,1.969,1.969,1.969,1.969,1.969,1.9403,1.8914,1.819,1.7798,1.7312,1.6595,1.6522,1.6522,1.6522,1.6522,1.6337,1.5908,1.5864,1.5644,1.5017,1.4971,1.4732,1.4097,1.3515,1.3286,1.3478,1.3286,1.3286,1.3478,1.3695,1.392,1.4097,1.4915,1.5186,1.5005,1.5231,1.5499,1.5864,1.5676,1.5952,1.6522,1.6522,1.6522,1.6522,1.6522,1.6522,1.6522,1.6522,1.6522,1.6522,1.8738,1.924,2.0196,2.1802,2.2427,2.3006,2.3855,2.4452,2.5158,2.6168,2.7225,2.8198,2.9006,2.989,3.0398,3.0398,3.0398,3.0398,3.0398,3.1225,3.2065,3.2856,3.4562,3.4691,3.2952,3.3747,3.378,3.2914,3.2914,3.276,3.2516,3.3108,3.2821,3.1828,3.2364,3.2155,3.1356,3.0559,3.0194,3.0124,2.9318,2.8994,2.8994,2.8994,2.8994,2.8994,2.8994,2.8994,2.8994,2.8994,2.8994,2.8994,2.8994,2.8226,2.7018,2.555,2.5646,2.5806,2.3901,2.3934,2.4323,2.3587,2.219,2.1021,2.1023,2.0303,1.969,1.969,1.969,1.969,1.969,1.969,1.9337,1.8252,1.8092,1.7733,1.6637,1.6522,1.6522,1.6522,1.6522,1.6522,1.6522,1.6522,1.6238,1.5632,1.5588,1.532,1.4744,1.4143,1.4097,1.4698,1.4097,1.4097,1.4698,1.4097,1.4097,1.4698,1.4698,1.5017,1.5588,1.4971,1.5377,1.6479,1.5864,1.5952,1.6522,1.6522,1.6522,1.6522,1.6522,1.6522,1.6522,1.6522,1.6522,1.6522,1.7744,1.8173,1.9045,2.0492,2.1512,2.2478,2.3476,2.4312,2.5158,2.6168,2.7225,2.8198,2.9006,2.989,3.0398,3.0398,3.0398,3.0398,3.0398,3.1229,3.1807,3.2045,3.3673,3.4351,3.3819,3.4672,3.468,3.3807,3.3807,3.3371,3.2499,3.2549,3.2279,3.1792,3.1758,3.1617,3.1354,3.054,3.021,3.0129,2.931,2.8994,2.8994,2.8994,2.8994,2.8994,2.8994,2.8994,2.8994,2.8994,2.8994,2.8994,2.8994,2.8226,2.715,2.649,2.6265,2.5806,2.3901,2.3934,2.4262,2.3172,2.1952,2.0927,2.0588,2.0095,1.969,1.969,1.969,1.969,1.969,1.9403,1.8905,1.8223,1.7786,1.7303,1.6612,1.6522,1.6522,1.6522,1.6522,1.6522,1.6522,1.6522,1.6423,1.6238,1.582,1.5543,1.532,1.4778,1.4514,1.4698,1.4525,1.4732,1.532,1.5129,1.5129,1.532,1.5744,1.5832,1.5576,1.541,1.5543,1.5864,1.5676,1.5952,1.6522,1.6522,1.6522,1.6522,1.6522,1.6522,1.6522,1.6522,1.6522,1.6522,1.7552,1.7882,1.8595,2.0233,2.1197,2.2099,2.3222,2.4008,2.4782,2.5606,2.6625,2.7604,2.8525,2.9371,3.0025,3.0359,3.0398,3.0398,3.0398,3.0902,3.1338,3.1677,3.266,3.3517,3.4183,3.473,3.4737,3.4212,3.353,3.2856,3.2189,3.1946,3.1566,3.1082,3.1181,3.0974,3.0577,3.0088,2.9803,2.9692,2.9182,2.8994,2.8994,2.8994,2.8994,2.8994,2.8994,2.8994,2.8994,2.8994,2.8994,2.8994,2.8994,2.8534,2.7828,2.7023,2.6823,2.6359,2.4045,2.3947,2.4093,2.2423,2.1518,2.0879,2.04,2.0,1.969,1.969,1.969,1.969,1.969,1.9432,1.9038,1.8493,1.7988,1.7446,1.6893,1.6615,1.6522,1.6522,1.6522,1.6522,1.6522,1.6522,1.6522,1.6522,1.6151,1.5952,1.5952,1.5365,1.5152,1.5377,1.5197,1.5332,1.5964,1.5952,1.5952,1.5952,1.6337,1.6293,1.5952,1.5952,1.5952,1.5952,1.5952,1.6139,1.6522,1.6522,1.6522,1.6522,1.6522,1.6522,1.6522,1.6522,1.6522,1.6522,1.7811,1.8058,1.8689,2.0615,2.1259,2.1898,2.3035,2.3678,2.4209,2.4712,2.5644,2.667,2.772,2.8568,2.9394,3.0266,3.0355,3.0367,3.0398,3.0398,3.0794,3.1657,3.1693,3.2453,3.4043,3.4159,3.4216,3.4216,3.2583,3.1761,3.1696,3.1434,3.083,3.0039,3.0643,3.0357,2.9437,2.9398,2.926,2.9035,2.8994,2.8994,2.8994,2.8994,2.8994,2.8994,2.8994,2.8994,2.8994,2.8994,2.8994,2.8994,2.8994,2.8994,2.8651,2.7236,2.7308,2.7209,2.4223,2.393,2.3934,2.1606,2.1006,2.0862,2.034,1.9974,1.969,1.969,1.969,1.969,1.969,1.966,1.9463,1.9003,1.8432,1.7922,1.7394,1.6888,1.6534,1.6522,1.6522,1.6522,1.6522,1.6522,1.6522,1.6522,1.6522,1.6522,1.6522,1.5964,1.5908,1.6466,1.5964,1.5952,1.6466,1.6522,1.6522,1.6522,1.6522,1.6522,1.6522,1.6522,1.6522,1.6522,1.6522,1.6522,1.6522,1.6522,1.6522,1.6522,1.6522,1.6522,1.6522,1.6522,1.6522,1.668,1.7231,1.7788,1.8581,2.0099,2.118,2.2139,2.307,2.3881,2.4424,2.4543,2.5442,2.6389,2.7252,2.8116,2.8969,2.9772,3.0003,3.0182,3.0398,3.0398,3.0794,3.1657,3.1711,3.2172,3.3159,3.3859,3.4216,3.4216,3.3146,3.2327,3.1696,3.1434,3.0829,3.0023,3.0682,3.0476,2.9622,2.9465,2.937,2.9297,2.909,2.8994,2.8994,2.8994,2.8994,2.8994,2.8994,2.8994,2.8994,2.8994,2.8994,2.8994,2.8994,2.8773,2.8301,2.7139,2.7095,2.6854,2.4139,2.3951,2.3944,2.1591,2.1007,2.0771,2.0015,1.9767,1.969,1.969,1.969,1.969,1.969,1.9337,1.9053,1.8919,1.8441,1.7921,1.7375,1.72,1.6969,1.6534,1.6522,1.6522,1.6522,1.6522,1.6522,1.6522,1.6522,1.6522,1.6522,1.638,1.638,1.6522,1.638,1.638,1.6522,1.6522,1.6522,1.6522,1.6522,1.6522,1.6522,1.6522,1.6522,1.6522,1.6522,1.6522,1.6522,1.6522,1.6522,1.6522,1.6522,1.6522,1.6522,1.6522,1.6752,1.7271,1.74,1.7895,1.8639,2.0286,2.1227,2.2062,2.3043,2.3715,2.4211,2.4478,2.4965,2.564,2.6525,2.7031,2.7786,2.9032,2.9665,3.0061,3.0196,3.0323,3.0602,3.1056,3.0957,3.1335,3.2305,3.307,3.3686,3.4216,3.3728,3.3288,3.2875,3.2324,3.1811,3.1395,3.1754,3.1602,3.1085,3.0975,3.0562,2.9955,2.9803,2.9467,2.8994,2.8994,2.8994,2.8994,2.8994,2.8994,2.8994,2.8994,2.8994,2.897,2.8779,2.8576,2.8226,2.7317,2.7173,2.6806,2.456,2.4208,2.3935,2.1586,2.0989,2.0767,1.9899,1.969,1.969,1.969,1.969,1.969,1.969,1.9483,1.9292,1.9292,1.8825,1.8366,1.8104,1.7837,1.7488,1.6969,1.6888,1.6764,1.6522,1.6522,1.6522,1.6522,1.6522,1.6522,1.6522,1.6522,1.6522,1.6522,1.6522,1.6522,1.6522,1.6522,1.6522,1.6522,1.6522,1.6522,1.6522,1.6522,1.6522,1.6522,1.6522,1.6522,1.6522,1.6522,1.6522,1.6522,1.6522,1.6522,1.6522,1.6522,1.6993,1.7787,1.776,1.8153,1.8792,2.0661,2.1392,2.2042,2.3055,2.3529,2.3959,2.4392,2.4444,2.4827,2.5794,2.6016,2.6728,2.8303,2.9254,2.9817,2.998,3.0254,3.0398,3.0398,3.0152,3.0467,3.1456,3.2057,3.2904,3.3972,3.4126,3.4122,3.3966,3.3383,3.3037,3.2909,3.3056,3.2949,3.2645,3.2622,3.1917,3.0853,3.0655,3.0051,2.9182,2.9053,2.8994,2.8994,2.8994,2.8994,2.8975,2.892,2.8902,2.8832,2.8453,2.828,2.8058,2.7313,2.7058,2.6627,2.4972,2.4391,2.379,2.1703,2.1082,2.0777,1.9914,1.969,1.969,1.969,1.969,1.969,1.969,1.969,1.969,1.969,1.9322,1.9051,1.9066,1.8686,1.819,1.7686,1.7457,1.7119,1.6534,1.6609,1.6622,1.6522,1.6602,1.6602,1.6522,1.6522,1.6522,1.6522,1.6522,1.6522,1.6522,1.6522,1.6522,1.6522,1.6522,1.6522,1.6522,1.6522,1.6522,1.6522,1.6595,1.662,1.6658,1.6637,1.665,1.6658,1.6637,1.6655,1.6655,1.6824,1.7463,1.8302,1.777,1.843,1.9191,2.0736,2.181,2.2609,2.3129,2.3731,2.417,2.4228,2.4247,2.456,2.5391,2.609,2.6947,2.8073,2.8476,2.9068,2.9942,3.0254,3.0398,3.0398,3.0152,3.0178,3.0568,3.1167,3.1994,3.3081,3.3838,3.3799,3.3075,3.3736,3.3621,3.2922,3.3698,3.3588,3.2856,3.2678,3.2352,3.1909,3.0973,3.0369,2.9955,2.926,2.8994,2.8994,2.8994,2.8994,2.8938,2.8599,2.8489,2.8429,2.808,2.7727,2.7315,2.6588,2.6113,2.5642,2.4749,2.4037,2.3283,2.2215,2.1472,2.0768,1.9903,1.969,1.969,1.969,1.969,1.969,1.969,1.969,1.969,1.969,1.9645,1.9645,1.9756,1.97,1.9472,1.8906,1.8004,1.7132,1.6547,1.6974,1.7049,1.6559,1.6982,1.705,1.6534,1.6522,1.6522,1.6522,1.6522,1.6522,1.6522,1.6522,1.6522,1.6522,1.6522,1.6522,1.6522,1.6522,1.6522,1.6522,1.6993,1.7193,1.7175,1.7188,1.7199,1.7205,1.7188,1.718,1.7316,1.8221,1.865,1.8855,1.7852,1.8277,1.8952,2.07,2.1664,2.2434,2.3097,2.3871,2.4339,2.4209,2.4303,2.4469,2.4705,2.5438,2.6105,2.6539,2.7214,2.7836,2.8408,2.9107,2.9557,2.9679,2.9874,3.006,3.0176,3.0791,3.1131,3.1111,3.2699,3.3532,3.3632,3.4011,3.4255,3.437,3.4749,3.471,3.4351,3.4274,3.3776,3.3044,3.2418,3.1464,3.0369,2.9863,2.9389,2.8994,2.8994,2.8865,2.8659,2.8471,2.8286,2.8041,2.7683,2.7163,2.6673,2.6536,2.5763,2.4896,2.4595,2.4258,2.3617,2.1927,2.1537,2.1296,1.9999,1.969,1.969,1.969,1.969,1.969,1.969,1.969,1.969,1.969,2.0014,2.0288,2.0354,2.0667,2.0577,1.9677,1.8565,1.7748,1.7483,1.7429,1.7422,1.7438,1.7106,1.6913,1.6982,1.6683,1.6522,1.6522,1.6522,1.6522,1.6522,1.6522,1.6522,1.6522,1.6522,1.6522,1.6522,1.6522,1.668,1.6951,1.7188,1.7459,1.7769,1.776,1.7743,1.7777,1.7734,1.776,1.7834,1.8593,1.8893,1.8968]},{"header":{"parameterUnit":"m.s-1","parameterCategory":1,"la1":30.6,"la2":28.766,"lo1":-90.7593,"lo2":-88.6598,"dy":0.0162,"dx":0.0183,"nx":116,"ny":114,"refTime":"2023-06-03T06:00:00:Z","depth":0,"parameterNumber":3,"parameterNumberName":"V-component_of_WINDS"},"data":[0.0,0.0,0.0,0.0,0.0,0.0,0.0,0.0,0.0,0.0,0.0,0.0,0.0,0.0,0.0,0.0,0.0,0.0,0.0,0.0,0.0,0.0,0.0,0.0,0.0,0.0,0.0,0.0,0.0,0.0,0.0,0.0,0.0,0.0,0.0,0.0,0.0,0.0,0.0,0.0,0.0,0.0,0.0,0.0,0.0,0.0,0.0,0.0,0.0,0.0,0.0,0.0,0.0,0.0,0.0,0.0,0.0,0.0,0.0,0.0,0.0,0.0,0.0,0.0,0.0,0.0,0.0,0.0,0.0,0.0,0.0,0.0,0.0,0.0,0.0,0.0,0.0,0.0,0.0,0.0,0.0,0.0,0.0,0.0,0.0,0.0,0.0,0.0,0.0,0.0,0.0,0.0,0.0,0.0,0.0,0.0,0.0,0.0,0.0,0.0,0.0,0.0,0.0,0.0,0.0,0.0,0.0,0.0,0.0,0.0,0.0,0.0,0.0,0.0,0.0,0.0,0.0,0.0,0.0,0.0,0.0,0.0,0.0,0.0,0.0,0.0,0.0,0.0,0.0,0.0,0.0,0.0,0.0,0.0,0.0,0.0,0.0,0.0,0.0,0.0,0.0,0.0,0.0,0.0,0.0,0.0,0.0,0.0,0.0,0.0,0.0,0.0,0.0,0.0,0.0,0.0,0.0,0.0,0.0,0.0,0.0,0.0,0.0,0.0,0.0,0.0,0.0,0.0,0.0,0.0,0.0,0.0,0.0,0.0,0.0,0.0,0.0,0.0,0.0,0.0,0.0,0.0,0.0,0.0,0.0,0.0,0.0,0.0,0.0,0.0,0.0,0.0,0.0,0.0,0.0,0.0,0.0,0.0,0.0,0.0,0.0,0.0,0.0,0.0,0.0,0.0,0.0,0.0,0.0,0.0,0.0,0.0,0.0,0.0,0.0,0.0,0.0,0.0,0.0,0.0,0.0,0.0,0.0,0.0,0.0,0.0,0.0,0.0,0.0,0.0,0.0,0.0,0.0,0.0,0.0,0.0,0.0,0.0,0.0,0.0,0.0,0.0,0.0,0.0,0.0,0.0,0.0,0.0,0.0,0.0,0.0,0.0,0.0,0.0,0.0,0.0,0.0,0.0,0.0,0.0,0.0,0.0,0.0,0.0,0.0,0.0,0.0,0.0,0.0,0.0,0.0,0.0,0.0,0.0,0.0,0.0,0.0,0.0,0.0,0.0,0.0,0.0,0.0,0.0,0.0,0.0,0.0,0.0,0.0,0.0,0.0,0.0,0.0,0.0,0.0,0.0,0.0,0.0,0.0,0.0,0.0,0.0,0.0,0.0,0.0,0.0,0.0,0.0,0.0,0.0,0.0,0.0,0.0,0.0,0.0,0.0,0.0,0.0,0.0,0.0,0.0,0.0,0.0,0.0,0.0,0.0,0.0,0.0,0.0,0.0,0.0,0.0,0.0,0.0,0.0,0.0,0.0,0.0,0.0,0.0,0.0,0.0,0.0,0.0,0.0,0.0,0.0,0.0,0.0,0.0,0.0,0.0,0.0,0.0,0.0,0.0,0.0,0.0,0.0,0.0,0.0,0.0,0.0,0.0,0.0,0.0,0.0,0.0,0.0,0.0,0.0,0.0,0.0,0.0,0.0,0.0,0.0,0.0,0.0,0.0,0.0,0.0,0.0,0.0,0.0,0.0,0.0,0.0,0.0,0.0,0.0,0.0,0.0,0.0,0.0,0.0,0.0,0.0,0.0,0.0,0.0,0.0,0.0,0.0,0.0,0.0,0.0,0.0,0.0,0.0,0.0,0.0,0.0,0.0,0.0,0.0,0.0,0.0,0.0,0.0,0.0,0.0,0.0,0.0,0.0,0.0,0.0,0.0,0.0,0.0,0.0,0.0,0.0,0.0,0.0,0.0,0.0,0.0,0.0,0.0,0.0,0.0,0.0,0.0,0.0,0.0,0.0,0.0,0.0,0.0,0.0,0.0,0.0,0.0,0.0,0.0,0.0,0.0,0.0,0.0,0.0,0.0,0.0,0.0,0.0,0.0,0.0,0.0,0.0,0.0,0.0,0.0,0.0,0.0,0.0,0.0,0.0,0.0,0.0,0.0,0.0,0.0,0.0,0.0,0.0,0.0,0.0,0.0,0.0,0.0,0.0,0.0,0.0,0.0,0.0,0.0,0.0,0.0,0.0,0.0,0.0,0.0,0.0,0.0,0.0,0.0,0.0,0.0,0.0,0.0,0.0,0.0,0.0,0.0,0.0,0.0,0.0,0.0,0.0,0.0,0.0,0.0,0.0,0.0,0.0,0.0,0.0,0.0,0.0,0.0,0.0,0.0,0.0,0.0,0.0,0.0,0.0,0.0,0.0,0.0,0.0,0.0,0.0,0.0,0.0,0.0,0.0,0.0,0.0,0.0,0.0,0.0,0.0,0.0,0.0,0.0,0.0,0.0,0.0,0.0,0.0,0.0,0.0,0.0,0.0,0.0,0.0,0.0,0.0,0.0,0.0,0.0,0.0,0.0,0.0,0.0,0.0,0.0,0.0,0.0,0.0,0.0,0.0,0.0,0.0,0.0,0.0,0.0,0.0,0.0,0.0,0.0,0.0,0.0,0.0,0.0,0.0,0.0,0.0,0.0,0.0,0.0,0.0,0.0,0.0,0.0,0.0,0.0,0.0,0.0,0.0,0.0,0.0,0.0,0.0,0.0,0.0,0.0,0.0,0.0,0.0,0.0,0.0,0.0,0.0,0.0,0.0,0.0,0.0,0.0,0.0,0.0,0.0,0.0,0.0,0.0,0.0,0.0,0.0,0.0,0.0,0.0,0.0,0.0,0.0,0.0,0.0,0.0,0.0,0.0,0.0,0.0,0.0,0.0,0.0,0.0,0.0,0.0,0.0,0.0,0.0,0.0,0.0,0.0,0.0,0.0,0.0,0.0,0.0,0.0,0.0,0.0,0.0,0.0,0.0,0.0,0.0,0.0,0.0,0.0,0.0,0.0,0.0,0.0,0.0,0.0,0.0,0.0,0.0,0.0,0.0,0.0,0.0,0.0,0.0,0.0,0.0,0.0,0.0,0.0,0.0,0.0,0.0,0.0,0.0,0.0,0.0,0.0,0.0,0.0,0.0,0.0,0.0,0.0,0.0,0.0,0.0,0.0,0.0,0.0,0.0,0.0,0.0,0.0,0.0,0.0,0.0,0.0,0.0,0.0,0.0,0.0,0.0,0.0,0.0,0.0,0.0,0.0,0.0,0.0,0.0,0.0,0.0,0.0,0.0,0.0,0.0,0.0,0.0,0.0,0.0,0.0,0.0,0.0,0.0,0.0,0.0,0.0,0.0,0.0,0.0,0.0,0.0,0.0,0.0,0.0,0.0,0.0,0.0,0.0,0.0,0.0,0.0,0.0,0.0,0.0,0.0,0.0,0.0,0.0,0.0,0.0,0.0,0.0,0.0,0.0,0.0,0.0,0.0,0.0,0.0,0.0,0.0,0.0,0.0,0.0,0.0,0.0,0.0,0.0,0.0,0.0,0.0,0.0,0.0,0.0,0.0,0.0,0.0,0.0,0.0,0.0,0.0,0.0,0.0,0.0,0.0,0.0,0.0,0.0,0.0,0.0,0.0,0.0,0.0,0.0,0.0,0.0,0.0,0.0,0.0,0.0,0.0,0.0,0.0,0.0,0.0,0.0,0.0,0.0,0.0,0.0,0.0,0.0,0.0,0.0,0.0,0.0,0.0,0.0,0.0,0.0,0.0,0.0,0.0,0.0,0.0,0.0,0.0,0.0,0.0,0.0,0.0,0.0,0.0,0.0,0.0,0.0,0.0,0.0,0.0,0.0,0.0,0.0,0.0,0.0,0.0,0.0,0.0,0.0,0.0,0.0,0.0,0.0,0.0,0.0,0.0,0.0,0.0,0.0,0.0,0.0,0.0,0.0,0.0,0.0,0.0,0.0,0.0,0.0,0.0,0.0,0.0,0.0,0.0,0.0,0.0,0.0,0.0,0.0,0.0,0.0,0.0,0.0,0.0,0.0,0.0,0.0,0.0,0.0,0.0,0.0,0.0,0.0,0.0,0.0,0.0,0.0,0.0,0.0,0.0,0.0,0.0,0.0,0.0,0.0,0.0,0.0,0.0,0.0,0.0,0.0,0.0,0.0,0.0,0.0,0.0,0.0,0.0,0.0,0.0,0.0,0.0,0.0,0.0,0.0,0.0,0.0,0.0,0.0,0.0,0.0,0.0,0.0,0.0,0.0,0.0,0.0,0.0,0.0,0.0,0.0,0.0,0.0,0.0,0.0,0.0,0.0,0.0,0.0,0.0,0.0,0.0,0.0,0.0,0.0,0.0,0.0,0.0,0.0,0.0,0.0,0.0,0.0,0.0,0.0,0.0,0.0,0.0,0.0,0.0,0.0,0.0,0.0,0.0,0.0,0.0,0.0,0.0,0.0,0.0,0.0,0.0,0.0,0.0,0.0,0.0,0.0,0.0,0.0,0.0,0.0,0.0,0.0,0.0,0.0,0.0,0.0,0.0,0.0,0.0,0.0,0.0,0.0,0.0,0.0,0.0,0.0,0.0,0.0,0.0,0.0,0.0,0.0,0.0,0.0,0.0,0.0,0.0,0.0,0.0,0.0,0.0,0.0,0.0,0.0,0.0,0.0,0.0,0.0,0.0,0.0,0.0,0.0,0.0,0.0,0.0,0.0,0.0,0.0,0.0,0.0,0.0,0.0,0.0,0.0,0.0,0.0,0.0,0.0,0.0,0.0,0.0,0.0,0.0,0.0,0.0,0.0,0.0,0.0,0.0,0.0,0.0,0.0,0.0,0.0,0.0,0.0,0.0,0.0,0.0,0.0,0.0,0.0,0.0,0.0,0.0,0.0,0.0,0.0,0.0,0.0,0.0,0.0,0.0,0.0,0.0,0.0,0.0,0.0,0.0,0.0,0.0,0.0,0.0,0.0,0.0,0.0,0.0,0.0,0.0,0.0,0.0,0.0,0.0,0.0,0.0,0.0,0.0,0.0,0.0,0.0,0.0,0.0,0.0,0.0,0.0,0.0,0.0,0.0,0.0,0.0,0.0,0.0,0.0,0.0,0.0,0.0,0.0,0.0,0.0,0.0,0.0,0.0,0.0,0.0,0.0,0.0,0.0,0.0,0.0,0.0,0.0,0.0,0.0,0.0,0.0,0.0,0.0,0.0,0.0,0.0,0.0,0.0,0.0,0.0,0.0,0.0,0.0,0.0,0.0,0.0,0.0,0.0,0.0,0.0,0.0,0.0,0.0,0.0,0.0,0.0,0.0,0.0,0.0,0.0,0.0,0.0,0.0,0.0,0.0,0.0,0.0,0.0,0.0,0.0,0.0,0.0,0.0,0.0,0.0,0.0,0.0,0.0,0.0,0.0,0.0,0.0,0.0,0.0,0.0,0.0,0.0,0.0,0.0,0.0,0.0,0.0,0.0,0.0,0.0,0.0,0.0,0.0,0.0,0.0,0.0,0.0,0.0,0.0,0.0,0.0,0.0,0.0,0.0,0.0,0.0,0.0,0.0,0.0,0.0,0.0,0.0,0.0,0.0,0.0,0.0,0.0,0.0,0.0,0.0,0.0,0.0,0.0,0.0,0.0,0.0,0.0,0.0,0.0,0.0,0.0,0.0,0.0,0.0,0.0,0.0,0.0,0.0,0.0,0.0,0.0,0.0,0.0,0.0,0.0,0.0,0.0,0.0,0.0,0.0,0.0,0.0,0.0,0.0,0.0,0.0,0.0,0.0,0.0,0.0,0.0,0.0,0.0,0.0,0.0,0.0,0.0,0.0,0.0,0.0,0.0,0.0,0.0,0.0,0.0,0.0,0.0,0.0,0.0,0.0,0.0,0.0,0.0,0.0,0.0,0.0,0.0,0.0,0.0,0.0,0.0,0.0,0.0,0.0,0.0,0.0,0.0,0.0,0.0,0.0,0.0,0.0,0.0,0.0,0.0,0.0,0.0,0.0,0.0,0.0,0.0,0.0,0.0,0.0,0.0,0.0,0.0,0.0,0.0,0.0,0.0,0.0,0.0,0.0,0.0,0.0,0.0,0.0,0.0,-2.2441,0.0,0.0,0.0,0.0,0.0,0.0,0.0,0.0,0.0,0.0,0.0,0.0,0.0,0.0,0.0,0.0,0.0,0.0,0.0,0.0,0.0,0.0,0.0,0.0,0.0,0.0,0.0,0.0,0.0,0.0,0.0,0.0,0.0,0.0,0.0,0.0,0.0,0.0,-2.3988,-2.322,-2.2277,-2.1199,-2.1213,-2.0285,-1.8542,0.0,0.0,0.0,0.0,0.0,0.0,0.0,0.0,0.0,0.0,0.0,0.0,0.0,0.0,0.0,0.0,0.0,0.0,0.0,0.0,0.0,0.0,0.0,0.0,0.0,0.0,0.0,0.0,0.0,0.0,0.0,0.0,0.0,0.0,0.0,0.0,0.0,0.0,0.0,0.0,0.0,0.0,0.0,0.0,0.0,0.0,0.0,0.0,0.0,0.0,0.0,0.0,0.0,0.0,0.0,0.0,0.0,0.0,0.0,0.0,0.0,0.0,0.0,0.0,0.0,0.0,0.0,0.0,0.0,0.0,0.0,-2.2751,0.0,0.0,0.0,0.0,0.0,0.0,0.0,0.0,0.0,0.0,0.0,0.0,0.0,0.0,0.0,0.0,0.0,0.0,0.0,0.0,0.0,0.0,0.0,-1.848,-1.86,-1.8282,-1.9675,-2.0497,0.0,0.0,0.0,0.0,0.0,0.0,-2.4347,-2.4288,-2.4192,-2.4072,-2.3069,-2.2339,-2.1931,-2.2027,-2.1383,-2.0124,-2.0031,0.0,0.0,0.0,0.0,0.0,0.0,0.0,0.0,0.0,0.0,0.0,0.0,0.0,0.0,0.0,0.0,0.0,0.0,0.0,0.0,0.0,0.0,0.0,0.0,0.0,0.0,0.0,0.0,0.0,0.0,0.0,0.0,0.0,0.0,0.0,0.0,0.0,0.0,0.0,0.0,0.0,0.0,0.0,0.0,0.0,0.0,0.0,0.0,0.0,0.0,0.0,0.0,0.0,0.0,0.0,0.0,0.0,0.0,0.0,0.0,0.0,0.0,0.0,0.0,-2.4039,-2.3955,-2.4279,-2.3652,-2.2345,-2.2559,-2.1923,-2.0928,0.0,0.0,0.0,0.0,0.0,0.0,0.0,0.0,0.0,0.0,0.0,0.0,0.0,0.0,0.0,0.0,0.0,0.0,0.0,0.0,0.0,0.0,-1.9293,-1.944,-2.0019,-2.1005,-2.1229,-2.0352,0.0,0.0,0.0,0.0,0.0,-2.3388,-2.4087,-2.404,-2.3162,-2.2941,-2.3232,-2.3999,-2.4299,-2.4338,-2.3986,-2.0711,-1.9842,-2.0707,0.0,0.0,0.0,0.0,0.0,0.0,0.0,0.0,0.0,0.0,0.0,0.0,0.0,0.0,0.0,0.0,0.0,0.0,0.0,0.0,0.0,0.0,0.0,0.0,0.0,0.0,0.0,0.0,0.0,0.0,0.0,0.0,0.0,0.0,0.0,0.0,0.0,0.0,0.0,0.0,0.0,-1.7309,-1.8004,0.0,0.0,0.0,0.0,0.0,0.0,0.0,0.0,0.0,0.0,0.0,0.0,0.0,0.0,-2.381,-2.4313,-2.4125,-2.3252,-2.3539,-2.2993,-2.1749,-2.2532,-2.2437,-2.1683,-2.2508,0.0,-2.2594,-2.2984,0.0,0.0,0.0,0.0,0.0,0.0,0.0,0.0,0.0,0.0,0.0,0.0,0.0,0.0,0.0,0.0,0.0,0.0,0.0,0.0,0.0,-2.0844,-2.1718,-2.2265,-2.2815,-2.3207,-2.3333,-2.1438,0.0,0.0,0.0,-2.4025,-2.4147,-2.4017,-2.3511,-2.2601,-2.4077,-2.4741,-2.4633,-2.5558,-2.5906,-2.5683,-2.3379,-2.2473,-2.2587,-2.1023,0.0,0.0,0.0,0.0,0.0,0.0,0.0,0.0,0.0,0.0,0.0,0.0,0.0,0.0,0.0,0.0,0.0,0.0,0.0,0.0,0.0,0.0,0.0,0.0,0.0,0.0,0.0,0.0,0.0,0.0,0.0,0.0,0.0,0.0,0.0,0.0,0.0,0.0,0.0,-1.8114,-1.8674,-1.9001,-2.0017,-2.0831,0.0,0.0,0.0,0.0,0.0,0.0,0.0,0.0,0.0,-2.133,-2.2501,-2.3149,-2.316,-2.4132,-2.4719,-2.4881,-2.5423,-2.5137,-2.4121,-2.4503,-2.4296,-2.3688,-2.463,-2.5032,-2.4972,-2.4,-2.4043,-2.4668,0.0,0.0,0.0,0.0,0.0,-2.4812,0.0,0.0,0.0,0.0,0.0,0.0,0.0,0.0,0.0,0.0,0.0,0.0,-2.0626,-2.2042,-2.3327,-2.4119,-2.4266,-2.4837,-2.6023,-2.276,-2.2018,-2.4893,-2.4693,-2.4606,-2.4867,-2.4213,-2.3746,-2.3506,-2.544,-2.6187,-2.5836,-2.7126,-2.7658,-2.7456,-2.6425,-2.543,-2.4497,-2.313,-2.2152,-2.1417,0.0,0.0,0.0,0.0,0.0,0.0,0.0,0.0,0.0,0.0,0.0,0.0,0.0,0.0,0.0,0.0,0.0,0.0,0.0,0.0,0.0,0.0,0.0,0.0,0.0,0.0,0.0,0.0,0.0,0.0,0.0,0.0,0.0,0.0,0.0,0.0,0.0,-1.8647,-1.9198,-1.9412,-2.0123,-2.0823,0.0,0.0,0.0,0.0,0.0,0.0,-2.0819,-2.2571,-2.3112,-2.2078,-2.3125,-2.3707,-2.3735,-2.5174,-2.6204,-2.6802,-2.7685,-2.7608,-2.6694,-2.6491,-2.6224,-2.5976,-2.6465,-2.6811,-2.6888,-2.5398,-2.4908,-2.5119,-2.5495,-2.5774,-2.5967,-2.5967,-2.5782,-2.5529,0.0,0.0,0.0,0.0,0.0,0.0,0.0,0.0,0.0,0.0,0.0,-2.0072,-2.2139,-2.2472,-2.3267,-2.5073,-2.4893,-2.5402,-2.7108,-2.3956,-2.2678,-2.4189,-2.3866,-2.402,-2.4792,-2.4828,-2.5453,-2.6764,-2.6718,-2.7312,-2.8541,-2.9683,-3.0208,-3.016,-2.9223,-2.8009,-2.6481,-2.3832,-2.3007,-2.3388,-2.1413,0.0,0.0,0.0,0.0,0.0,0.0,0.0,0.0,0.0,0.0,0.0,0.0,0.0,0.0,0.0,0.0,0.0,0.0,0.0,0.0,0.0,0.0,0.0,0.0,0.0,0.0,0.0,0.0,0.0,0.0,0.0,0.0,0.0,0.0,0.0,0.0,0.0,0.0,-1.7817,-1.8562,0.0,0.0,0.0,0.0,-2.1153,-2.1813,-2.2027,-2.1666,-2.2653,-2.3476,-2.4045,-2.5041,-2.6408,-2.8164,-2.9209,-2.937,-2.8668,-2.9749,-2.9387,-2.7783,-2.6956,-2.7014,-2.7736,-2.6948,-2.7063,-2.7775,-2.6918,-2.7061,-2.7723,-2.686,-2.7044,-2.7775,-2.7775,-2.7079,-2.6155,0.0,0.0,0.0,0.0,0.0,0.0,0.0,0.0,-1.9994,-2.0713,-2.1108,-2.1878,-2.3308,-2.4265,-2.526,-2.6357,-2.5465,-2.431,-2.3125,-2.1496,-2.1005,-2.2031,-2.3748,-2.4874,-2.5241,-2.5279,-2.5497,-2.5914,-2.6969,-2.7719,-2.8211,-2.9692,-3.0412,-3.0384,-3.0045,-3.03,-3.0804,-2.7958,-2.6009,-2.4655,-2.2355,-2.0847,0.0,0.0,0.0,0.0,0.0,0.0,0.0,0.0,0.0,0.0,0.0,0.0,0.0,0.0,0.0,0.0,0.0,0.0,0.0,0.0,0.0,0.0,0.0,0.0,0.0,0.0,0.0,0.0,0.0,0.0,0.0,0.0,0.0,0.0,0.0,0.0,0.0,-2.06,-2.094,0.0,0.0,-2.0703,-2.0433,-2.0433,-2.1554,-2.2189,-2.2028,-2.4658,-2.6275,-2.651,-2.738,-2.8489,-2.985,-2.9827,-3.001,-3.0414,-3.0401,-2.9794,-2.8659,-2.8352,-2.8102,-2.7909,-2.8121,-2.839,-2.8679,-2.8956,-2.8629,-2.7898,-2.7563,-2.7621,-2.7879,-2.7719,-2.7402,-2.7018,0.0,0.0,0.0,0.0,0.0,0.0,0.0,0.0,-2.0383,-2.0746,-2.1809,-2.2943,-2.4058,-2.5374,-2.6479,-2.7215,-2.5907,-2.4065,-2.1792,-2.0147,-1.9885,-2.1322,-2.3981,-2.5415,-2.5423,-2.6257,-2.6642,-2.6547,-2.8007,-2.8726,-2.877,-2.9882,-3.0406,-3.0457,-3.1613,-3.3137,-3.4754,-3.2843,-3.0057,-2.6767,-2.4664,-2.3187,-2.1906,0.0,0.0,0.0,0.0,0.0,0.0,0.0,0.0,0.0,0.0,0.0,0.0,0.0,0.0,0.0,0.0,0.0,0.0,0.0,0.0,0.0,0.0,0.0,0.0,0.0,0.0,0.0,0.0,0.0,0.0,0.0,0.0,0.0,0.0,0.0,-2.1694,-2.2907,-2.2615,-2.231,-2.231,-2.116,-2.0517,-2.0745,-2.19,-2.2972,-2.3887,-2.6294,-2.8048,-2.892,-2.921,-3.0075,-3.1557,-3.1007,-3.1071,-3.1699,-3.1398,-3.0641,-2.9525,-2.9217,-2.8925,-2.8617,-2.8886,-2.9154,-2.9442,-2.9953,-2.9564,-2.8617,-2.8714,-2.8683,-2.8586,-2.8401,-2.8274,-2.8083,0.0,0.0,0.0,0.0,0.0,0.0,0.0,-2.0557,-2.1073,-2.0858,-2.189,-2.3132,-2.4385,-2.5657,-2.6729,-2.7548,-2.6183,-2.4775,-2.36,-2.0343,-1.9632,-2.2295,-2.4412,-2.5454,-2.5277,-2.7662,-2.8927,-2.892,-2.9885,-3.0359,-3.0358,-3.0502,-3.0553,-3.065,-3.4019,-3.64,-3.7938,-3.8032,-3.4969,-2.9912,-2.8483,-2.6889,-2.507,0.0,0.0,0.0,0.0,0.0,0.0,0.0,0.0,0.0,0.0,0.0,0.0,0.0,0.0,0.0,0.0,0.0,0.0,0.0,0.0,0.0,0.0,0.0,0.0,0.0,0.0,0.0,0.0,0.0,0.0,0.0,0.0,0.0,-2.028,-2.1762,-2.3169,-2.436,-2.3257,-2.2395,-2.2378,-2.1718,-2.16,-2.2316,-2.3042,-2.4607,-2.7203,-2.7407,-2.8606,-3.117,-3.0586,-3.1303,-3.3542,-3.308,-3.2724,-3.2575,-3.2779,-3.2032,-3.0436,-2.959,-2.9525,-3.0018,-2.9217,-2.9313,-3.0022,-2.9799,-2.9813,-3.0013,-3.0286,-3.0209,-2.9999,-2.9984,-2.9731,-2.924,0.0,0.0,0.0,0.0,0.0,0.0,0.0,-2.1354,-2.1894,-2.1701,-2.2897,-2.4014,-2.4704,-2.5922,-2.7017,-2.7828,-2.5861,-2.4456,-2.417,-2.1258,-2.1111,-2.4597,-2.2997,-2.2795,-2.448,-2.6357,-2.7324,-2.733,-2.8711,-2.9377,-2.9442,-3.2616,-3.3655,-3.2936,-3.4711,-3.5889,-3.669,-3.8887,-3.8101,-3.5075,-3.1597,-2.9324,-2.7584,0.0,0.0,0.0,0.0,0.0,0.0,0.0,0.0,0.0,0.0,0.0,0.0,0.0,0.0,0.0,0.0,0.0,0.0,0.0,0.0,0.0,0.0,0.0,0.0,0.0,0.0,0.0,0.0,0.0,0.0,0.0,0.0,-2.2096,-2.2053,-2.3154,-2.413,-2.4458,-2.4611,-2.4475,-2.3934,-2.3374,-2.3289,-2.3984,-2.4628,-2.5963,-2.8132,-2.9592,-3.1133,-3.279,-3.3247,-3.3924,-3.495,-3.3799,-3.3486,-3.4017,-3.3054,-3.2363,-3.1904,-3.1675,-3.1553,-3.1485,-3.0671,-3.0444,-3.0614,-2.9957,-2.9729,-2.978,-2.9864,-2.9848,-2.9763,-2.9626,-2.9375,-2.9052,0.0,0.0,0.0,0.0,0.0,0.0,0.0,-2.1521,-2.2018,-2.1555,-2.3271,-2.4522,-2.4496,-2.5832,-2.6792,-2.6891,-2.5584,-2.442,-2.3611,-2.203,-2.1822,-2.3363,-2.2575,-2.3079,-2.5191,-2.5341,-2.5931,-2.7059,-2.7969,-2.8952,-3.0013,-3.4668,-3.649,-3.5844,-3.5837,-3.6673,-3.8131,-3.9452,-3.9566,-3.8626,-3.5552,-3.311,-3.0928,-2.7362,-2.5746,-2.5147,-2.3557,-2.3573,-2.4331,-2.401,0.0,0.0,0.0,0.0,0.0,0.0,0.0,0.0,0.0,0.0,0.0,0.0,0.0,0.0,0.0,0.0,0.0,0.0,0.0,0.0,0.0,0.0,0.0,0.0,-2.3005,-2.3904,-2.4446,-2.5312,-2.5998,-2.6369,-2.6471,-2.6253,-2.5581,-2.496,-2.4746,-2.5206,-2.5518,-2.6615,-2.8763,-2.9889,-3.1391,-3.3448,-3.3659,-3.4263,-3.5317,-3.4041,-3.3633,-3.4106,-3.3066,-3.2505,-3.2346,-3.2689,-3.2694,0.0,-3.1969,-3.1781,-3.1688,-3.0426,-2.998,0.0,0.0,0.0,0.0,0.0,-2.9134,-2.8994,0.0,0.0,0.0,0.0,0.0,0.0,0.0,-2.1408,-2.179,-2.0875,-2.3044,-2.4385,-2.367,-2.511,-2.5885,-2.5313,-2.5077,-2.4244,-2.2572,-2.2794,-2.2356,-2.0932,-2.3012,-2.498,-2.6669,-2.4628,-2.4704,-2.7069,-2.7095,-2.852,-3.1347,-3.6108,-3.8266,-3.8089,-3.7094,-3.8107,-4.0516,-3.9825,-3.9994,-4.064,-3.9501,-3.7318,-3.447,-3.1343,-2.9989,-2.9588,-2.8511,-2.7931,-2.7644,-2.7382,0.0,0.0,0.0,0.0,0.0,0.0,0.0,0.0,0.0,0.0,0.0,0.0,0.0,0.0,0.0,0.0,0.0,0.0,0.0,0.0,0.0,0.0,0.0,0.0,-2.4585,-2.5368,-2.7166,-2.7879,-2.8437,-2.905,-2.8511,-2.7838,-2.7317,-2.6575,-2.6154,-2.622,-2.6058,-2.6949,-2.925,0.0,0.0,0.0,0.0,-3.3233,-3.4931,-3.3795,-3.3293,-3.3476,-3.29,-3.2501,-3.2294,-3.3025,-3.3287,-3.3208,-3.3115,-3.3059,-3.2876,-3.1121,-3.0433,-3.0426,-2.9832,-2.9514,-2.933,-2.9089,-2.8994,0.0,0.0,0.0,0.0,0.0,0.0,0.0,0.0,-2.1766,-2.2197,-2.0747,-2.1732,-2.235,-2.1777,-2.2189,-2.3021,-2.4312,-2.3104,-2.2438,-2.2858,-2.4073,-2.4662,-2.4345,-2.4244,-2.4963,-2.6638,-2.4411,-2.3434,-2.395,-2.3942,-2.653,-3.1507,-3.4706,-3.5653,-3.4799,-3.7549,-3.8683,-3.8579,-4.0259,-4.0756,-4.04,-4.0414,-3.8912,-3.6455,-3.447,-3.3142,-3.2168,-3.0671,-3.0895,-3.1742,-3.0636,-3.0712,-3.0912,-2.9061,-2.7466,0.0,0.0,0.0,0.0,0.0,0.0,0.0,0.0,0.0,0.0,0.0,0.0,0.0,0.0,0.0,0.0,0.0,0.0,0.0,-2.5758,-2.6565,-2.7581,-2.957,-3.0339,-3.0535,-3.0029,-2.9824,-2.9683,-2.9559,-2.8538,-2.7844,-2.7695,-2.7291,-2.7821,-2.9695,-2.9726,0.0,-3.2795,-3.2687,-3.3095,-3.414,-3.2725,-3.2731,-3.4017,0.0,0.0,-3.3308,-3.3474,-3.3921,-3.4586,-3.3923,-3.3451,-3.3063,-3.2053,-3.0912,-2.974,-2.9297,-2.9115,-2.9067,-2.9017,-2.8994,-2.9085,0.0,0.0,0.0,0.0,0.0,0.0,0.0,-2.1132,-2.1818,-2.2291,-2.184,-2.1566,-2.1866,-2.2403,-2.2986,-2.3549,-2.2797,-2.2539,-2.3103,-2.4149,-2.5754,-2.7994,-2.7141,-2.6616,-2.6708,-2.5803,-2.4619,-2.3125,-2.4218,-2.7111,-3.1529,-3.3617,-3.4558,-3.4616,-3.7555,-3.8798,-3.8795,-3.9931,-4.0571,-4.0855,-4.0767,-3.9935,-3.8601,-3.7114,-3.6024,-3.5192,-3.4434,-3.4222,-3.4177,-3.3325,-3.2828,-3.2216,-3.0256,-2.8895,-2.7679,0.0,0.0,0.0,0.0,0.0,0.0,0.0,0.0,0.0,0.0,0.0,0.0,0.0,0.0,-2.088,0.0,0.0,-2.5536,-2.7612,-2.8299,-2.9017,-3.0304,-3.1384,-3.17,-3.0916,-3.0784,-3.0693,-3.0369,-2.9407,-2.8599,-2.8247,-2.7239,-2.7144,-2.8474,-2.8186,-2.8756,-3.0487,-3.0543,-3.1033,-3.202,-3.0683,-3.0851,-3.2521,-3.1117,-3.1216,-3.259,-3.3033,-3.3827,-3.4898,-3.4483,-3.4195,-3.3877,-3.2291,-3.0719,-2.9336,-2.9745,-2.9527,-2.8994,-2.8994,-2.8994,-2.9104,0.0,0.0,0.0,0.0,0.0,0.0,0.0,-1.9955,-2.0771,-2.2952,-2.1671,-2.0907,-2.1863,-2.2551,-2.2884,-2.2715,-2.2799,-2.3151,-2.3857,-2.4215,-2.613,-3.0062,-2.9611,-2.846,-2.6725,-2.6771,-2.5614,-2.3109,-2.5351,-2.8011,-3.1009,-3.2463,-3.3792,-3.5052,-3.7094,-3.8496,-3.934,-3.9599,-4.0344,-4.1358,-4.0994,-4.0588,-4.0132,-3.9139,-3.831,-3.7662,-3.7547,-3.6585,-3.532,-3.5049,-3.3935,-3.2402,-3.0772,-2.9943,-2.9031,-2.644,-2.5073,0.0,0.0,0.0,0.0,0.0,0.0,0.0,0.0,0.0,-1.7183,-1.884,-1.9944,-2.1914,-2.616,-2.6876,-2.7491,-2.9418,-2.9739,-3.0012,-3.0805,-3.1753,-3.2068,-3.131,-3.1478,-3.1423,-3.0944,-3.0129,-2.9292,-2.8511,-2.7169,-2.6577,-2.7075,-2.6176,-2.6276,-2.7557,-2.7607,-2.815,-2.9164,-2.8425,-2.8785,-3.0324,-2.9231,-2.9615,-3.1278,-3.1931,-3.3124,-3.4641,-3.4676,-3.4694,-3.4499,-3.2297,-3.0571,-2.9422,-3.0469,-3.0243,-2.9338,-2.9245,-2.9122,-2.9122,0.0,0.0,0.0,0.0,0.0,0.0,0.0,0.0,-1.8858,-1.9735,-1.9518,-1.9415,-1.964,-1.9388,-1.9873,-2.1523,-2.1895,-2.3179,-2.5888,-2.545,-2.5912,-2.7807,-2.9406,-2.9112,-2.6758,-2.4961,-2.3741,-2.3099,-2.5358,-2.7352,-2.9043,-3.069,-3.2258,-3.3795,-3.5969,-3.7649,-3.8857,-4.0176,-4.0986,-4.1412,-4.1341,-4.0793,-3.997,-4.003,-3.9339,-3.8213,-3.7499,-3.6234,-3.487,-3.4832,-3.4169,-3.3337,-3.3053,-3.1804,-3.0104,-2.8294,-2.6166,-2.4131,-2.2825,-2.0781,-1.9095,-1.9369,-1.9764,-1.9964,0.0,0.0,-1.8865,-2.2266,-2.6582,-2.9921,-3.052,-2.9578,-2.9278,-3.1037,-3.0649,-3.064,-3.2144,-3.1962,-3.1354,-3.0684,-3.1712,-3.2423,-3.2354,-3.1667,-3.0602,-2.9045,-2.8305,-2.7519,-2.6635,-2.4959,-2.436,-2.4973,-2.4992,-2.5201,-2.5631,-2.6432,-2.739,-2.8421,-2.8125,-2.8703,-3.0019,-3.01,-3.1539,-3.4022,-3.4175,-3.4262,-3.414,-3.2435,-3.1219,-3.049,-3.1044,-3.0987,-3.0568,-3.0198,-2.9622,-2.9237,0.0,0.0,0.0,0.0,0.0,0.0,0.0,0.0,0.0,-1.8966,-1.912,-1.9611,-2.0641,-2.0101,-2.0269,-2.1825,-2.2032,-2.2833,-2.46,-2.5966,-2.7198,-2.826,-3.1264,-3.1788,-2.9369,-2.7114,-2.5648,-2.5108,-2.6375,-2.7789,-2.9334,-3.0675,-3.2071,-3.3578,-3.5821,-3.7317,-3.8287,-4.0117,-4.1192,-4.1667,-4.2037,-4.1542,-4.0487,-3.9681,-3.7757,-3.5569,-3.6268,-3.5133,0.0,-3.3144,-3.2538,-3.1764,-3.1595,-3.068,-2.9307,-2.7478,-2.6044,-2.4638,-2.2815,-2.1208,-1.9918,-1.9211,-2.0062,-2.05,-1.8358,-1.8473,-2.124,-2.8994,-3.2285,-3.3736,-3.3743,-3.3267,-3.2883,0.0,-3.2814,-3.2578,-3.2594,-3.169,-3.073,-3.0053,-2.9475,-2.9567,-3.0721,-3.0119,-2.9333,-2.845,-2.7734,-2.6806,-2.5589,-2.4778,-2.3903,-2.2698,-2.3355,-2.3618,-2.3392,-2.4189,-2.533,-2.684,-2.6476,-2.7096,-2.8734,-2.921,-3.0991,-3.3667,-3.3287,-3.3363,-3.359,-3.1602,-3.0612,-3.0358,-3.0785,-3.0582,-3.007,-3.0413,-3.0177,-2.9861,0.0,0.0,0.0,0.0,0.0,0.0,0.0,0.0,0.0,0.0,-1.8747,-1.9277,-2.1061,-2.065,-2.0661,-2.1718,-2.162,-2.2129,-2.3591,-2.5748,-2.7697,-2.9297,-3.199,-3.2826,-3.1582,-2.8953,-2.7318,-2.67,-2.6984,-2.7903,-2.9508,-3.0279,-3.1627,-3.3378,-3.5524,-3.7159,-3.8432,-4.0172,-4.1218,-4.1724,-4.2178,-4.1379,-3.9808,-3.8418,-3.5545,-3.2407,-3.378,-3.2622,-3.0446,-3.0336,-2.9879,-2.937,-2.9397,-2.8991,-2.825,-2.6724,-2.5714,-2.4704,-2.3028,-2.1735,-2.0695,-2.009,-2.1138,-2.1941,-2.0523,-2.1885,-2.5864,-3.4476,-3.5898,-3.5622,-3.5608,-3.5586,-3.5391,-3.471,-3.4333,-3.379,-3.2964,-3.1393,-3.0014,-2.9134,-2.7442,-2.6774,-2.7895,-2.8042,-2.8096,-2.7988,-2.7272,-2.6371,-2.5335,-2.4456,-2.3332,-2.1799,-2.2296,-2.2398,-2.1845,-2.2835,-2.4024,-2.537,-2.5429,-2.6123,-2.7423,-2.8866,-3.0545,-3.2337,-3.2373,-3.2591,-3.2723,-3.1061,-3.0412,-3.0434,-3.0722,-3.0559,-3.0196,-3.0729,-3.0541,-3.0191,0.0,0.0,0.0,0.0,0.0,0.0,0.0,0.0,0.0,0.0,0.0,0.0,0.0,-1.9839,-2.0015,-2.0506,-2.0094,-2.1025,-2.3986,-2.4639,-2.6586,-3.0371,-3.0354,-3.0947,-3.2423,-2.9286,-2.7442,-2.7181,-2.6763,-2.7284,-2.8711,-2.8961,-3.0395,-3.2917,-3.4826,-3.7167,-3.9715,-4.0535,-4.1102,-4.1411,-4.1411,-3.9661,-3.6939,-3.6186,-3.3154,-2.9387,-2.9746,-2.8116,-2.5854,-2.6159,-2.6253,-2.6362,-2.714,-2.7381,-2.729,-2.689,-2.5437,-2.3932,-2.3864,-2.2169,-2.0908,-2.2845,-2.3656,-2.493,-2.8639,-3.1248,-3.3802,-3.7165,-3.6639,-3.5585,-3.5613,-3.5591,-3.5583,-3.5547,-3.4454,-3.3593,-3.3566,-3.1303,-2.9149,-2.7792,-2.648,-2.5163,0.0,-2.6126,-2.7726,-2.8008,-2.7455,-2.6936,-2.6439,-2.3769,-2.2464,-2.2969,-2.1887,-2.1373,-2.1364,-2.3053,-2.4022,-2.4073,-2.5652,-2.6275,-2.604,-2.895,-2.9978,-2.9539,-3.1534,-3.2055,-3.1461,-3.1261,-3.1157,-3.1157,-3.1196,-3.1397,-3.1688,-3.1384,-3.057,-2.9837,0.0,0.0,0.0,0.0,0.0,0.0,0.0,0.0,0.0,0.0,0.0,0.0,0.0,0.0,0.0,0.0,-2.0357,-2.0463,-2.0864,-2.2227,-2.3919,-2.5922,-2.8606,-3.0226,-3.0634,-3.1351,-3.0331,-2.7473,-2.9054,-2.9477,-2.8929,-3.0121,-3.1133,-3.2055,-3.4628,-3.6838,-3.8781,-4.0671,-4.0845,-3.9644,-3.7771,-3.6472,-3.5349,-3.2718,-3.017,-2.7803,0.0,-2.5924,-2.5075,-2.4644,-2.4675,-2.4853,-2.49,-2.4906,-2.499,-2.5464,-2.5133,-2.4961,-2.6424,-2.6883,-2.728,-2.8664,-3.0304,-3.197,-3.3286,-3.4298,-3.45,-3.2734,-3.1293,-3.0036,-2.9016,-2.9554,-3.0556,-3.1881,-3.2175,-3.2414,-3.2866,-3.1797,-3.008,-2.7855,-2.5662,0.0,0.0,0.0,0.0,-2.5531,-2.6043,-2.6019,-2.5384,-2.5515,-2.4962,-2.3533,-2.3549,-2.3201,-2.2484,-2.3113,-2.3782,-2.4527,-2.5858,-2.6684,-2.7139,-2.8699,-2.9638,-2.9993,-3.0803,-3.1244,-3.1308,-3.0286,-3.0101,-3.0429,-2.9922,-2.9813,-2.9945,-2.9814,-2.9542,-2.9351,0.0,0.0,0.0,0.0,0.0,0.0,0.0,0.0,0.0,0.0,0.0,0.0,0.0,0.0,0.0,0.0,0.0,-1.9621,-1.9632,-2.0797,-2.2075,-2.3391,-2.6047,-2.7994,-2.902,-3.1057,-3.1029,-2.8879,-2.9501,-2.9805,-2.983,-3.092,-3.0973,-3.0261,-3.1838,-3.3607,-3.5567,-3.7631,-3.8192,-3.7558,-3.5757,-3.4371,-3.3113,-3.0472,-2.8225,0.0,-2.4897,-2.448,-2.4493,-2.3898,-2.3881,-2.4078,-2.3798,-2.3916,-2.4382,-2.5495,-2.6109,-2.6916,-2.9142,-3.0684,-3.1916,-3.2923,-3.4314,-3.5575,-3.5954,-3.5105,-3.3912,-3.255,-2.9381,-2.6673,-2.6298,-2.5358,-2.5664,-2.878,-2.9367,-3.0073,-3.187,-3.142,-3.0425,-2.9118,-2.5856,-2.2842,0.0,0.0,0.0,-2.4187,-2.5274,-2.5769,-2.5438,-2.6196,-2.6178,-2.5117,-2.5081,-2.484,-2.4289,-2.4111,-2.4498,-2.537,-2.5901,-2.6534,-2.7284,-2.7954,-2.8479,-2.8878,-2.9501,-2.9967,-3.0299,-2.9796,-2.9822,-3.0124,-2.9593,-2.9381,-2.935,-2.9093,-2.8992,-2.9142,0.0,0.0,0.0,0.0,0.0,0.0,0.0,0.0,0.0,0.0,0.0,0.0,0.0,0.0,0.0,0.0,0.0,0.0,-1.9767,-2.0071,-2.0915,-2.2525,-2.2843,-2.4409,-2.7457,-2.819,-2.9315,-3.0882,-2.8014,-2.8094,-3.0906,-3.0871,-2.9726,-2.7626,-2.6916,-2.8063,-3.0592,-3.1629,-3.3238,-3.5129,-3.4955,-3.304,-3.0195,-2.9162,-2.717,-2.4873,-2.3905,-2.3777,-2.4007,-2.3803,-2.3921,-2.4078,-2.3943,-2.4488,-2.5519,-2.7061,-2.8356,-2.9759,-3.1958,-3.3455,-3.4645,-3.5487,-3.5647,-3.5837,-3.6644,-3.4016,-3.2412,-3.5828,-3.0364,-2.5484,0.0,0.0,-2.1416,-2.6409,-2.6388,-2.7008,-3.0703,-3.0404,-3.0201,0.0,0.0,0.0,0.0,0.0,0.0,-2.3979,0.0,-2.5909,-2.6408,-2.59,-2.6205,-2.7346,-2.6313,-2.6026,-2.6591,-2.5934,-2.5915,-2.6451,-2.5905,-2.5912,-2.6508,-2.6791,-2.6706,-2.6337,-2.7754,-2.844,-2.8606,-2.9729,-3.0185,-3.017,-3.0062,-2.9968,-2.9864,-2.9208,-2.8953,-2.9054,0.0,0.0,0.0,0.0,0.0,0.0,0.0,0.0,0.0,0.0,0.0,0.0,0.0,0.0,0.0,0.0,0.0,0.0,-1.2506,-1.5577,-1.7291,-1.7196,-2.083,-2.2741,-2.248,-2.2515,-2.3931,-2.6811,-2.6038,-2.6061,-2.6792,-2.657,-2.6106,-2.5557,-2.5368,-2.6915,-2.9572,-2.7288,-2.8324,-3.125,-2.7906,-2.7068,-2.7631,-2.5937,-2.5096,-2.4811,-2.4561,-2.4588,-2.4686,-2.4275,-2.4874,-2.5855,-2.625,-2.7207,-2.8541,-3.0209,-3.1737,-3.3291,-3.5145,-3.6675,-3.7702,-3.7358,-3.7243,-3.6711,-3.4836,-3.2511,-3.0372,-2.897,-2.5535,-2.2425,0.0,0.0,0.0,-2.4394,-2.6137,0.0,-2.9771,-3.1502,0.0,-2.8904,0.0,-2.9233,-2.8575,-2.5896,0.0,0.0,-2.2468,-2.3411,-2.5165,-2.5865,-2.6788,-2.7857,-2.794,-2.7936,-2.8062,-2.6901,-2.6112,-2.582,-2.6115,-2.637,-2.6521,-2.7207,-2.7247,-2.6872,-2.7869,-2.839,-2.848,-2.8292,-2.8388,-2.8679,-2.8694,-2.8226,-2.7657,-2.8313,-2.8378,-2.8244,0.0,0.0,0.0,0.0,0.0,0.0,0.0,0.0,0.0,0.0,0.0,0.0,0.0,0.0,0.0,0.0,0.0,0.0,0.0,-1.2261,-1.459,-1.5436,-1.9183,-2.0876,-2.0041,-2.0215,-2.1213,-2.3116,-2.4584,-2.5299,-2.5301,-2.517,-2.5034,-2.4928,-2.4782,-2.5708,-2.728,-2.5175,-2.5628,0.0,0.0,-2.4816,-2.5853,-2.4787,-2.4579,-2.4837,-2.4831,-2.4968,-2.5099,-2.4832,-2.6131,-2.8182,-2.9853,-3.102,-3.2234,-3.444,-3.5806,-3.6939,-3.8429,-3.9705,-4.0389,-3.9112,-3.8286,-3.7221,-3.4918,-3.2609,-3.0754,-3.0192,-2.5015,-2.0061,-1.8284,-1.8794,0.0,0.0,0.0,0.0,-2.89,-3.2282,-3.3161,0.0,-3.0604,0.0,-3.1485,-2.9501,-2.7596,0.0,-2.409,-2.3505,-2.4734,-2.5861,-2.6963,-2.8092,-2.8778,-2.8977,-2.8554,-2.7783,-2.688,-2.6019,-2.6313,-2.6327,-2.6143,-2.6345,-2.6356,-2.6175,0.0,-2.7223,-2.7605,-2.755,-2.7936,-2.8607,-2.7958,-2.7714,-2.7742,-2.7887,-2.7914,-2.7954,0.0,0.0,0.0,0.0,0.0,0.0,0.0,0.0,0.0,0.0,0.0,0.0,0.0,0.0,0.0,0.0,0.0,0.0,0.0,0.0,-1.2243,-1.4899,-1.7468,-1.8906,-1.9104,-1.9806,-2.0158,-2.0168,-2.3599,-2.5298,-2.5309,-2.5437,-2.5354,-2.5106,-2.4828,-2.4784,-2.4879,-2.4601,-2.4572,-2.4707,-2.472,-2.4776,-2.4862,0.0,-2.4961,-2.4977,-2.4967,-2.5176,-2.5581,-2.6261,-2.8129,-3.0693,-3.3515,-3.489,-3.5993,-3.8606,-3.9856,-4.061,-4.153,-4.2236,-4.2313,-4.0531,-3.8958,-3.7436,-3.562,-3.3035,-3.1448,-3.2967,-2.5379,-1.7968,-1.6516,-1.6985,-1.8425,-2.1029,0.0,-2.2227,-2.856,-3.2613,-3.4151,-3.204,-3.1752,-3.1708,-3.1511,-3.1498,-3.1486,-3.1499,-2.7922,-2.5686,-2.5669,-2.6631,-2.7528,-2.8314,-2.9429,-2.9452,-2.8368,-2.8447,-2.7816,-2.6533,-2.6533,-2.6151,-2.5573,-2.5134,-2.5,-2.5123,0.0,0.0,-2.6558,-2.7122,-2.8074,-2.9002,-2.7662,-2.7757,-2.8589,-2.7749,-2.7647,-2.7954,0.0,0.0,0.0,0.0,0.0,0.0,0.0,0.0,0.0,0.0,-1.4915,-1.5334,0.0,0.0,0.0,0.0,0.0,0.0,0.0,0.0,0.0,-1.086,-1.4465,-1.6942,-1.8027,-1.9003,-1.9483,-1.9462,-2.3392,-2.5297,-2.529,-2.5373,-2.5369,-2.5266,-2.5255,-2.5152,-2.4972,-2.4915,-2.4853,-2.4782,-2.4777,-2.4933,-2.5133,-2.5069,0.0,0.0,-2.5262,-2.5725,-2.7023,-3.1239,-3.2528,-3.2643,-3.4277,-3.6306,-3.8423,-4.0202,-4.2364,-4.4101,-4.3869,-4.3088,-4.1908,-4.0384,-3.9247,-3.7666,-3.4563,-3.0977,-2.705,-2.2762,-1.8627,-1.5591,-1.5118,-1.6329,-1.8015,-1.9858,-2.1135,-2.4047,-3.0201,-3.1728,-3.2455,0.0,-3.3152,-3.272,-3.1629,0.0,0.0,0.0,0.0,0.0,-3.0318,-3.0517,-3.0319,-2.9539,-3.0411,-2.9923,-2.7881,-2.8262,-2.7816,-2.6533,-2.6533,-2.6151,-2.5598,-2.5498,-2.5346,-2.515,0.0,0.0,-2.6505,-2.6693,-2.7088,-2.7562,-2.7345,-2.7186,-2.7199,-2.7923,-2.8089,-2.7954,0.0,0.0,0.0,0.0,0.0,0.0,0.0,-1.4687,-1.4412,-1.4,-1.4407,-1.4855,-1.5216,-1.5179,0.0,0.0,0.0,0.0,0.0,0.0,0.0,0.0,-1.2402,-1.5185,-1.6735,-1.7916,-1.9795,-2.242,0.0,-2.5156,-2.5403,-2.5395,-2.5406,-2.5412,-2.5434,-2.5377,-2.5251,-2.5224,-2.5214,-2.5215,-2.5187,-2.5258,-2.5394,-2.5363,0.0,0.0,-2.5308,-2.5568,-2.6299,-2.8734,-3.2058,-3.5671,-3.8359,-4.0281,-4.1774,-4.2868,-4.4472,-4.602,-4.6324,-4.4875,-4.276,-4.0576,-3.9699,-3.7419,-3.0053,-2.4978,-2.069,-1.6638,-1.5496,-1.4908,-1.3936,-1.482,-1.6221,-1.7835,-1.9765,-2.2725,-2.7539,-2.902,-3.0164,-3.1721,-3.2523,-3.2586,0.0,0.0,0.0,0.0,0.0,0.0,-3.1513,-3.1086,-3.0542,-3.0013,-3.0528,-2.9811,-2.7853,-2.8484,-2.7828,-2.6013,-2.6013,-2.5724,-2.5184,-2.4895,-2.4898,-2.5137,-2.5564,0.0,-2.652,-2.6544,-2.7099,-2.7774,-2.7031,-2.6997,-2.7434,-2.7488,-2.7552,-2.7648,0.0,0.0,0.0,0.0,0.0,0.0,0.0,-1.4264,-1.3989,-1.344,-1.3718,-1.421,-1.4927,-1.4865,-1.4277,0.0,0.0,0.0,0.0,0.0,0.0,0.0,0.0,0.0,-1.5201,0.0,0.0,-2.5295,-2.5053,0.0,0.0,0.0,0.0,0.0,-2.5395,-2.5416,-2.5389,-2.5344,-2.5408,0.0,0.0,-2.5545,0.0,0.0,0.0,0.0,0.0,-2.5535,-2.5951,-2.6543,-3.0563,-3.6058,-4.0524,-4.2902,-4.4129,-4.4623,-4.5605,-4.6654,-4.7186,-4.5984,-4.3943,-4.1255,-4.0331,-3.7055,-2.5419,-1.9513,-1.5881,-1.3817,-1.4239,-1.4586,-1.3168,-1.361,-1.4708,-1.6216,-1.8062,-2.0664,-2.4554,-2.6299,-2.8016,0.0,-3.1689,0.0,0.0,0.0,0.0,0.0,0.0,0.0,0.0,-3.0735,-3.0321,-3.047,-3.0347,-2.9651,-2.8288,-2.8498,-2.7615,-2.5661,-2.5489,-2.5159,-2.4632,-2.4318,-2.4451,-2.4952,-2.5404,0.0,0.0,-2.6544,-2.7185,-2.7953,-2.6683,-2.6791,-2.758,-2.6942,-2.6954,-2.7348,0.0,0.0,0.0,0.0,0.0,0.0,0.0,-1.2722,-1.2588,-1.1746,-1.2685,-1.3613,-1.3992,-1.4208,-1.4244,0.0,0.0,0.0,0.0,0.0,0.0,0.0,0.0,0.0,0.0,0.0,0.0,-2.5301,-2.5393,0.0,0.0,0.0,0.0,0.0,0.0,-2.5101,-2.5053,-2.505,0.0,0.0,0.0,0.0,0.0,0.0,0.0,0.0,0.0,-2.6313,-2.8046,-3.0614,-3.0274,-2.9813,-3.592,-4.0483,-4.3565,-4.3634,-4.4736,-4.5736,-4.4614,-4.4872,-4.4946,-4.2675,-4.1104,-3.6592,-2.314,-1.8195,-1.6183,-1.5104,-1.4541,-1.3957,-1.3064,-1.3836,-1.5023,-1.6117,-1.705,-1.93,-2.4062,-2.4994,-2.648,-3.0082,0.0,0.0,0.0,0.0,0.0,0.0,0.0,0.0,0.0,-3.0866,-3.0776,-3.1347,-3.0283,-2.9522,-2.9201,-2.7966,-2.6837,-2.5861,-2.5179,-2.4607,-2.4092,-2.4544,-2.4604,-2.4456,0.0,0.0,0.0,-2.6544,-2.6576,-2.6574,-2.6303,-2.6193,-2.6231,-2.6555,-2.6954,-2.7348,0.0,0.0,0.0,0.0,0.0,0.0,-1.2124,-1.2392,-1.2327,-1.1133,-1.2572,-1.3671,-1.3608,-1.3922,-1.4164,0.0,0.0,0.0,0.0,0.0,0.0,0.0,0.0,0.0,0.0,0.0,-2.041,-2.2297,-2.3608,0.0,0.0,0.0,0.0,0.0,0.0,0.0,-2.501,-2.5141,0.0,0.0,0.0,0.0,0.0,0.0,0.0,0.0,0.0,0.0,-2.6554,-2.7631,-2.7445,-2.7092,-2.9041,-3.156,-3.4518,-3.812,-4.1668,-4.4564,-4.5004,-4.4887,-4.4831,-4.568,-4.0277,-3.211,-2.2009,-1.8637,-1.7316,-1.6126,-1.5392,-1.4801,-1.4097,-1.4387,-1.4959,-1.5777,-1.6142,-1.7546,-2.0961,-2.2471,-2.4454,-2.7856,-2.9744,0.0,0.0,0.0,0.0,0.0,0.0,0.0,0.0,-3.0657,-3.0462,-3.0357,-2.9849,-2.9094,-2.811,-2.7491,-2.6598,-2.5419,-2.5014,-2.4356,-2.3502,-2.4067,-2.4529,-2.4964,0.0,0.0,0.0,-2.6758,-2.6567,-2.6488,-2.592,-2.5894,-2.614,-2.6234,-2.6573,-2.7004,0.0,0.0,0.0,0.0,0.0,-1.0555,-1.1558,-1.1673,-1.1388,-1.0699,-1.2386,-1.3608,-1.3417,-1.3376,-1.3498,-1.3805,0.0,0.0,0.0,0.0,0.0,0.0,0.0,0.0,0.0,0.0,-2.0331,-2.0564,-2.184,-2.3025,0.0,0.0,0.0,0.0,0.0,0.0,0.0,0.0,0.0,0.0,0.0,0.0,0.0,0.0,0.0,0.0,0.0,0.0,0.0,0.0,0.0,-2.5571,-2.5205,-2.5708,-2.7541,-3.3004,-3.7812,-4.1669,-4.2959,-4.4268,-4.5315,-4.5407,-3.7595,-2.832,-2.2437,-1.9906,-1.8405,-1.6957,-1.6077,-1.541,-1.4789,-1.4835,-1.5096,-1.5543,-1.5764,-1.6734,-1.9178,-2.101,-2.3178,0.0,0.0,0.0,0.0,0.0,0.0,0.0,0.0,0.0,0.0,-3.0196,-2.9985,-2.9594,-2.919,-2.8551,-2.7704,-2.723,-2.6403,-2.5194,-2.5079,-2.4433,-2.3437,-2.4083,-2.4833,-2.5728,0.0,0.0,0.0,-2.6363,-2.6019,-2.5946,-2.5354,-2.5425,-2.5926,-2.5975,-2.6297,-2.6758,0.0,0.0,0.0,0.0,0.0,0.0,-1.0749,-1.0121,-0.9298,-1.0271,-1.1969,-1.3184,-1.3377,-1.2527,-1.208,-1.2492,0.0,0.0,0.0,0.0,0.0,0.0,0.0,0.0,0.0,0.0,-1.9931,-2.1191,-2.0599,-2.1798,-2.4591,-2.5209,-2.502,0.0,0.0,0.0,0.0,0.0,0.0,0.0,0.0,0.0,0.0,0.0,0.0,0.0,0.0,0.0,0.0,0.0,0.0,0.0,0.0,-2.5276,-2.5071,-2.9389,-3.3372,-3.649,-3.7037,-4.2588,-4.6717,-4.0372,-3.2719,-2.6336,-2.4723,-2.2009,-1.9366,-1.7558,-1.6366,-1.541,-1.4789,-1.5186,-1.5588,-1.5588,-1.6095,-1.7352,-1.9767,-2.1272,-2.296,0.0,0.0,0.0,0.0,0.0,0.0,0.0,0.0,0.0,0.0,0.0,-2.949,-2.9594,-2.8293,-2.7919,-2.8592,-2.7229,-2.6136,-2.5412,-2.5412,-2.5021,-2.4305,-2.4827,-2.5578,0.0,0.0,0.0,0.0,-2.5196,-2.4612,-2.4627,-2.4476,-2.4752,-2.5259,-2.5799,-2.6297,-2.6758,0.0,0.0,0.0,0.0,0.0,0.0,0.0,-0.6436,-0.7929,-0.734,-0.9475,-1.079,-1.0111,-0.9609,-0.9641,-1.0513,0.0,0.0,0.0,0.0,0.0,0.0,0.0,0.0,0.0,0.0,-1.886,-1.9901,-1.9665,-2.0726,-2.2978,-2.4091,-2.4457,-2.423,-2.4858,0.0,0.0,0.0,0.0,0.0,0.0,0.0,0.0,0.0,0.0,0.0,0.0,0.0,0.0,0.0,0.0,0.0,0.0,0.0,0.0,-2.5866,-3.0216,-3.4649,-3.4805,-3.9824,-4.221,-3.0439,-2.7579,-2.6622,-2.2685,-2.093,-1.9662,-1.8118,-1.7231,-1.6587,-1.6008,-1.6107,-1.6361,-1.6757,-1.701,-1.7503,-1.8648,0.0,0.0,0.0,0.0,0.0,0.0,0.0,0.0,0.0,0.0,0.0,0.0,0.0,-2.7357,-2.7399,-2.7469,-2.7418,-2.7147,-2.6717,-2.6404,-2.6122,-2.598,-2.5629,-2.5077,-2.5127,0.0,0.0,0.0,0.0,0.0,-2.5363,-2.5173,-2.5124,-2.4979,-2.5259,-2.5713,-2.5313,-2.5812,-2.6657,0.0,0.0,0.0,0.0,0.0,0.0,0.0,-0.294,-0.487,-0.4896,-0.6396,-0.7314,-0.6892,-0.6365,-0.6601,-0.7912,0.0,0.0,0.0,0.0,0.0,0.0,0.0,0.0,0.0,-1.8591,-1.8677,-1.9266,-1.8861,-1.9416,-2.0891,-2.3135,-2.4204,-2.4231,-2.4974,-2.5206,0.0,0.0,0.0,0.0,0.0,0.0,-2.5664,0.0,0.0,0.0,0.0,0.0,0.0,0.0,0.0,0.0,0.0,0.0,0.0,0.0,-2.735,-3.0187,-3.0186,-3.3131,-3.3913,-2.4213,-2.363,-2.4743,-2.2167,-2.097,-2.002,-1.8679,-1.7827,-1.7188,-1.6879,-1.6637,-1.6635,-1.6999,-1.7049,-1.7402,-1.838,0.0,0.0,0.0,0.0,0.0,0.0,0.0,0.0,0.0,0.0,0.0,0.0,0.0,-2.5493,-2.5146,-2.6176,-2.6629,-2.651,-2.651,-2.651,-2.651,-2.6669,-2.6295,-2.5432,-2.5079,0.0,0.0,0.0,0.0,0.0,-2.4991,-2.5014,-2.5051,-2.5147,-2.554,-2.5914,-2.5086,-2.5429,-2.6217,0.0,0.0,0.0,0.0,0.0,0.0,0.0,0.0,-0.0382,-0.2389,-0.265,-0.2862,-0.3471,-0.2815,-0.3019,-0.486,0.0,0.0,0.0,0.0,0.0,0.0,0.0,0.0,-1.7324,-1.8458,-1.907,-1.9092,-1.8287,-1.8163,-1.8728,-2.2507,-2.425,-2.4231,-2.4973,-2.5303,0.0,0.0,0.0,0.0,0.0,0.0,0.0,0.0,0.0,0.0,0.0,0.0,0.0,0.0,0.0,0.0,0.0,0.0,0.0,0.0,0.0,0.0,0.0,-2.413,-2.3585,-2.1573,-2.1064,-2.1344,-2.2718,-2.1835,0.0,-1.9107,-1.8066,-1.7366,-1.7323,-1.6863,-1.6547,-1.6622,-1.6635,-1.7219,0.0,0.0,0.0,0.0,0.0,0.0,0.0,0.0,0.0,0.0,0.0,0.0,0.0,0.0,0.0,-2.3012,-2.4376,-2.5507,-2.6265,-2.6289,-2.6313,-2.6381,-2.7056,-2.6731,-2.5394,-2.4769,0.0,0.0,0.0,0.0,0.0,-2.4134,-2.4358,-2.4433,-2.4948,-2.5464,-2.5801,-2.5007,-2.5063,-2.5486,0.0,0.0,0.0,0.0,0.0,0.0,0.0,0.0,0.0,0.0,0.3069,0.1973,0.1885,0.1692,0.0575,0.0,0.0,0.0,0.0,0.0,0.0,0.0,0.0,0.0,-1.7288,-1.759,-1.7868,-1.8135,-1.8673,-1.9004,-1.9218,-2.3192,-2.4752,-2.4227,-2.4971,-2.5303,0.0,0.0,0.0,0.0,0.0,0.0,0.0,0.0,0.0,0.0,-2.547,-2.5321,0.0,0.0,0.0,0.0,0.0,0.0,0.0,0.0,-2.6041,-2.6285,-2.4655,0.0,-2.2631,-2.2124,-2.1502,-2.1078,0.0,-2.1213,-2.0435,-1.865,-1.8106,-1.7814,-1.7427,-1.6898,-1.681,-1.7664,-1.7802,-1.8088,0.0,0.0,0.0,0.0,0.0,0.0,0.0,0.0,0.0,0.0,0.0,0.0,0.0,0.0,0.0,-2.1895,-2.2252,-2.2991,-2.4135,-2.4263,-2.4609,-2.5141,-2.529,-2.5203,-2.4896,-2.4195,0.0,0.0,0.0,0.0,-2.3002,-2.3493,-2.3887,-2.4211,-2.4697,-2.4877,-2.4772,-2.4,-2.4163,-2.4774,0.0,0.0,0.0,0.0,0.0,0.0,0.0,0.0,0.0,0.0,0.0,0.0,0.0,0.0,0.0,0.0,0.0,0.0,0.0,0.0,0.0,0.0,0.0,-1.7986,-1.8659,-1.7132,-1.7046,-1.8503,-1.857,-1.9856,-2.2275,-2.4468,-2.5203,-2.4721,-2.5128,-2.5303,0.0,0.0,0.0,0.0,-2.5582,0.0,0.0,0.0,0.0,0.0,-2.531,-2.5133,0.0,-2.5238,-2.5314,-2.5356,0.0,0.0,0.0,0.0,-2.5779,-2.5979,-2.6017,-2.4689,-2.3319,-2.3312,-2.2378,-2.1419,-2.1258,-2.0816,-2.0124,-1.9066,-1.8458,-1.8003,-1.7776,-1.7042,-1.681,-1.7689,-1.8078,0.0,0.0,0.0,0.0,0.0,0.0,0.0,0.0,0.0,0.0,0.0,0.0,0.0,0.0,0.0,0.0,0.0,-2.0978,-2.146,-2.3027,-2.3151,-2.3547,-2.422,-2.4531,-2.4373,-2.378,-2.339,0.0,0.0,0.0,0.0,-2.2285,-2.3142,-2.3963,-2.4628,-2.4762,-2.4863,-2.4864,-2.3799,-2.3748,-2.4224,0.0,0.0,0.0,0.0,0.0,0.0,0.0,0.0,0.0,0.0,0.0,0.0,0.0,0.0,0.0,0.0,0.0,0.0,0.0,0.0,0.0,0.0,-1.8586,-1.9313,-1.9469,-1.7188,-1.6866,-1.8663,-1.8242,-2.0646,-2.5642,-2.5691,-2.559,-2.5369,-2.5369,-2.5341,0.0,0.0,0.0,0.0,-2.5582,0.0,0.0,0.0,0.0,0.0,0.0,0.0,0.0,-2.5279,-2.5058,-2.4891,-2.6314,0.0,0.0,0.0,0.0,0.0,-2.7432,-2.647,-2.4706,-2.4456,-2.3342,-2.2194,-2.1557,-2.0661,-1.9867,-1.9508,-1.8727,-1.8094,-1.811,-1.7361,-1.6997,-1.7658,0.0,0.0,0.0,0.0,0.0,0.0,0.0,0.0,0.0,0.0,0.0,0.0,0.0,0.0,0.0,0.0,0.0,0.0,-2.0225,-2.0475,-2.2141,-2.2141,-2.2563,-2.3271,-2.3837,-2.3505,-2.2413,-2.2413,0.0,0.0,0.0,0.0,-2.1791,-2.2761,-2.3866,-2.4836,-2.4547,-2.473,-2.4995,-2.371,-2.3437,-2.3675,0.0,0.0,0.0,0.0,0.0,0.0,0.0,0.0,0.0,0.0,0.0,0.0,0.0,0.0,0.0,0.0,0.0,0.0,0.0,0.0,0.0,-1.5332,-1.7723,-1.8005,-1.5777,-1.8221,-1.8307,-1.5838,-1.8014,-2.1229,-2.5367,-2.5589,-2.5691,-2.5638,-2.5638,-2.551,-2.5303,-2.5538,-2.5587,-2.5505,-2.562,0.0,0.0,0.0,0.0,0.0,0.0,0.0,0.0,-2.4266,-2.4652,-2.5107,-2.4127,0.0,0.0,0.0,0.0,0.0,-2.7088,-2.6784,-2.5604,-2.4241,-2.3877,-2.3375,-2.1503,-2.1064,-2.0531,-1.8711,-1.8224,-1.8111,-1.8185,-1.8107,-1.8352,0.0,0.0,0.0,0.0,0.0,0.0,0.0,0.0,0.0,0.0,0.0,0.0,0.0,0.0,0.0,0.0,0.0,0.0,0.0,0.0,-1.9485,-2.0193,-2.0205,-2.0553,-2.1259,-2.1358,-2.1305,-2.1076,-2.1076,-2.0675,0.0,0.0,-2.062,-2.1702,-2.1723,-2.2374,-2.3303,-2.3046,-2.3016,-2.3081,-2.2643,-2.2634,-2.2981,0.0,0.0,0.0,0.0,0.0,0.0,0.0,0.0,0.0,0.0,0.0,0.0,0.0,0.0,0.0,0.0,0.0,0.0,0.0,0.0,-1.4644,-1.6288,-1.6491,-1.696,-1.7795,-2.1224,-2.1338,-1.7962,-1.9212,-2.1713,-2.5303,-2.5579,-2.5703,-2.5703,-2.5699,-2.5621,-2.5512,-2.5646,-2.5666,-2.5609,0.0,0.0,0.0,0.0,0.0,0.0,0.0,0.0,0.0,0.0,-2.4189,-2.4275,-2.3664,0.0,0.0,0.0,0.0,0.0,-2.5296,-2.5414,-2.5022,-2.3871,-2.3823,-2.3687,-2.2231,-2.1321,-2.0461,-1.9485,-1.8887,-1.8542,-1.8559,0.0,-1.9443,-2.1631,0.0,0.0,0.0,0.0,0.0,0.0,0.0,0.0,0.0,0.0,0.0,0.0,0.0,0.0,0.0,0.0,0.0,0.0,0.0,-1.8694,-1.8932,-1.8945,-1.937,-2.0245,-2.066,-2.0597,-2.0258,-2.0646,-2.0291,-1.9384,0.0,-1.9713,-2.0292,-2.0531,-2.1392,-2.2618,-2.2524,-2.2828,-2.3301,-2.2929,-2.2755,-2.2894,0.0,0.0,0.0,0.0,0.0,0.0,0.0,0.0,0.0,0.0,0.0,0.0,0.0,0.0,0.0,0.0,0.0,0.0,0.0,0.0,-1.4651,-1.6731,-1.532,-1.6181,-1.9781,-2.3491,-2.4107,-2.1473,-2.1471,-2.2815,-2.5393,-2.5535,-2.5615,-2.5616,-2.5605,-2.5615,-2.5608,-2.5429,-2.5352,-2.5343,0.0,0.0,0.0,0.0,0.0,0.0,0.0,0.0,0.0,0.0,0.0,0.0,0.0,0.0,0.0,-2.3117,-2.3172,-2.3312,-2.368,-2.4018,-2.4103,-2.3528,-2.3627,-2.3704,-2.311,-2.2067,-2.1249,-2.1319,-2.0622,-1.9876,-1.9631,-1.9634,0.0,0.0,0.0,0.0,0.0,0.0,0.0,0.0,0.0,0.0,0.0,0.0,0.0,0.0,0.0,0.0,0.0,0.0,0.0,0.0,-1.8472,-1.8206,-1.8204,-1.8204,-1.8618,-1.9422,-1.9971,-1.9986,-1.9623,-2.0165,-1.9896,-1.8983,-1.8983,-1.9054,-1.915,-1.9649,-2.0691,-2.2035,-2.215,-2.2765,-2.3488,-2.3175,-2.3045,-2.3172,0.0,0.0,0.0,0.0,0.0,0.0,0.0,0.0,0.0,0.0,0.0,0.0,0.0,0.0,0.0,0.0,0.0,0.0,0.0,0.0,-1.4845,-1.455,-1.4517,-1.5773,-1.8479,-2.3212,-2.5434,-2.4943,-2.4937,-2.5188,-2.5664,-2.5449,-2.5324,-2.5335,-2.5329,-2.5323,-2.5281,-2.4604,-2.4306,-2.4336,-2.4704,0.0,0.0,0.0,0.0,0.0,0.0,0.0,0.0,0.0,0.0,0.0,0.0,0.0,-2.3544,-2.2923,-2.273,-2.285,-2.3317,-2.3456,-2.346,-2.341,-2.3546,-2.372,-2.3786,-2.3891,-2.3989,-2.4327,-2.3732,-2.2847,-2.1781,-2.1539,0.0,0.0,0.0,0.0,0.0,0.0,0.0,0.0,0.0,0.0,0.0,0.0,0.0,0.0,0.0,0.0,0.0,0.0,0.0,0.0,0.0,-1.8196,-1.8204,-1.8204,-1.8242,-1.8329,-1.8364,-1.8629,-1.9083,-1.9132,-1.9058,-1.8983,-1.8983,-1.9054,-1.9123,-1.9488,-2.0277,-2.1299,-2.1567,-2.1965,-2.2445,-2.2669,-2.3206,-2.3801,0.0,0.0,0.0,0.0,0.0,0.0,0.0,0.0,0.0,0.0,0.0,0.0,0.0,0.0,0.0,0.0,0.0,0.0,0.0,-1.2378,-1.5076,-1.4863,-1.4901,-1.6441,-1.97,-2.159,-2.2413,-2.2197,-2.4274,-2.5347,-2.5435,-2.4866,-2.3525,-2.1569,-2.1569,-2.2262,-2.3465,-2.3969,-2.4185,-2.4233,-2.4557,-2.4743,0.0,0.0,0.0,0.0,0.0,0.0,0.0,0.0,-2.4057,-2.4113,-2.3671,-2.3588,-2.3566,-2.2898,-2.2695,-2.2686,-2.27,-2.2733,-2.2733,-2.2733,-2.2757,-2.3087,-2.4039,-2.4133,-2.4041,-2.4181,-2.4466,-2.4306,-2.3126,0.0,0.0,0.0,0.0,0.0,0.0,0.0,0.0,0.0,0.0,0.0,0.0,0.0,0.0,0.0,0.0,0.0,0.0,0.0,0.0,0.0,0.0,-1.7633,-1.764,-1.7327,-1.7162,-1.7162,-1.7865,-1.8317,-1.8518,-1.8518,-1.8329,-1.8003,-1.8003,-1.8016,-1.8031,-1.8466,-1.9281,-2.0314,-2.146,-2.2158,-2.2615,-2.3231,-2.3502,-2.3687,0.0,0.0,0.0,0.0,0.0,0.0,0.0,0.0,0.0,0.0,0.0,0.0,0.0,0.0,0.0,0.0,0.0,0.0,-0.2971,-1.015,-1.4292,-1.461,-1.4839,-1.6146,-1.8621,-1.9658,-2.0264,-2.0395,-2.2424,-2.3252,-2.2936,-2.3386,-2.1902,-1.8854,-1.9494,-2.053,-2.1898,-2.3225,-2.3782,-2.3823,-2.4131,-2.4302,0.0,0.0,0.0,0.0,0.0,0.0,0.0,0.0,-2.419,-2.417,-2.3917,-2.3795,-2.3588,-2.3021,-2.2797,-2.2634,-2.236,-2.231,-2.231,-2.231,-2.2496,-2.3038,-2.4509,-2.4809,-2.4913,-2.5396,-2.5563,-2.5276,-2.4249,0.0,0.0,0.0,0.0,0.0,0.0,0.0,0.0,0.0,0.0,0.0,0.0,0.0,0.0,0.0,0.0,0.0,0.0,0.0,0.0,0.0,0.0,0.0,-1.7312,-1.6951,-1.6582,-1.625,-1.7016,-1.7567,-1.794,-1.794,-1.7739,-1.742,-1.7587,-1.7506,-1.7353,-1.8066,-1.9022,-2.0165,-2.1439,-2.2214,-2.2659,-2.3182,-2.3557,-2.3883,0.0,0.0,0.0,0.0,0.0,0.0,0.0,0.0,0.0,0.0,0.0,0.0,0.0,0.0,0.0,0.0,0.0,0.0,1.9873,0.0174,-1.2259,-1.3355,-1.4077,-1.4484,-1.4495,-1.7636,-1.9704,-2.0596,-1.9721,-1.8773,-1.7858,-2.0877,-2.0688,-1.7918,-1.9899,-2.0793,-2.0885,-2.2291,-2.2899,-2.2935,-2.3343,-2.3658,-2.3914,0.0,0.0,0.0,0.0,0.0,0.0,0.0,-2.419,-2.419,-2.419,-2.3976,-2.3649,-2.33,-2.2972,-2.2634,-2.236,-2.231,-2.231,-2.231,-2.2868,-2.3782,-2.5253,-2.615,-2.7114,-2.8689,-2.742,-2.5853,-2.5142,-2.3953,0.0,0.0,0.0,0.0,0.0,0.0,0.0,0.0,0.0,0.0,0.0,0.0,0.0,0.0,0.0,0.0,0.0,0.0,0.0,0.0,0.0,0.0,-1.7353,-1.7312,-1.6744,-1.5632,-1.5588,-1.6244,-1.7375,-1.7375,-1.7375,-1.742,-1.7961,-1.7866,-1.7394,-1.8458,-1.9728,-2.1023,-2.143,-2.1899,-2.231,-2.231,-2.3241,-2.4506,0.0,0.0,0.0,0.0,0.0,0.0,0.0,0.0,0.0,0.0,0.0,0.0,0.0,0.0,0.0,0.0,0.0,0.0,0.2589,-0.5672,-1.1294,-1.3182,-1.2842,-1.2951,-1.3701,-1.6695,-1.8717,-1.9696,-1.8715,-1.8091,-1.7844,-1.9621,-2.0309,-2.005,-1.9983,-2.0236,-2.0706,-2.1512,-2.2054,-2.2418,-2.3186,-2.3533,-2.3656,0.0,0.0,0.0,0.0,0.0,0.0,0.0,0.0,0.0,-2.419,-2.4113,-2.3937,-2.3369,-2.3117,-2.294,-2.2443,-2.231,-2.231,-2.231,-2.3241,-2.4137,-2.4069,-2.5017,-2.6353,-2.7858,-2.6455,-2.5129,-2.5657,0.0,0.0,0.0,0.0,0.0,0.0,0.0,0.0,0.0,0.0,0.0,0.0,0.0,0.0,0.0,0.0,0.0,0.0,0.0,0.0,0.0,0.0,0.0,-1.8419,-1.7666,-1.6925,-1.6176,-1.5796,-1.5804,-1.6106,-1.6106,-1.6397,-1.6773,-1.6934,-1.7316,-1.7947,-1.9006,-2.0054,-2.0991,-2.1118,-2.1645,-2.2361,-2.2885,-2.3342,-2.3799,0.0,0.0,0.0,0.0,0.0,0.0,0.0,0.0,0.0,0.0,1.6366,1.5168,0.0,0.0,0.0,0.0,0.0,0.0,0.0,-0.853,-1.0624,-1.1926,-1.2233,-1.2967,-1.4327,-1.6634,-1.8082,-1.8698,-1.8097,-1.78,-1.7817,-1.8867,-1.9672,-2.0238,-2.0179,-2.0202,-2.0375,-2.1078,-2.1568,-2.1905,-2.2688,-2.3005,-2.3051,0.0,0.0,0.0,0.0,0.0,0.0,0.0,0.0,0.0,-2.419,-2.419,-2.4094,-2.3566,-2.3392,-2.3277,-2.2798,-2.2677,-2.2729,-2.3039,-2.4005,-2.4867,-2.4758,-2.5419,-2.637,-2.7571,-2.6268,-2.5139,-2.5798,0.0,0.0,0.0,0.0,0.0,0.0,0.0,0.0,0.0,0.0,0.0,0.0,0.0,0.0,0.0,0.0,0.0,0.0,0.0,0.0,0.0,0.0,0.0,-1.8893,-1.8066,-1.7203,-1.6391,-1.5608,-1.5231,-1.5231,-1.5499,-1.582,-1.6194,-1.6612,-1.7312,-1.8185,-1.9043,-1.9793,-2.0467,-2.0649,-2.1244,-2.2082,-2.2517,-2.3005,-2.346,0.0,0.0,0.0,0.0,0.0,0.0,0.0,0.0,0.0,0.0,1.5502,1.4234,0.0,0.0,0.0,0.0,0.0,0.0,0.0,0.0,-1.0164,-1.0111,-1.2088,-1.397,-1.5645,-1.6943,-1.7615,-1.7616,-1.7742,-1.7748,-1.764,-1.8372,-1.8824,-1.9146,-2.0335,-2.0528,-1.9956,-2.0935,-2.1346,-2.142,-2.2058,-2.2298,-2.2297,-2.2293,0.0,0.0,0.0,0.0,0.0,0.0,0.0,0.0,-2.419,-2.419,-2.4113,-2.3795,-2.3638,-2.352,-2.3264,-2.3136,-2.3277,-2.4098,-2.4888,-2.572,-2.6597,-2.6744,-2.6859,-2.7453,0.0,-2.5607,0.0,0.0,0.0,0.0,0.0,0.0,0.0,0.0,0.0,0.0,0.0,0.0,0.0,0.0,0.0,0.0,0.0,0.0,0.0,0.0,0.0,0.0,0.0,0.0,-1.8968,-1.838,-1.7558,0.0,-1.5297,-1.4698,-1.4652,-1.5186,-1.5454,-1.5588,-1.6701,-1.7504,-1.7973,-1.8574,-1.9126,-1.9641,-2.0058,-2.0765,-2.1552,-2.1552,-2.2239,-2.3186,0.0,0.0,0.0,0.0,0.0,0.0,0.0,0.0,0.0,0.0,0.0,0.0,0.0,0.0,0.0,0.0,0.0,0.0,0.0,0.0,-0.9626,-1.0139,-1.214,-1.3693,-1.4756,-1.5724,-1.6235,-1.6225,-1.7264,-1.7261,-1.6265,-1.7397,-1.8352,-1.9134,-1.9716,-1.9904,-1.9782,-2.0481,-2.0877,-2.1149,-2.1989,-2.2285,-2.2297,-2.2293,-2.26,0.0,0.0,0.0,0.0,0.0,0.0,0.0,-2.4132,-2.419,-2.4113,-2.3795,-2.3259,-2.2815,-2.3122,-2.2741,-2.2458,-2.3259,-2.4481,-2.5694,-2.6488,-2.6676,-2.6504,-2.5819,-2.5868,0.0,0.0,0.0,0.0,0.0,0.0,0.0,0.0,0.0,0.0,0.0,0.0,0.0,0.0,0.0,0.0,0.0,0.0,0.0,0.0,0.0,0.0,0.0,0.0,-1.9639,-1.953,-1.8574,-1.7746,0.0,-1.5947,-1.4915,-1.4003,-1.4143,-1.4457,-1.4971,-1.6089,-1.6634,-1.6844,-1.784,-1.8812,-1.9621,-1.9728,-2.0317,-2.1118,-2.1118,-2.1278,-2.1518,0.0,0.0,0.0,0.0,0.0,0.0,0.0,0.0,0.0,0.0,0.0,0.0,0.0,0.0,0.0,0.0,0.0,0.0,0.0,0.0,-0.9028,-1.0166,-1.1542,-1.2992,-1.4475,-1.4555,-1.4964,-1.5805,-1.6518,-1.6827,-1.676,-1.6786,-1.7712,-1.9415,-1.9602,-1.969,-1.9711,-2.0028,-2.0258,-2.0508,-2.1784,-2.2291,-2.2236,-2.1838,-2.2065,-2.2588,-2.2476,0.0,0.0,0.0,0.0,0.0,0.0,0.0,-2.417,-2.3996,-2.3646,-2.3369,-2.3605,-2.3364,-2.3256,-2.4053,-2.5154,-2.6117,-2.65,-2.6633,-2.6301,-2.5024,-2.4931,0.0,0.0,0.0,0.0,0.0,0.0,0.0,0.0,0.0,0.0,0.0,0.0,0.0,0.0,0.0,0.0,0.0,0.0,0.0,0.0,0.0,0.0,0.0,-1.9525,-1.969,-1.969,-1.865,-1.792,-1.7612,-1.625,-1.4949,-1.3815,-1.3815,-1.4143,-1.4744,-1.5353,-1.5608,-1.5696,-1.6844,-1.7599,-1.8166,-1.8948,-1.9692,-2.0366,-2.0583,-2.0797,-2.0991,0.0,0.0,0.0,0.0,0.0,0.0,0.0,0.0,0.0,0.0,0.0,0.0,0.0,0.0,0.0,0.0,0.0,0.0,0.0,0.0,0.0,-1.0137,-1.0818,-1.2059,-1.4007,-1.3491,-1.404,-1.5798,-1.579,-1.6487,-1.7787,-1.6907,-1.7637,-1.9691,-1.9708,-1.9707,-1.9707,-1.9687,-1.9718,-1.982,-2.1262,-2.1843,-2.1777,-2.1214,-2.1479,-2.2119,-2.1831,-2.2324,-2.3117,-2.3165,0.0,0.0,0.0,0.0,-2.419,-2.419,-2.4098,-2.4025,-2.4153,-2.419,-2.4355,-2.5035,-2.5786,-2.6355,-2.6227,-2.624,-2.5903,-2.4521,0.0,0.0,0.0,0.0,0.0,0.0,0.0,0.0,0.0,0.0,0.0,0.0,0.0,0.0,0.0,0.0,0.0,0.0,0.0,0.0,0.0,0.0,-1.8969,-1.8623,-1.9057,-1.9339,-1.9406,-1.8458,-1.7932,-1.7783,-1.6113,-1.4789,-1.385,-1.369,-1.392,-1.4387,-1.4525,-1.456,-1.4652,-1.5784,-1.6305,-1.6549,-1.8039,-1.8939,-1.939,-1.9869,-2.0299,-2.0649,0.0,0.0,0.0,0.0,0.0,0.0,0.0,0.0,0.0,0.0,0.7522,0.6236,0.0,0.0,0.0,0.0,0.0,0.0,0.0,0.0,0.0,-1.0173,-1.0381,-1.0963,-1.2142,-1.2839,-1.4056,-1.5787,-1.5783,-1.6493,-1.7799,-1.8734,-1.9375,-1.9715,-1.9713,-1.9684,-1.9699,-1.9718,-1.9693,-1.9725,-1.9936,-2.0067,-2.0136,-2.0747,-2.1238,-2.1568,-2.2034,-2.2446,-2.2822,-2.3093,-2.3437,0.0,0.0,0.0,-2.419,-2.419,-2.3712,-2.3309,-2.4006,-2.419,-2.4226,-2.4318,-2.4961,-2.5384,-2.4685,0.0,-2.4843,0.0,0.0,0.0,0.0,0.0,0.0,0.0,0.0,0.0,0.0,0.0,0.0,0.0,0.0,0.0,0.0,0.0,0.0,0.0,0.0,0.0,0.0,-1.7511,-1.7208,-1.8149,-1.7819,-1.7833,-1.8288,-1.7706,-1.7169,-1.6678,-1.4983,-1.4114,-1.4049,-1.3351,-1.3065,-1.3152,-1.3695,-1.3909,-1.4003,-1.5219,-1.5971,-1.6464,-1.7203,-1.7854,-1.8366,-1.8902,-1.914,-1.931,0.0,0.0,0.0,0.0,0.0,0.0,0.0,0.0,0.0,0.0,0.0,0.6063,0.0,0.0,0.0,0.0,0.0,0.0,0.0,0.0,0.0,-0.8407,-0.9656,-1.102,-1.2555,-1.2991,-1.4235,-1.6352,-1.5976,-1.6083,-1.6728,-1.8734,-2.023,-2.1161,-2.1147,-2.0602,-1.971,-1.9699,-1.9687,-1.9694,-1.9692,-2.0273,-2.1203,-2.157,-2.1794,-2.1905,-2.1828,-2.2197,-2.2746,-2.3093,-2.3414,-2.3774,-2.4094,0.0,0.0,0.0,-2.3951,-2.3657,-2.3547,-2.3859,-2.408,-2.3639,-2.4135,-2.463,-2.4281,-2.421,-2.4096,0.0,0.0,0.0,0.0,0.0,0.0,0.0,0.0,0.0,0.0,0.0,0.0,0.0,0.0,0.0,0.0,0.0,0.0,0.0,0.0,0.0,-1.8338,-1.7393,-1.6927,-1.7084,-1.6945,-1.6968,-1.7195,-1.6967,-1.6452,-1.5643,-1.4754,-1.3961,-1.3205,-1.2973,-1.3055,-1.342,-1.3334,-1.3286,-1.3372,-1.4226,-1.4949,-1.552,-1.6434,-1.7162,-1.7747,-1.8574,-1.8893,-1.9029,0.0,0.0,0.0,0.0,0.0,0.0,0.0,0.0,0.0,0.0,0.0,0.0,0.0,0.0,0.0,0.0,0.0,0.0,0.0,0.0,0.0,-0.7802,-0.9428,-1.0981,-1.2436,-1.2947,-1.431,-1.6544,-1.6053,-1.596,-1.6357,-1.829,-2.0331,-2.2304,-2.2304,-2.1575,-2.0374,-2.0368,-2.013,-1.9749,-2.0194,-2.1131,-2.222,-2.1447,-2.162,-2.2248,-2.179,-2.2101,-2.2746,-2.2996,-2.33,-2.3631,-2.3976,-2.4074,0.0,0.0,0.0,-2.4061,-2.3474,-2.3749,-2.4061,-2.3456,-2.3768,-2.419,0.0,0.0,0.0,0.0,0.0,0.0,0.0,0.0,0.0,0.0,0.0,0.0,0.0,0.0,0.0,0.0,0.0,0.0,0.0,0.0,0.0,0.0,0.0,0.0,-1.7982,-1.7139,-1.6531,-1.6144,-1.5973,-1.5996,-1.6281,-1.6296,-1.5665,-1.4405,-1.4437,-1.3806,-1.2521,-1.2799,-1.3178,-1.36,-1.3102,-1.2881,-1.2978,-1.3552,-1.405,-1.4606,-1.574,-1.6476,-1.7037,-1.8249,-1.8765,-1.9051,0.0,0.0,0.0,0.0,0.0,0.0,0.0,0.0,0.0,0.0,0.0,0.0,0.6509,0.3907,0.1002,-0.195,-0.3613,-0.4268,-0.3823,-0.5819,-0.7923,-1.0052,-1.0244,0.0,-1.0467,-1.2265,-1.4084,-1.5862,-1.5829,-1.6439,-1.7704,-1.7835,-1.9475,-2.2288,-2.2304,-2.2231,-2.215,-2.2168,-2.1201,-1.9853,-2.1484,-2.2209,-2.1985,-1.9108,-1.9813,-2.2304,-2.2262,-2.2452,-2.2695,-2.2721,-2.2947,-2.3282,-2.361,-2.3714,-2.3795,0.0,0.0,0.0,-2.4153,-2.4171,-2.419,-2.4153,-2.4171,-2.419,0.0,0.0,0.0,0.0,0.0,0.0,0.0,0.0,0.0,0.0,0.0,0.0,0.0,0.0,0.0,0.0,0.0,0.0,0.0,0.0,0.0,0.0,0.0,0.0,-1.809,-1.6153,-1.5234,-1.56,-1.4722,-1.466,-1.5656,-1.5711,-1.4743,-1.2709,-1.3544,-1.3433,-1.2521,-1.2799,-1.3007,-1.3139,-1.2962,-1.2881,-1.2978,-1.3552,-1.3815,-1.3956,-1.5174,-1.5676,-1.5884,-1.7558,-1.8416,-1.9016,0.0,0.0,0.0,0.0,0.0,0.0,0.0,0.0,0.0,0.0,0.0,0.0,0.0,0.3408,0.1002,-0.195,-0.441,-0.581,-0.5803,-0.6535,-0.7713,-0.9282,-0.8767,-0.8861,-0.9758,-1.0135,-1.1555,-1.4139,-1.5266,-1.6503,-1.7799,-1.8455,-1.9341,-2.048,-2.2579,-2.3513,-2.3397,-2.1285,-2.0754,-2.1502,-2.2927,-2.0732,-1.6753,-1.8211,-1.925,-2.0122,0.0,0.0,0.0,-2.2539,-2.2772,-2.2947,0.0,0.0,0.0,-2.3774,-2.4016,-2.408,-2.3566,-2.3804,-2.408,-2.3566,-2.3823,-2.419,-2.419,0.0,0.0,0.0,0.0,0.0,0.0,0.0,0.0,0.0,0.0,0.0,0.0,0.0,0.0,0.0,0.0,0.0,0.0,0.0,0.0,0.0,0.0,0.0,-1.8106,-1.6375,-1.5486,-1.5664,-1.4316,-1.3748,-1.4075,-1.4081,-1.3716,-1.2936,-1.3538,-1.3173,-1.193,-1.2612,-1.2612,-1.2152,-1.2358,-1.2461,-1.248,-1.3032,-1.3467,-1.3862,-1.4687,-1.5276,-1.5796,-1.7464,-1.8416,-1.9023,0.0,0.0,0.0,0.0,0.0,0.0,0.0,0.0,0.0,0.5597,0.0,0.0,0.0,0.0,0.0056,-0.3385,-0.5637,-0.7081,-0.7548,-0.7389,-0.757,-0.8157,-0.757,-0.7693,-0.8761,-0.8553,-0.9199,-1.0716,-1.3235,-1.5502,-1.75,-1.8724,-1.9434,-1.9731,-2.1906,-2.3381,-2.4059,-2.1874,-2.1723,-2.3016,-2.3862,-2.0662,-1.5671,-1.8297,-1.9334,0.0,0.0,0.0,0.0,0.0,0.0,0.0,0.0,0.0,0.0,-2.3755,-2.4034,-2.4072,-2.3543,-2.3784,-2.4061,-2.3547,-2.3804,-2.4116,-2.3749,0.0,0.0,0.0,0.0,0.0,0.0,0.0,0.0,0.0,0.0,0.0,0.0,0.0,0.0,0.0,0.0,0.0,0.0,0.0,0.0,0.0,0.0,0.0,-1.8106,-1.657,-1.5524,-1.5134,-1.4244,-1.3489,-1.2932,-1.3424,-1.3335,-1.2624,-1.3447,-1.3022,-1.1636,-1.248,-1.2393,-1.1626,-1.2031,-1.218,-1.2209,-1.2549,-1.2964,-1.36,-1.4387,-1.4926,-1.5531,-1.7423,-1.8464,-1.925,0.0,0.0,0.0,0.0,0.0,0.0,0.0,0.0,0.6258,0.5542,0.0,0.0,0.0,0.0,0.0,-0.6195,-0.7117,-0.7776,-0.874,-0.822,-0.7639,-0.7083,-0.6931,-0.6978,-0.7363,-0.763,-0.7159,-0.5873,-0.9734,-1.3361,-1.6723,-1.8372,-1.9537,-2.0208,-2.0246,-2.1657,-2.4048,-2.4148,-2.4136,-2.4063,-2.4173,-2.2238,-1.931,0.0,0.0,0.0,-1.9228,-2.0207,0.0,-2.1157,0.0,0.0,0.0,0.0,0.0,0.0,-2.4177,-2.4212,0.0,0.0,0.0,-2.419,0.0,0.0,-2.2868,0.0,0.0,0.0,0.0,0.0,0.0,0.0,0.0,0.0,0.0,0.0,0.0,0.0,0.0,0.0,0.0,0.0,0.0,0.0,0.0,0.0,0.0,-1.8106,-1.8106,-1.6583,-1.5212,-1.4073,-1.4458,-1.3937,-1.2429,-1.3871,-1.3663,-1.1755,-1.3139,-1.3032,-1.1655,-1.2528,-1.2439,-1.1616,-1.2012,-1.2197,-1.2187,-1.2207,-1.2461,-1.3025,-1.4204,-1.4664,-1.4982,-1.7274,-1.865,-1.9617,0.0,0.0,0.0,0.0,0.0,0.0,0.5093,0.5093,0.503,0.0,0.0,0.0,0.2961,-0.0835,-0.4181,-0.6386,-0.7111,-0.7776,-0.875,-0.8239,-0.7998,-0.8286,-0.7829,-0.7176,-0.6324,-0.5719,-0.6274,-0.7975,-0.763,-0.9699,-1.4099,-1.5284,-1.6512,-1.7811,-1.9025,-1.9795,-2.0336,-2.3033,-2.283,-2.0865,-2.3222,-2.2224,0.0,0.0,0.0,0.0,0.0,-2.0563,-1.9866,0.0,-2.2062,-2.2293,0.0,0.0,-2.2658,0.0,-2.3478,-2.4212,-2.4212,0.0,0.0,0.0,0.0,0.0,0.0,0.0,0.0,0.0,0.0,0.0,0.0,0.0,0.0,0.0,0.0,0.0,0.0,0.0,0.0,0.0,0.0,0.0,0.0,0.0,0.0,0.0,-1.8688,-1.8106,-1.8106,-1.692,-1.5823,-1.4761,-1.4439,-1.385,-1.2915,-1.2917,-1.2781,-1.2566,-1.2972,-1.2768,-1.2061,-1.2627,-1.2457,-1.1686,-1.2095,-1.2319,-1.2317,-1.1907,-1.224,-1.3033,-1.3463,-1.4336,-1.5541,-1.6992,-1.8571,-2.0144,0.0,0.0,0.0,0.0,0.0,0.4505,0.4497,0.396,0.3655,0.0,0.0,0.0,0.1684,-0.086,-0.3352,-0.5549,-0.6778,-0.7776,-0.8745,-0.8488,-0.8449,-0.8798,-0.789,-0.7285,-0.7138,-0.5386,-0.5,-0.6071,-0.6029,-0.7217,-0.9504,-1.1693,-1.3861,-1.5911,-1.7248,-1.7997,-1.8425,-2.0903,-2.1264,0.0,-2.1837,0.0,0.0,-2.0555,-2.0432,0.0,0.0,0.0,-2.0255,-2.1063,-2.1754,0.0,0.0,0.0,0.0,0.0,0.0,-2.3506,-2.4069,-2.4197,-2.42,0.0,0.0,0.0,-2.421,-2.3473,0.0,0.0,0.0,0.0,0.0,0.0,0.0,0.0,0.0,0.0,0.0,0.0,0.0,0.0,0.0,0.0,0.0,0.0,0.0,0.0,-1.92,-1.843,-1.7787,-1.6951,-1.6102,-1.5289,-1.467,-1.395,-1.312,-1.2709,-1.2539,-1.2607,-1.2793,-1.2559,-1.1973,-1.2598,-1.2468,-1.1743,-1.2111,-1.2451,-1.2646,-1.1957,-1.2201,-1.3043,-1.3383,-1.438,-1.5727,-1.6878,-1.8337,-1.9888,0.0,0.0,0.0332,0.2852,0.3975,0.4375,0.4032,0.3025,0.2495,0.0,0.4183,0.3886,0.1165,0.0419,-0.1113,-0.4033,-0.6081,-0.766,-0.8609,-0.8751,-0.8811,-0.8804,-0.7564,-0.7368,-0.8551,-0.6185,-0.413,-0.2471,-0.4812,-0.5349,-0.4341,-0.8184,-1.148,-1.415,-1.5099,-1.6291,-1.7663,-1.8527,0.0,-2.0848,-2.0306,-2.1055,0.0,0.0,-1.7736,-1.7805,-1.7995,-1.9865,-2.2106,-2.0706,-2.1177,0.0,0.0,0.0,0.0,0.0,-2.231,-2.2573,-2.3768,-2.4141,-2.42,0.0,0.0,0.0,-2.4118,-2.34,0.0,0.0,0.0,0.0,0.0,0.0,0.0,0.0,0.0,0.0,0.0,0.0,0.0,0.0,0.0,0.0,0.0,0.0,-2.0574,-2.0398,-1.9829,-1.8835,-1.73,-1.674,-1.6238,-1.572,-1.5062,-1.4258,-1.3284,-1.3047,-1.2686,-1.2258,-1.2695,-1.2459,-1.1636,-1.2422,-1.2398,-1.1749,-1.2215,-1.2663,-1.3075,-1.2344,-1.2438,-1.3092,-1.3609,-1.4621,-1.5825,-1.6859,-1.8045,-1.9326,0.0,-0.8858,-0.1722,0.3941,0.4707,0.3679,0.1264,0.1836,0.2649,0.2806,0.4058,0.4703,0.4075,0.0366,-0.2367,-0.3017,-0.493,-0.6685,-0.7979,-0.8546,-0.8811,-0.8811,-0.8527,-0.7966,-0.7026,-0.7645,-0.6652,-0.4033,-0.3333,-0.2913,-0.2704,-0.6449,-0.945,-1.1747,-1.3108,-1.4725,-1.657,-1.8619,0.0,-1.7958,-1.9816,0.0,-1.7964,-1.7242,-1.7344,-1.7955,-1.914,-2.0737,-2.2246,-2.1942,-2.2062,-2.231,0.0,0.0,0.0,0.0,0.0,0.0,0.0,0.0,0.0,0.0,0.0,0.0,-2.3529,-1.8347,0.0,0.0,0.0,0.0,0.0,0.0,0.0,0.0,0.0,0.0,0.0,0.0,0.0,0.0,0.0,0.0,0.0,0.0,-2.0924,-2.0875,-1.9568,-1.8173,-1.6749,-1.6566,-1.6436,-1.6324,-1.5242,-1.4607,-1.437,-1.3379,-1.2842,-1.2754,-1.2842,-1.2459,-1.1626,-1.2109,-1.2154,-1.1815,-1.2678,-1.3081,-1.3198,-1.3519,-1.3447,-1.3143,-1.289,-1.4232,-1.634,-1.6584,-1.7967,-1.9876,-1.5237,-0.8777,-0.0667,0.4094,0.4834,0.4168,0.2516,0.2628,0.2885,0.2898,0.4305,0.4543,0.2685,0.0191,-0.2065,-0.3753,-0.5299,-0.6569,-0.7528,-0.807,-0.8488,-0.8788,-0.8825,-0.8468,-0.7735,-0.8374,-0.8074,-0.6657,-0.4426,-0.332,-0.3384,-0.5255,-0.6681,-0.7866,-1.0579,-1.3437,-1.6394,0.0,-1.7567,-1.6906,-1.9061,0.0,-1.7283,-1.6779,-1.7087,-1.789,-1.9001,-2.0467,-2.191,-2.2181,-2.231,0.0,0.0,-2.231,-2.231,0.0,-2.2303,-2.2356,0.0,0.0,0.0,-2.419,0.0,0.0,0.0,-1.9836,-1.6684,0.0,0.0,0.0,0.0,0.0,0.0,0.0,0.0,0.0,0.0,0.0,0.0,0.0,0.0,0.0,0.0,0.0,-2.0432,-2.0112,-1.8773,-1.7744,-1.7303,-1.6811,-1.6511,-1.6509,-1.5885,-1.5426,-1.5141,-1.4247,-1.3658,-1.3324,-1.3101,-1.2619,-1.1904,-1.2418,-1.2582,-1.2525,-1.3006,-1.3369,-1.3634,-1.342,-1.326,-1.3163,-1.2943,-1.4002,-1.5681,-1.5924,-1.6954,-1.8376,-1.2255,-0.5684,0.18,0.4793,0.5168,0.4907,0.4684,0.3422,0.2781,0.3623,0.4855,0.4466,0.138,-0.0198,-0.2109,-0.4855,-0.5778,-0.6446,-0.6993,-0.7421,-0.7956,-0.857,-0.8704,-0.8857,-0.9075,-0.9033,-0.9187,-0.9606,-0.6696,-0.5329,-0.5299,-0.4736,-0.4481,-0.465,-0.8364,-1.2153,-1.5827,-1.5801,0.0,-1.6271,0.0,-1.8111,-1.7652,-1.6697,-1.6899,-1.777,-1.8696,-2.0019,-2.1409,-2.1882,0.0,-2.218,-2.2276,-2.2288,0.0,0.0,0.0,0.0,0.0,0.0,0.0,0.0,0.0,-2.386,0.0,0.0,0.0,-2.2326,0.0,0.0,0.0,0.0,0.0,0.0,0.0,0.0,0.0,0.0,0.0,0.0,0.0,0.0,0.0,0.0,-1.9169,-1.8947,-1.7919,-1.7497,-1.797,-1.7195,-1.6645,-1.6509,-1.6492,-1.6284,-1.578,-1.5153,-1.4536,-1.3956,-1.3573,-1.3125,-1.2584,-1.3086,-1.3335,-1.3383,-1.3383,-1.3666,-1.4047,-1.3167,-1.2959,-1.3198,-1.3198,-1.3861,-1.4865,-1.5332,-1.5963,-1.6744,-0.2715,0.1294,0.4893,0.7809,0.6648,0.5349,0.5294,0.2501,0.169,0.5434,0.5641,0.53,0.4827,-0.0917,-0.481,-0.4927,-0.5132,0.0,-0.5917,0.0,-0.7058,-0.7818,-0.844,-0.918,-1.0022,-1.0022,-1.0805,-1.2432,-0.9598,-0.8258,-0.8275,-0.5677,-0.4523,-0.465,-0.7626,-1.0583,-1.3314,0.0,-1.3927,0.0,-1.512,-1.5997,0.0,-1.6403,-1.6728,-1.7708,-1.9217,-2.0335,-2.1055,0.0,-2.1368,-2.1738,0.0,-2.2295,-2.231,0.0,0.0,0.0,0.0,0.0,0.0,0.0,-2.3318,0.0,0.0,0.0,-2.2574,-2.236,0.0,-2.2293,-2.2298,0.0,0.0,0.0,0.0,0.0,0.0,0.0,0.0,0.0,0.0,0.0,0.0,0.0,0.0,-1.7797,-1.7528,-1.7404,-1.7648,-1.7518,-1.717,-1.6522,-1.6492,-1.6446,-1.6377,-1.5645,-1.5005,-1.4606,-1.455,-1.4306,-1.3905,-1.3937,-1.3998,-1.4018,-1.4018,-1.4055,-1.4085,-1.3986,-1.3636,-1.3198,-1.3198,-1.3861,-1.4865,-1.5332,-1.5963,-1.6804,-0.3735,-0.017,0.2939,0.6245,0.6022,0.541,0.5376,0.2308,0.0652,0.2414,0.4551,0.5431,0.4193,0.0,0.0,0.0,0.0,-0.5043,0.0,0.0,-0.6997,-0.7467,-0.8323,-0.8956,-0.9347,-1.0131,-1.1031,-1.2079,-1.1472,-1.032,-0.8788,-0.7552,-0.6989,-0.7059,-0.8254,0.0,-0.9518,0.0,-1.1751,0.0,0.0,0.0,0.0,-1.562,-1.6268,-1.7441,-1.8793,-1.968,-2.0249,0.0,-2.0991,0.0,0.0,0.0,0.0,0.0,0.0,0.0,0.0,0.0,0.0,0.0,0.0,0.0,0.0,0.0,-2.2898,0.0,0.0,0.0,0.0,0.0,0.0,0.0,0.0,0.0,0.0,0.0,0.0,0.0,0.0,0.0,0.0,0.0,0.0,0.0,0.0,-1.7942,-1.7875,-1.7303,-1.6803,-1.6509,-1.651,-1.6517,-1.6517,-1.6174,-1.5582,-1.4698,-1.4808,-1.4338,-1.3419,-1.4068,-1.4352,-1.4467,-1.4748,-1.4844,-1.4787,-1.3643,-1.3396,-1.3672,-1.3323,-1.3474,-1.3964,-1.4645,-1.5117,-1.5601,-0.7632,-0.233,0.2317,0.4911,0.5424,0.4705,0.2776,0.0071,-0.1276,-0.0155,0.0,0.0,0.2394,0.0871,0.0,0.0,-0.2923,-0.3893,0.0,0.0,-0.6483,-0.6808,-0.7917,0.0,0.0,-1.0084,-1.1167,-1.1876,-1.2582,-1.1863,-0.9941,-0.9918,-0.9946,-0.9899,-0.9127,-0.8293,-0.7567,0.0,-1.0253,-1.2496,-1.2405,-1.3216,-1.4517,-1.5237,-1.6218,-1.7268,-1.8247,-1.8858,-1.9244,-1.9728,-2.0147,0.0,-2.0162,0.0,0.0,0.0,0.0,0.0,-2.0797,0.0,0.0,0.0,0.0,0.0,0.0,0.0,0.0,0.0,0.0,0.0,0.0,0.0,-2.2324,-2.1199,0.0,0.0,0.0,0.0,0.0,0.0,0.0,0.0,0.0,0.0,0.0,0.0,-1.7691,0.0,-1.809,-1.725,-1.6727,-1.6494,-1.6527,-1.6522,-1.6522,-1.6522,-1.6064,-1.5197,-1.503,-1.4568,-1.3917,-1.4711,-1.5081,-1.5195,-1.5554,-1.5583,-1.5277,-1.3889,-1.363,-1.4047,-1.3609,-1.3336,-1.3288,-1.4181,-1.4501,-1.4707,-1.2683,-0.3015,0.5276,0.5382,0.5424,0.0,0.0,0.0,0.0,0.0,0.0,0.0,0.0,0.0,0.0,0.0,0.0,-0.1393,-0.4337,0.0,-0.5054,-0.5559,-0.6966,-0.8025,0.0,0.0,-1.1486,-1.2859,-1.2908,-1.2849,-1.279,-1.2774,-1.2763,-1.2641,-1.0003,-0.8798,-0.8752,-0.8763,-0.987,-1.1536,-1.1545,-1.2454,-1.3993,0.0,-1.6735,-1.7368,-1.7933,0.0,0.0,-1.8171,-1.8478,0.0,0.0,0.0,0.0,0.0,0.0,0.0,0.0,0.0,0.0,-2.1521,0.0,0.0,0.0,0.0,-2.2415,0.0,0.0,0.0,0.0,-2.2923,-2.221,-2.0755,-2.0831,0.0,0.0,0.0,0.0,0.0,0.0,0.0,0.0,0.0,0.0,-1.6872,-1.6593,-1.6872,-1.8037,-1.7774,-1.7231,-1.652,-1.6511,-1.6522,-1.6522,-1.6522,-1.6466,-1.6423,-1.5274,-1.5286,-1.638,-1.6423,-1.6455,-1.6441,-1.645,-1.6049,-1.538,-1.5323,-1.4828,-1.4085,-1.4072,-1.3697,-1.3288,-1.4181,-1.4501,-1.4676,-0.9576,-0.509,-0.1759,-0.1734,0.0,0.0,0.0,-0.3783,0.0,0.0,0.0,0.0,0.0,0.0,0.0,0.0,0.0,-0.0418,-0.1444,-0.3431,0.0,0.0,0.0,-0.7652,0.0,0.0,-1.1242,-1.2194,-1.2675,-1.288,-1.2908,-1.2879,-1.2886,-1.2753,-1.0031,-0.8805,0.0,0.0,0.0,0.0,0.0,-1.2694,-1.4323,0.0,0.0,-1.6232,-1.6811,-1.7271,0.0,-1.7585,-1.7933,-1.8352,-1.8352,-1.844,-1.8527,-1.8527,-1.8679,0.0,0.0,0.0,-2.0181,-2.0634,0.0,0.0,0.0,0.0,0.0,0.0,0.0,0.0,0.0,-2.3277,-2.2797,-2.2069,-2.1685,-2.1421,0.0,0.0,0.0,0.0,0.0,0.0,0.0,0.0,0.0,-1.5896,-1.6141,-1.6534,0.0,-1.729,-1.7105,-1.6511,-1.6514,-1.6522,-1.6522,-1.5959,-1.5688,-1.5697,-1.5028,-1.4496,-1.4183,-1.5772,-1.6492,-1.6497,-1.6504,-1.6344,-1.6103,-1.5591,-1.5504,-1.5568,-1.46,-1.3803,-1.332,-1.4197,-1.4501,-1.4658,-0.6995,-0.6094,0.0,0.0,0.0,0.0,0.0,0.0,0.0,0.0,0.0,0.0,0.0,0.0,0.0,0.0,0.0,0.0,0.0,-0.1812,0.0,-0.4103,-0.5588,0.0,0.0,0.0,0.0,-1.1242,-1.2351,-1.2645,-1.2159,-1.1648,-1.1963,-1.2789,-1.0027,-0.8811,-0.8819,-0.8795,-0.943,0.0,0.0,-1.2841,0.0,0.0,-1.5347,-1.5861,0.0,-1.6527,-1.7034,-1.7034,-1.7229,-1.7544,-1.7544,-1.7544,-1.7544,-1.7544,-1.7666,-1.7907,-1.8263,-1.8826,0.0,-1.9939,-2.04,0.0,-2.146,0.0,0.0,0.0,0.0,0.0,0.0,0.0,-2.2947,-2.2746,-2.2212,-2.1952,0.0,-2.2163,0.0,0.0,0.0,0.0,0.0,0.0,-1.4935,-1.3498,-1.4703,-1.5811,0.0,0.0,-1.6537,-1.6782,-1.6405,-1.6321,-1.6522,-1.6003,-1.5528,-1.5071,-1.4824,-1.4283,-1.3594,-1.5623,-1.6492,-1.6509,-1.6507,-1.649,-1.6471,-1.5967,-1.6053,-1.6421,-1.5434,-1.4548,-1.3853,-1.4226,-1.462,-1.5072,-0.5453,0.0,0.0,0.0,-0.5908,0.0,0.0,0.0,0.0,0.0,0.0,0.0,0.0,0.0,0.0,0.0,0.0,0.0,0.0,0.0,0.0,0.0,-0.3893,-0.5144,-0.6475,0.0,0.0,0.0,-1.1926,-1.2159,-1.0872,-0.9528,-1.0311,-1.278,-1.0086,-0.8908,-0.8865,-0.8862,-0.9658,-1.0973,-1.2304,-1.2891,-1.2998,-1.3563,0.0,-1.6162,-1.5745,-1.6008,-1.6522,-1.6522,-1.6522,-1.6522,-1.6522,-1.6522,-1.6522,-1.6522,-1.6879,-1.7271,-1.7312,-1.8066,-1.8954,-1.9441,0.0,0.0,0.0,0.0,-2.1774,0.0,0.0,0.0,0.0,0.0,0.0,-2.2721,-2.249,-2.231,-2.231,0.0,0.0,0.0,0.0,0.0,0.0,-1.5637,-1.3387,-1.0151,-1.2528,-1.4775,0.0,0.0,-1.567,-1.719,-1.6284,-1.5982,-1.6509,-1.6466,-1.5899,-1.4791,-1.4716,-1.4748,-1.4814,-1.5908,-1.6374,-1.6416,-1.6484,-1.6484,-1.6514,-1.6497,-1.6519,-1.6514,-1.6514,-1.5876,-1.4891,-1.4367,-1.484,-1.5903,-0.5902,-0.5891,-0.6237,0.0,-0.623,-0.5257,0.0,0.0,0.0,0.0,0.0,0.0,0.0,0.0,0.0,0.0,0.0,0.0,0.0,0.0,0.0,-0.0734,-0.3178,-0.4659,-0.5035,-0.7446,0.0,-0.9065,0.0,-1.2031,-1.2333,-1.0953,-1.1216,-1.2847,-1.1072,-1.0124,-0.984,-0.9826,-1.0511,-1.1566,-1.1922,-1.2582,0.0,0.0,-1.3879,-1.4974,-1.545,-1.6008,-1.6522,-1.6522,-1.6522,-1.6522,-1.6522,-1.6522,-1.6522,-1.6522,-1.6595,-1.6795,-1.7188,-1.7787,-1.8405,-1.8954,-1.9449,-2.0,0.0,0.0,0.0,0.0,0.0,0.0,0.0,0.0,0.0,-2.3021,-2.2634,-2.231,0.0,0.0,0.0,0.0,0.0,0.0,-1.6237,-1.299,-1.1534,-1.274,-1.3698,-1.4576,0.0,0.0,0.0,-1.6697,-1.6456,-1.6371,-1.6522,-1.6051,-1.5888,-1.6025,-1.5118,-1.5163,-1.6013,-1.5183,-1.4995,-1.5352,-1.6131,-1.6499,-1.6492,-1.6507,-1.6525,-1.6507,-1.6507,-1.6336,-1.5962,-1.5028,-1.5167,-1.5903,-0.6399,0.0,0.0,-0.6274,0.0,0.0,-0.0327,0.0,0.0,0.0243,0.0,0.0,0.0,0.0,0.0,0.0,0.0,0.0,0.0,0.0,0.0,0.0,-0.2242,-0.3831,-0.4481,-0.6651,0.0,-0.8277,0.0,-1.1318,-1.1541,-1.1661,-1.1929,-1.2262,-1.1446,-1.0872,-1.0473,-1.0245,-1.0789,-1.1688,-1.1756,0.0,0.0,-1.2969,-1.3438,-1.4211,-1.496,-1.5599,-1.6151,-1.6423,-1.6522,-1.6522,-1.6522,-1.6522,-1.6522,-1.6522,-1.6522,-1.6552,-1.6879,-1.7353,-1.7867,-1.8419,-1.8968,-1.9536,-2.0143,-2.0516,-2.0927,0.0,0.0,0.0,0.0,0.0,0.0,-2.3141,-2.2781,0.0,0.0,0.0,0.0,0.0,0.0,0.0,-1.7013,-1.4235,-1.2955,-1.3925,-1.4141,-1.4415,0.0,0.0,0.0,-1.6484,-1.6283,-1.6271,-1.6522,-1.6139,-1.6156,-1.6511,-1.5804,-1.5848,-1.6455,-1.5593,-1.5085,-1.4947,-1.6043,-1.7048,-1.7881,-1.7922,-1.7894,-1.7891,-1.7894,-1.7342,-1.6449,-1.5821,-1.5662,-1.5859,0.0,0.0,0.0,0.0,0.0,0.0,0.0,0.4068,0.0,0.0567,0.0,0.0,0.0,0.0,0.0,0.0,0.0,0.0,0.0,0.0,-0.017,-0.0582,-0.1644,-0.295,-0.4488,-0.5869,0.0,0.0,-0.9755,-1.0565,-1.0142,-1.2004,-1.2471,-1.1742,-1.1688,-1.1478,0.0,-1.0547,-1.0764,-1.1419,-1.1796,-1.2344,-1.2881,-1.2881,-1.3248,-1.3779,-1.4479,-1.5107,-1.5676,-1.6293,-1.6522,-1.6522,-1.6522,-1.6522,-1.6534,-1.6609,-1.6572,-1.6534,-1.6609,-1.6931,-1.7422,-1.7987,-1.8496,-1.914,-2.0039,-2.0246,-2.0501,-2.1259,-2.1521,0.0,0.0,0.0,0.0,-2.3093,0.0,0.0,0.0,0.0,0.0,0.0,0.0,0.0,0.0,-1.7104,-1.567,-1.4441,-1.4222,-1.4438,0.0,0.0,0.0,-1.6659,-1.6211,0.0,-1.671,0.0,-1.6637,-1.671,-1.6552,-1.6552,-1.6595,-1.6519,-1.5984,-1.5175,-1.5986,-1.7463,-1.929,-1.9421,-1.9566,-1.9649,-1.9374,-1.814,-1.6481,-1.652,-1.6243,-1.5901,0.0,0.0,0.0,0.0,0.0,0.5823,0.5827,0.6455,0.5245,0.0648,0.0,0.0,0.0,0.0,0.0,0.0,0.0,0.0,0.0,0.0,0.0,-0.3629,-0.2749,-0.2901,-0.447,-0.5882,-0.6788,0.0,-0.9642,-1.1066,-1.1532,-1.2471,-1.3007,-1.3147,-1.2811,-1.2598,-1.2472,-1.1621,0.0,-1.1031,-1.2211,-1.2774,-1.2881,-1.2881,-1.2978,-1.32,-1.4294,-1.5107,-1.5676,-1.6293,-1.6522,-1.6522,-1.6522,-1.6522,-1.6609,-1.7087,-1.6886,-1.6622,-1.7099,-1.7295,-1.7422,-1.7987,-1.8496,-1.9043,-1.966,-2.0054,-2.0348,-2.0516,-2.1102,-2.1702,-2.2074,0.0,0.0,0.0,0.0,0.0,0.0,0.0,0.0,0.0,0.0,0.0,0.0,0.0,0.0,0.0,0.0,0.0,0.0,0.0,0.0,0.0,0.0,0.0,0.0,0.0,-1.7394,-1.7827,-1.6909,-1.671,-1.7133,-1.6703,-1.6402,-1.6191,-1.5761,-1.6127,-1.7115,-1.8003,-1.8902,-1.9538,-1.7747,-1.6816,-1.6496,-1.6519,-1.6464,-1.6344,0.0,0.0,0.0,0.0,0.0,0.0,0.0,0.7118,0.0,0.0648,0.0,0.0,0.0,0.0,-0.0619,-0.2189,-0.2345,-0.1681,-0.0112,0.0,-0.0672,-0.2127,-0.2965,0.0,-0.448,-0.55,-0.6358,-0.7089,-0.9182,-1.0793,-1.1933,-1.2586,-1.3105,-1.3486,-1.3066,-1.2881,0.0,0.0,0.0,-1.1865,-1.1813,-1.2239,-1.2881,-1.2881,-1.2881,-1.3017,-1.392,-1.4595,-1.5276,-1.6194,-1.6522,-1.6522,-1.6522,-1.6522,-1.6635,-1.7212,-1.6974,-1.6647,-1.7225,-1.7168,-1.7076,-1.7907,-1.8302,-1.8688,-1.953,-1.9839,-2.007,-2.0246,-2.0634,-2.1164,-2.1938,-2.2441,0.0,0.0,0.0,0.0,0.0,0.0,0.0,0.0,0.0,0.0,0.0,0.0,0.0,0.0,0.0,0.0,0.0,0.0,0.0,0.0,0.0,0.0,0.0,0.0,0.0,-1.8106,-1.7585,-1.7463,-1.7679,-1.7099,-1.7122,-1.7566,-1.6968,-1.7259,-1.8177,-1.8408,-1.8651,-1.878,-1.7746,-1.7011,-1.6515,-1.6514,-1.6522,-1.6502,0.0,0.7121,0.0,0.0,0.7195,0.0,0.0,0.7111,0.5753,0.1853,0.0531,0.0,0.0,0.0,-0.0975,-0.332,-0.3564,-0.2529,-0.0168,0.0,0.0,0.0,-0.2907,-0.449,-0.4477,-0.4999,-0.5903,0.0,-0.8757,-1.0463,-1.2058,-1.2645,-1.3121,-1.3486,-1.3066,0.0,0.0,0.0,-1.1899,-1.2813,-1.1675,-1.1899,-1.2881,-1.2881,-1.2881,-1.2968,-1.36,-1.4097,-1.4652,-1.5744,-1.6293,-1.6466,-1.6337,-1.6293,-1.6417,-1.6962,-1.6724,-1.6486,-1.7169,-1.6948,-1.671,-1.7706,-1.7947,-1.8224,-1.9281,-1.953,-1.966,-2.0089,-2.0246,-2.0651,-2.1766,-2.2252,0.0,0.0,0.0,0.0,0.0,0.0,0.0,0.0,0.0,0.0,0.0,0.0,0.0,0.0,0.0,-1.7832,-1.6781,-1.7537,0.0,0.0,0.0,-1.8366,-1.8584,0.0,-1.8366,0.0,-1.8249,-1.821,-1.8416,-1.7622,-1.7824,-1.8792,-1.8164,-1.836,-1.9121,-1.8702,-1.8204,-1.7774,-1.7773,-1.7251,-1.6476,-1.6497,-1.6522,-1.6522,0.0,0.0,0.0,0.0,0.0,0.0,0.0,0.7111,0.6743,0.5814,0.2411,0.0,0.0,0.0,-0.0122,-0.0412,-0.0399,-0.0279,-0.0,0.0,0.0,0.0,-0.2905,-0.4487,-0.4519,-0.4542,-0.544,0.0,0.0,-1.0394,-1.253,-1.28,-1.3134,-1.3486,0.0,0.0,0.0,-1.2764,-1.2764,-1.2881,-1.2764,-1.2764,-1.2881,-1.2881,-1.2881,-1.2968,-1.36,-1.3826,-1.4003,-1.4652,-1.5611,-1.6423,-1.5864,-1.5676,-1.579,-1.6173,-1.6009,-1.5903,-1.6872,-1.6846,-1.6637,-1.7229,-1.7394,-1.7666,-1.8727,-1.8968,-1.9118,-1.9639,-2.007,-2.0567,-2.1475,-2.1672,-2.1931,0.0,0.0,0.0,0.0,0.0,0.0,0.0,0.0,0.0,0.0,0.0,0.0,0.0,0.0,-1.8099,-1.8459,-1.838,-1.8723,-1.9536,0.0,-1.9236,-2.0093,-1.9236,0.0,-2.0093,-1.8722,-1.8584,-1.9411,-1.8325,-1.8419,-1.9462,-1.8361,-1.7695,-1.7356,-1.7291,-1.7006,-1.6658,-1.6663,-1.66,-1.6488,-1.6519,-1.6522,-1.6522,0.0,0.0,0.0,0.0,0.0,0.0,0.0,0.4656,0.2789,0.2553,0.1041,0.0,0.0,0.0,0.0,0.0,0.0,0.0,0.0,0.0,0.0,0.0,-0.2907,-0.449,-0.4473,-0.4508,-0.4838,0.0,0.0,-0.9396,-1.1241,-1.1734,-1.2132,0.0,0.0,-1.1774,-1.211,-1.2685,-1.2558,-1.211,-1.2657,-1.2881,-1.2881,-1.2881,-1.2881,-1.2929,-1.3152,-1.3253,-1.3293,-1.3518,-1.4415,-1.5435,-1.5406,-1.5405,-1.5552,-1.6322,-1.621,-1.6038,-1.6892,-1.674,-1.6569,-1.7303,-1.7474,-1.7666,-1.8277,-1.8908,-1.9418,-1.9657,-2.0036,-2.0416,-2.0765,-2.1039,-2.1488,0.0,0.0,0.0,0.0,0.0,0.0,0.0,0.0,0.0,0.0,0.0,0.0,0.0,0.0,-1.9799,-1.9826,-1.9648,-1.96,-1.9711,0.0,-1.9919,-2.0314,-2.0196,-2.0333,-2.0715,-2.0131,-1.9813,-1.976,-1.9335,-1.9166,-1.9139,-1.8396,-1.8003,-1.7849,-1.7661,-1.7511,-1.7443,-1.7463,-1.709,-1.6478,-1.6501,-1.6499,-1.6499,0.5044,0.0,0.7628,0.0,0.7065,0.7098,0.7129,0.4205,0.1556,0.0154,0.0,0.0,0.0,0.0,0.0,0.0,0.0,0.0,0.0,0.0,0.0,0.0,-0.2066,0.0,-0.448,-0.4511,-0.4482,-0.4498,-0.6107,0.0,-1.021,0.0,0.0,0.0,-1.1225,-1.1107,-1.1332,-1.2013,-1.1995,-1.1679,-1.2539,-1.291,-1.2881,-1.2881,-1.2881,-1.2881,-1.2881,-1.289,-1.2905,-1.2905,-1.3464,-1.4253,-1.4916,-1.5289,-1.5554,-1.6005,-1.5951,-1.5844,-1.6486,-1.6625,-1.6656,-1.7099,-1.7385,-1.7642,-1.7882,-1.8361,-1.8864,-1.9277,-1.9619,-1.9838,-2.0028,-2.0371,-2.0863,-2.1553,0.0,0.0,0.0,0.0,0.0,0.0,0.0,0.0,0.0,0.0,0.0,0.0,0.0,0.0,-2.0548,-2.0261,0.0,0.0,0.0,0.0,0.0,-2.0878,-2.1055,-2.1181,-2.1071,-2.0782,-2.0394,-2.0439,-1.9909,-1.8879,-1.8436,-1.8281,-1.8298,-1.7983,-1.7993,-1.8214,-1.8458,-1.8099,-1.7431,-1.7434,-1.7422,-1.7422,0.2236,0.528,0.7067,0.7084,0.7085,0.7095,0.7114,0.7031,0.5303,0.0632,0.0,0.0,0.0,0.0,0.0,0.0,0.0,0.0,0.0,0.0,0.0,0.0,0.0,-0.1446,-0.4421,-0.4498,-0.4482,-0.4522,0.0,0.0,-1.0036,0.0,-1.22,-1.1861,-1.1461,-1.1099,-1.0813,-1.0813,-1.1216,-1.1873,-1.2584,-1.289,-1.2881,-1.2881,-1.2881,-1.2881,-1.2881,-1.2881,-1.2881,-1.2881,-1.2888,-1.3109,-1.4334,-1.5208,-1.5636,-1.4856,-1.4838,-1.5185,-1.5623,-1.638,-1.6978,-1.6445,-1.6978,-1.7613,-1.7618,-1.707,-1.6939,-1.8351,-1.8616,-1.8809,-1.9403,-1.9622,-1.9891,-2.0527,0.0,0.0,0.0,0.0,0.0,0.0,0.0,0.0,-2.146,0.0,0.0,0.0,0.0,0.0,0.0,0.0,0.0,-2.028,-2.0314,0.0,-2.1582,-2.1181,-2.1213,-2.1582,-2.1181,-2.1213,-2.1565,-2.1565,-2.06,-1.8879,-1.8528,-1.8315,-1.8192,-1.7844,-1.7993,-1.8471,-1.9347,-1.9669,-1.9645,-1.9637,-1.966,-1.966,0.0084,0.401,0.6678,0.7062,0.7093,0.71,0.7102,0.713,0.5381,0.063,0.0,0.0,0.0,0.0,0.0,0.0,0.0,0.0,0.0,0.0,0.0,0.0,0.0,-0.1392,-0.4435,-0.4505,-0.4718,-0.5129,0.0,0.0,0.0,-1.0668,-1.0938,-1.1061,-1.0463,-1.0298,-1.0478,-1.0647,-1.0725,-1.0886,-1.2034,-1.2507,-1.2494,-1.2791,-1.2881,-1.2881,-1.2881,-1.2881,-1.2881,-1.2881,-1.2897,-1.3077,-1.3983,-1.4083,-1.3984,-1.4914,-1.5189,-1.5305,-1.5477,-1.6164,-1.6922,-1.7147,-1.7014,-1.6871,-1.685,-1.7047,-1.7503,-1.8432,-1.8602,-1.8792,-1.9515,-1.9671,-1.9762,-1.9968,0.0,0.0,0.0,0.0,0.0,0.0,0.0,0.0,0.0,-2.1899,0.0,0.0,0.0,0.0,0.0,0.0,0.0,0.0,-2.0616,0.0,-2.1582,-2.1811,-2.1945,-2.2077,-2.1945,-2.1945,-2.201,-2.0468,-1.9581,-1.9225,-1.7887,-1.765,-1.8177,-1.7829,-1.8324,-1.931,-1.9603,-1.97,-1.9715,-1.9694,-1.9723,-1.9723,-0.235,0.1452,0.4296,0.5415,0.4948,0.4465,0.4431,0.4423,0.3376,0.0383,0.0,0.0,0.0,0.0,0.0,0.0,0.0,0.0,0.0,0.0,0.0,0.0,0.0,-0.1388,-0.4432,0.0,0.0,-0.5388,-0.6328,-0.8078,-1.0616,-1.0376,-1.0356,-1.0471,-1.0016,-0.9911,-1.0072,-1.0265,-1.035,-1.0542,-1.1689,-1.2289,-1.2573,-1.2969,-1.3213,-1.3311,-1.2998,-1.2988,-1.3096,-1.293,-1.2897,-1.2995,-1.3472,-1.329,-1.315,-1.4503,-1.491,-1.4994,-1.5287,-1.5669,-1.6144,-1.6816,-1.6965,-1.6848,-1.6548,-1.6846,-1.7293,-1.7733,-1.7814,-1.7961,-1.8425,-1.9166,-1.9716,-1.9687,-1.9693,-2.0061,0.0,0.0,0.0,0.0,0.0,0.0,0.0,-2.2032,0.0,0.0,0.0,0.0,0.0,0.0,0.0,-2.055,-2.0862,0.0,-2.1869,-2.2135,-2.231,-2.231,-2.231,-2.2158,-2.1837,-2.0252,-1.9377,-1.9019,-1.7636,-1.7462,-1.8177,-1.7829,-1.8493,-1.969,-1.969,-1.969,-1.969,-1.969,-1.969,-1.969,-0.5,-0.2199,0.0,0.0,0.1263,0.0,0.0,0.0,0.0,0.0,0.0,0.0,0.0,0.0,0.0,0.0,0.0,0.0,0.0,0.0,0.0,0.0,-0.0246,-0.1718,-0.4513,-0.4556,-0.4813,-0.5391,-0.8798,-1.0481,-1.0483,-1.0531,-1.0414,-1.0147,-1.0147,-0.9987,-0.9713,-0.9733,-1.0126,-1.0716,-1.1543,-1.2278,-1.2922,-1.3337,-1.3747,-1.397,-1.3213,-1.3193,-1.3486,-1.3037,-1.2897,-1.2963,-1.2963,-1.2973,-1.3099,-1.3979,-1.4173,-1.4285,-1.5107,-1.4949,-1.4821,-1.5669,-1.6654,-1.7281,-1.6654,-1.6522,-1.6522,-1.6522,-1.649,-1.6478,-1.6507,-1.8131,-1.952,-1.9669,-1.9708,-1.9919,-2.0526,0.0,0.0,0.0,0.0,0.0,0.0,-2.231,-2.2106,0.0,0.0,0.0,0.0,0.0,-2.0583,-2.1039,-2.1023,-2.1462,-2.2282,-2.231,-2.231,-2.231,-2.2282,-2.191,-2.1262,-2.0788,-1.9816,-1.848,-1.7769,-1.7756,-1.8223,-1.7904,-1.8538,-1.969,-1.969,-1.969,-1.969,-1.969,-1.969,-1.969,0.0,0.0,-0.3253,0.0147,0.0297,0.0,0.0,0.0,0.0,0.0,0.0,0.0,0.0,0.0,0.0,0.0,0.0,0.0,0.0,0.0,0.0,0.0,-0.2622,-0.4452,-0.5146,-0.5199,-0.5286,-0.5399,-0.7955,-0.9198,-0.9262,-1.0174,-1.0584,-1.0454,-1.0454,-1.0294,-1.0027,-1.0254,-1.0336,-1.0299,-1.099,-1.1802,-1.2537,-1.294,-1.35,-1.4009,-1.3545,-1.3633,-1.3877,-1.3135,-1.3095,-1.3375,-1.3375,-1.3451,-1.371,-1.4769,-1.462,-1.4175,-1.4367,-1.449,-1.4633,-1.4744,-1.5448,-1.6151,-1.643,-1.6522,-1.6522,-1.6522,-1.6514,-1.6498,-1.6504,-1.6903,-1.7788,-1.9438,-1.9708,-1.9919,-2.0526,-2.0815,0.0,0.0,-2.231,-2.231,-2.231,-2.231,-2.2237,0.0,0.0,0.0,0.0,0.0,-2.1321,-2.146,-2.146,-2.1735,-2.2282,-2.231,-2.231,-2.2282,-2.1928,-2.1874,-2.1995,-2.0675,-1.9895,-1.957,-1.8465,-1.8221,-1.8582,-1.8497,-1.8957,-1.969,-1.969,-1.969,-1.969,-1.969,-1.969,-1.969,-0.9346,-0.7117,-0.4904,-0.2847,-0.1129,0.0,0.0,0.0,0.0,0.0,-0.1457,-0.2479,-0.2476,-0.1763,-0.1208,-0.1208,-0.0471,0.0,0.0,0.0,0.0,0.0,-0.3496,-0.5417,-0.541,-0.5406,-0.5397,-0.5391,-0.7657,-0.8781,-0.8818,-1.004,-1.0624,-1.0624,-1.0624,-1.0474,-1.0327,-1.0488,-1.0468,-1.0376,-1.1146,-1.1684,-1.2194,-1.2946,-1.3588,-1.4129,-1.3854,-1.4072,-1.4336,-1.3672,-1.3603,-1.3789,-1.3789,-1.382,-1.4029,-1.4799,-1.4341,-1.37,-1.4483,-1.429,-1.3945,-1.4418,-1.5062,-1.5764,-1.638,-1.6522,-1.6522,-1.6522,-1.6522,-1.6514,-1.6503,-1.6488,-1.722,-1.9339,-2.0019,-2.045,-2.0894,-2.1134,0.0,-2.2209,-2.231,-2.231,-2.231,-2.231,-2.231,-2.231,0.0,0.0,-2.1928,-2.1718,-2.1582,-2.1582,-2.1582,-2.1823,-2.2282,-2.231,-2.231,-2.2282,-2.1823,-2.1553,-2.144,-2.0235,-1.9468,-1.9122,-1.833,-1.8271,-1.8702,-1.8702,-1.9091,-1.969,-1.969,-1.969,-1.969,-1.969,-1.969,-1.969,-1.0879,-0.8067,-0.5818,-0.5434,-0.2883,-0.0616,-0.0069,0.0,0.0,0.0,-0.3151,-0.5406,-0.5396,-0.4028,-0.3082,-0.3082,-0.1679,-0.0606,-0.0067,0.0,-0.0269,-0.0804,-0.3761,-0.5389,-0.5379,-0.5432,-0.5428,-0.5428,-0.7601,-0.8657,-0.8722,-1.0034,-1.0692,-1.0692,-1.0692,-1.0692,-1.0685,-1.0645,-1.0624,-1.0681,-1.1351,-1.171,-1.192,-1.2949,-1.3623,-1.3996,-1.4006,-1.4227,-1.4458,-1.408,-1.3901,-1.3841,-1.4013,-1.4013,-1.4096,-1.4557,-1.3993,-1.3451,-1.4827,-1.4106,-1.3212,-1.4381,-1.5107,-1.5644,-1.6337,-1.6522,-1.6522,-1.6522,-1.6522,-1.6522,-1.6522,-1.6736,-1.7569,-1.9398,-2.033,-2.091,-2.123,0.0,-2.1598,-2.2135,-2.218,-2.2209,-2.2282,-2.231,-2.231,-2.231,-2.1928,-2.1899,0.0,-2.1928,-2.1718,-2.1718,-2.1718,-2.1899,-2.2282,-2.231,-2.231,-2.2282,-2.1764,-2.1193,-2.0632,-1.983,-1.9103,-1.8485,-1.8148,-1.8328,-1.8852,-1.8852,-1.9181,-1.969,-1.969,-1.969,-1.969,-1.969,-1.969,-1.969,-1.2103,-0.994,-0.7805,-0.5775,-0.4945,-0.3556,-0.0439,0.0,0.0,0.0,-0.3177,-0.5396,-0.5396,-0.5122,-0.4982,-0.4982,-0.4715,-0.3288,-0.0201,0.0,-0.1338,-0.4439,-0.5113,-0.5379,-0.5379,-0.5432,-0.5428,-0.5428,-0.7251,-0.8102,-0.8166,-1.008,-1.0922,-1.0922,-1.0922,-1.0922,-1.0909,-1.0732,-1.0624,-1.0624,-1.0744,-1.1163,-1.1826,-1.202,-1.2517,-1.3253,-1.3584,-1.35,-1.3237,-1.3108,-1.2923,-1.2794,-1.348,-1.3659,-1.3893,-1.4945,-1.4831,-1.4312,-1.4306,-1.3623,-1.3212,-1.4381,-1.4744,-1.5152,-1.625,-1.6522,-1.6522,-1.6522,-1.6522,-1.6522,-1.6522,-1.8004,-1.9316,-1.966,-1.9804,-2.0106,-2.0652,0.0,-2.0797,-2.1628,-2.1718,-2.1853,-2.2254,-2.231,-2.231,-2.231,-2.2237,-2.2209,-2.2282,-2.2237,-2.218,-2.218,-2.218,-2.2237,-2.231,-2.231,-2.231,-2.2282,-2.1493,-2.1227,-2.1387,-2.0208,-1.9767,-1.9955,-1.9572,-1.9435,-1.9525,-1.9525,-1.96,-1.969,-1.969,-1.969,-1.969,-1.969,-1.969,-1.969,-1.4139,-1.1997,-0.971,-0.7626,-0.6078,-0.4546,-0.2684,-0.1735,-0.1575,-0.2755,-0.4296,-0.5291,-0.5369,-0.5376,-0.5376,-0.5376,-0.5376,-0.4691,-0.3004,-0.3053,-0.3797,-0.5335,-0.5401,-0.5434,-0.5423,-0.5406,-0.5428,-0.5428,-0.6764,-0.7674,-0.8276,-0.9726,-1.067,-1.1223,-1.1062,-1.1082,-1.1196,-1.0755,-1.0648,-1.0782,-1.0685,-1.0807,-1.1226,-1.1648,-1.2012,-1.2427,-1.305,-1.3169,-1.302,-1.2974,-1.2856,-1.288,-1.365,-1.3943,-1.4096,-1.5119,-1.5209,-1.478,-1.3723,-1.351,-1.3594,-1.3678,-1.4208,-1.4922,-1.5688,-1.617,-1.6522,-1.6522,-1.6522,-1.6522,-1.6522,-1.8249,-1.9577,-1.9166,-1.9716,0.0,0.0,-2.0597,-2.0829,-2.1244,-2.1275,-2.1446,-2.1899,-2.1928,-2.2032,-2.2282,-2.231,-2.231,-2.231,-2.231,-2.231,-2.231,-2.231,-2.231,-2.231,-2.231,-2.231,-2.2282,-2.1432,-2.1086,-2.1244,-2.0174,-1.9818,-1.9965,-1.9782,-1.969,-1.969,-1.969,-1.969,-1.969,-1.969,-1.969,-1.969,-1.969,-1.969,-1.969,-1.595,-1.3657,-1.1336,-0.9564,-0.7375,-0.554,-0.4644,-0.349,-0.3374,-0.5081,-0.5191,-0.5199,-0.5345,-0.5428,-0.5428,-0.5428,-0.5428,-0.5442,-0.5413,-0.561,-0.5734,-0.5613,-0.5578,-0.5525,-0.5378,-0.5368,-0.5447,-0.5483,-0.623,-0.7263,-0.8439,-0.95,-1.0533,-1.1516,-1.1296,-1.1323,-1.149,-1.0909,-1.0788,-1.0969,-1.0739,-1.0624,-1.0688,-1.1288,-1.1531,-1.1655,-1.2451,-1.2581,-1.2458,-1.2642,-1.2581,-1.2581,-1.3416,-1.3786,-1.4076,-1.476,-1.5088,-1.4979,-1.3537,-1.3643,-1.3969,-1.3468,-1.3847,-1.449,-1.54,-1.6051,-1.6522,-1.6522,-1.6522,-1.6522,-1.6522,-1.7975,-1.9061,-1.854,0.0,0.0,0.0,-2.0465,-2.0731,-2.0829,-2.0829,-2.1023,-2.143,-2.146,-2.1628,-2.2106,-2.2135,-2.218,-2.2282,-2.231,-2.231,-2.231,-2.231,-2.231,-2.231,-2.231,-2.231,-2.2282,-2.1507,-2.1086,-2.0959,-2.0311,-1.9874,-1.9726,-1.9818,-1.9782,-1.969,-1.969,-1.969,-1.969,-1.969,-1.969,-1.969,-1.969,-1.969,-1.969,-1.6868,-1.4493,-1.2355,-1.0898,-0.9444,-0.7586,-0.4901,-0.4399,-0.449,-0.4864,-0.5057,-0.5189,-0.5345,-0.5428,-0.5428,-0.5428,-0.5428,-0.542,-0.5562,-0.5586,-0.5811,-0.6248,-0.6246,-0.5955,-0.5382,-0.5416,-0.5486,-0.5645,-0.5751,-0.6734,-0.8609,-0.9828,-1.0885,-1.1837,-1.1817,-1.1817,-1.1797,-1.1209,-1.0975,-1.0969,-1.0739,-1.0624,-1.0624,-1.0688,-1.0688,-1.08,-1.1593,-1.1413,-1.0863,-1.1655,-1.1413,-1.0926,-1.171,-1.2512,-1.3184,-1.3607,-1.4232,-1.4743,-1.418,-1.4029,-1.4192,-1.4618,-1.3905,-1.3605,-1.5888,-1.6473,-1.6522,-1.6522,-1.6522,-1.6522,-1.6522,-1.718,-1.7828,-1.8094,0.0,0.0,-1.9675,-1.9782,-1.9945,-2.0314,-2.0348,-2.0516,-2.0991,-2.1023,-2.1213,-2.1628,-2.1658,-2.1823,-2.2282,-2.231,-2.231,-2.231,-2.231,-2.231,-2.231,-2.231,-2.231,-2.2282,-2.1794,-2.1368,-2.0991,-2.0926,-2.0465,-1.9711,-2.0089,-2.0019,-1.969,-1.969,-1.969,-1.969,-1.969,-1.969,-1.969,-1.969,-1.969,-1.969,-1.7861,-1.6272,-1.4471,-1.2483,-1.0639,-0.8734,-0.6561,-0.5622,-0.5068,-0.4948,-0.4969,-0.5091,-0.5401,-0.5428,-0.5428,-0.5428,-0.5428,-0.5452,-0.5443,-0.5538,-0.5842,-0.6302,-0.6313,-0.6175,-0.5944,-0.5626,-0.5552,-0.5792,-0.5781,-0.611,-0.6929,-0.8798,-1.058,-1.2131,-1.2186,-1.2134,-1.2091,-1.1391,-1.1096,-1.0994,-1.0742,-1.0624,-1.0624,-1.0624,-1.0624,-1.0624,-1.0926,-1.0863,-1.0624,-1.0926,-1.0863,-1.0744,-1.1531,-1.202,-1.2401,-1.2985,-1.3951,-1.4629,-1.3936,-1.4068,-1.4419,-1.4389,-1.3657,-1.3128,-1.4078,-1.5425,-1.6522,-1.6522,-1.6522,-1.6522,-1.6522,-1.6735,-1.7167,-1.7959,0.0,-1.9095,-1.9603,-1.969,-1.9747,-1.9909,-1.9945,-2.0104,-2.0516,-2.055,-2.0748,-2.1181,-2.1213,-2.1399,-2.1823,-2.2135,-2.231,-2.231,-2.231,-2.231,-2.231,-2.2003,-2.1869,-2.1869,-2.1134,-2.0878,-2.0991,-2.0698,-2.0398,-2.0089,-2.0212,-2.0054,-1.969,-1.969,-1.969,-1.969,-1.969,-1.969,-1.969,-1.969,-1.969,-1.969,-1.8449,-1.7251,-1.574,-1.329,-1.1474,-0.9771,-0.7998,-0.6656,-0.566,-0.5221,-0.5008,-0.5013,-0.5264,-0.5332,-0.5428,-0.5428,-0.5428,-0.5428,-0.5428,-0.5573,-0.5797,-0.6312,-0.63,-0.6314,-0.6323,-0.5923,-0.5775,-0.595,-0.5981,-0.5991,-0.5992,-0.8222,-1.0364,-1.2315,-1.2329,-1.2329,-1.2233,-1.1743,-1.1342,-1.1168,-1.0755,-1.0624,-1.0624,-1.0624,-1.0624,-1.0624,-1.0624,-1.0624,-1.0624,-1.0624,-1.0624,-1.0681,-1.1226,-1.152,-1.1745,-1.2655,-1.3599,-1.4313,-1.3688,-1.3961,-1.435,-1.4039,-1.3699,-1.3575,-1.3925,-1.5316,-1.6522,-1.6522,-1.6522,-1.6522,-1.6522,-1.6498,-1.6734,-1.749,-1.819,-1.8893,-1.9603,-1.969,-1.969,-1.969,-1.969,-1.9818,-2.0089,-2.0124,-2.0296,-2.0764,-2.0797,-2.0943,-2.1399,-2.184,-2.2003,-2.1886,-2.2003,-2.2003,-2.1886,-2.1705,-2.1538,-2.1399,-2.0813,-2.0616,-2.0748,-2.0583,-2.0382,-2.0124,-2.0246,-2.0054,-1.969,-1.969,-1.969,-1.969,-1.969,-1.969,-1.969,-1.969,-1.969,-1.969,-1.8495,-1.7248,-1.5708,-1.3165,-1.1987,-1.0789,-0.8978,-0.7534,-0.6389,-0.5861,-0.5292,-0.4972,-0.5114,-0.527,-0.5428,-0.5428,-0.5428,-0.5428,-0.5428,-0.5576,-0.587,-0.6312,-0.6328,-0.6273,-0.6331,-0.6331,-0.6261,-0.6323,-0.6323,-0.6294,-0.6321,-0.8332,-1.0348,-1.2297,-1.2262,-1.2263,-1.2272,-1.2269,-1.197,-1.1338,-1.0816,-1.0624,-1.0624,-1.0624,-1.0624,-1.0624,-1.0624,-1.0624,-1.0624,-1.0624,-1.0624,-1.0624,-1.0624,-1.0835,-1.1329,-1.253,-1.3209,-1.3577,-1.3522,-1.3818,-1.4043,-1.3755,-1.4205,-1.4994,-1.6204,-1.6515,-1.6522,-1.6522,-1.6522,-1.6522,-1.6522,-1.6522,-1.6515,-1.6507,-1.7395,-1.8444,-1.9566,-1.969,-1.969,-1.969,-1.969,-1.969,-1.969,-1.969,-1.9874,-2.028,-2.0314,-2.0516,-2.0959,-2.1368,-2.1399,-2.0991,-2.1399,-2.1399,-2.0991,-2.1399,-2.1399,-2.0991,-2.0991,-2.0764,-2.0314,-2.0797,-2.0499,-1.9726,-2.0124,-2.0054,-1.969,-1.969,-1.969,-1.969,-1.969,-1.969,-1.969,-1.969,-1.969,-1.969,-1.8945,-1.8094,-1.6998,-1.5025,-1.3377,-1.1639,-0.9724,-0.7782,-0.6389,-0.5861,-0.5292,-0.4972,-0.5114,-0.527,-0.5428,-0.5428,-0.5428,-0.5428,-0.5428,-0.5436,-0.5537,-0.565,-0.6089,-0.6289,-0.6268,-0.627,-0.6115,-0.5657,-0.5657,-0.5659,-0.5657,-0.6253,-0.8649,-1.2283,-1.1481,-1.1119,-1.1103,-1.1116,-1.0995,-1.0817,-1.0668,-1.0624,-1.0624,-1.0624,-1.0624,-1.0624,-1.0624,-1.0624,-1.0624,-1.0624,-1.0624,-1.0624,-1.0624,-1.0835,-1.1316,-1.2282,-1.3024,-1.3577,-1.3522,-1.3818,-1.4149,-1.448,-1.4393,-1.4653,-1.6158,-1.6492,-1.6522,-1.6522,-1.6522,-1.6522,-1.6522,-1.6498,-1.6507,-1.6481,-1.7402,-1.8475,-1.9536,-1.969,-1.969,-1.969,-1.969,-1.969,-1.969,-1.969,-1.9747,-1.9874,-2.0158,-2.0348,-2.0516,-2.091,-2.1118,-2.0991,-2.1134,-2.0943,-2.0516,-2.0634,-2.0634,-2.0516,-2.0243,-2.0174,-2.0299,-2.0449,-2.0348,-2.0124,-2.0246,-2.0054,-1.969,-1.969,-1.969,-1.969,-1.969,-1.969,-1.969,-1.969,-1.969,-1.969,-1.907,-1.8517,-1.7801,-1.6166,-1.4433,-1.2503,-1.0218,-0.8502,-0.7106,-0.6207,-0.5599,-0.5178,-0.503,-0.5179,-0.5294,-0.5422,-0.5428,-0.5428,-0.5428,-0.5379,-0.5385,-0.5372,-0.598,-0.6288,-0.6336,-0.628,-0.6125,-0.5725,-0.5536,-0.5425,-0.5387,-0.5418,-0.7651,-1.1621,-1.0889,-1.059,-1.0603,-1.0581,-1.0627,-1.0588,-1.0621,-1.0624,-1.0624,-1.0624,-1.0624,-1.0624,-1.0624,-1.0624,-1.0624,-1.0624,-1.0624,-1.0624,-1.0624,-1.0739,-1.1102,-1.2102,-1.2722,-1.3142,-1.3466,-1.3756,-1.4051,-1.4493,-1.4446,-1.4619,-1.5796,-1.6268,-1.6522,-1.6522,-1.6522,-1.6522,-1.6522,-1.6524,-1.677,-1.7626,-1.8305,-1.8955,-1.9605,-1.9713,-1.969,-1.969,-1.969,-1.969,-1.969,-1.969,-1.969,-1.969,-1.9945,-2.0054,-2.0054,-2.0483,-2.0665,-2.0499,-2.0632,-2.0532,-2.007,-2.0054,-2.0054,-2.0054,-1.9818,-1.9854,-2.0054,-2.0054,-2.0054,-2.0054,-2.0054,-1.9929,-1.969,-1.969,-1.969,-1.969,-1.969,-1.969,-1.969,-1.969,-1.969,-1.969,-1.9016,-1.8618,-1.8126,-1.6843,-1.5164,-1.3158,-1.068,-0.9327,-0.8159,-0.6853,-0.6216,-0.5669,-0.52,-0.523,-0.5382,-0.5609,-0.5557,-0.5491,-0.5428,-0.5428,-0.543,-0.5369,-0.5946,-0.6235,-0.6233,-0.6254,-0.6264,-0.6264,-0.5745,-0.5458,-0.5375,-0.5401,-0.7118,-1.0124,-1.0104,-1.0157,-1.0136,-1.0483,-1.0578,-1.0568,-1.0624,-1.0624,-1.0624,-1.0624,-1.0624,-1.0624,-1.0624,-1.0624,-1.0624,-1.0624,-1.0624,-1.0624,-1.0624,-1.0624,-1.0927,-1.2055,-1.2373,-1.2543,-1.3427,-1.3747,-1.3818,-1.4031,-1.4437,-1.488,-1.5327,-1.5959,-1.6522,-1.6522,-1.6522,-1.6522,-1.6522,-1.6497,-1.7144,-1.9086,-1.9424,-1.9473,-1.966,-1.9686,-1.9705,-1.969,-1.969,-1.969,-1.969,-1.969,-1.969,-1.969,-1.969,-1.969,-1.969,-2.007,-2.0089,-1.9711,-2.007,-2.0054,-1.9711,-1.969,-1.969,-1.969,-1.969,-1.969,-1.969,-1.969,-1.969,-1.969,-1.969,-1.969,-1.969,-1.969,-1.969,-1.969,-1.969,-1.969,-1.969,-1.969,-1.969,-1.953,-1.9648,-1.8581,-1.7788,-1.7782,-1.5107,-1.259,-1.1377,-0.9347,-0.7818,-0.7503,-0.6996,-0.6702,-0.6795,-0.688,-0.7089,-0.7423,-0.6789,-0.6141,-0.5428,-0.5428,-0.543,-0.5369,-0.552,-0.5601,-0.5623,-0.6046,-0.6264,-0.6264,-0.6143,-0.5846,-0.5375,-0.5401,-0.5783,-0.6519,-0.6522,-0.6547,-0.6703,-0.9432,-1.0617,-1.0591,-1.0588,-1.0624,-1.0624,-1.0624,-1.0624,-1.0624,-1.0624,-1.0624,-1.0624,-1.0624,-1.0624,-1.0624,-1.0624,-1.1045,-1.165,-1.2225,-1.2924,-1.3462,-1.3657,-1.3828,-1.4034,-1.4089,-1.4641,-1.537,-1.6064,-1.6367,-1.6522,-1.6522,-1.6522,-1.6522,-1.6522,-1.6515,-1.6635,-1.7109,-1.7196,-1.7765,-1.9467,-1.97,-1.9694,-1.9705,-1.969,-1.969,-1.969,-1.969,-1.969,-1.969,-1.969,-1.969,-1.969,-1.9782,-1.9782,-1.969,-1.9782,-1.9782,-1.969,-1.969,-1.969,-1.969,-1.969,-1.969,-1.969,-1.969,-1.969,-1.969,-1.969,-1.969,-1.969,-1.969,-1.969,-1.969,-1.969,-1.969,-1.969,-1.969,-1.9442,-1.893,-1.9156,-1.8775,-1.8317,-1.7479,-1.425,-1.1423,-1.038,-0.9341,-0.8455,-0.7777,-0.7454,-0.7231,-0.7107,-0.718,-0.738,-0.7711,-0.7122,-0.6527,-0.6075,-0.562,-0.5396,-0.5406,-0.5947,-0.5949,-0.5406,-0.5682,-0.6016,-0.6264,-0.6327,-0.6019,-0.5428,-0.5409,-0.5395,-0.5395,-0.5385,-0.5572,-0.5902,-0.7436,-0.9053,-1.0607,-1.0627,-1.058,-1.0624,-1.0624,-1.0624,-1.0624,-1.0624,-1.0624,-1.0624,-1.0624,-1.0624,-1.0688,-1.1192,-1.1545,-1.1981,-1.2957,-1.3033,-1.3074,-1.418,-1.4047,-1.3542,-1.3554,-1.4426,-1.5507,-1.6331,-1.6522,-1.6522,-1.6522,-1.6522,-1.6522,-1.6522,-1.6494,-1.6477,-1.6477,-1.6509,-1.6903,-1.8025,-1.9045,-1.968,-1.9694,-1.9686,-1.9715,-1.969,-1.969,-1.969,-1.969,-1.969,-1.969,-1.969,-1.969,-1.969,-1.969,-1.969,-1.969,-1.969,-1.969,-1.969,-1.969,-1.969,-1.969,-1.969,-1.969,-1.969,-1.969,-1.969,-1.969,-1.969,-1.969,-1.969,-1.969,-1.969,-1.969,-1.969,-1.969,-1.9207,-1.8419,-1.8715,-1.8798,-1.8467,-1.6287,-1.3238,-1.0632,-0.9256,-0.9387,-0.9197,-0.8043,-0.7883,-0.7709,-0.7335,-0.7337,-0.7475,-0.7716,-0.7158,-0.6815,-0.6715,-0.5881,-0.5428,-0.5428,-0.6478,-0.6685,-0.583,-0.558,-0.5728,-0.6296,-0.6325,-0.6017,-0.5532,-0.5586,-0.5528,-0.5581,-0.5532,-0.581,-0.6272,-0.5752,-0.7442,-1.0398,-1.0556,-1.0568,-1.0621,-1.0575,-1.0624,-1.0624,-1.0624,-1.0624,-1.0618,-1.0598,-1.0591,-1.078,-1.164,-1.2004,-1.2419,-1.3767,-1.327,-1.2772,-1.4636,-1.4082,-1.2917,-1.2912,-1.422,-1.5657,-1.6343,-1.6522,-1.6522,-1.6522,-1.6522,-1.6522,-1.6522,-1.6522,-1.6522,-1.6522,-1.6503,-1.6488,-1.6501,-1.8045,-1.9169,-1.9132,-1.9473,-1.9693,-1.9705,-1.9794,-1.9809,-1.969,-1.9698,-1.9698,-1.969,-1.969,-1.969,-1.969,-1.969,-1.969,-1.969,-1.969,-1.969,-1.969,-1.969,-1.969,-1.969,-1.969,-1.969,-1.969,-1.9603,-1.9632,-1.9677,-1.9566,-1.9581,-1.9677,-1.9566,-1.95,-1.95,-1.9354,-1.8727,-1.7907,-1.9822,-1.8111,-1.6174,-1.379,-1.2847,-1.1895,-1.0237,-0.9408,-0.8857,-0.8699,-0.8646,-0.8697,-0.8867,-0.9175,-0.9147,-0.865,-0.7897,-0.718,-0.6706,-0.5881,-0.5428,-0.5428,-0.6478,-0.7245,-0.7621,-0.6199,-0.5713,-0.6281,-0.6271,-0.6264,-0.6205,-0.6177,-0.6155,-0.6176,-0.6169,-0.6225,-0.6312,-0.6204,-0.7469,-0.9528,-1.0288,-1.0605,-1.0607,-1.0578,-1.0624,-1.0624,-1.0624,-1.0624,-1.0604,-1.0622,-1.0581,-1.0629,-1.0779,-1.2056,-1.3544,-1.3767,-1.4326,-1.4805,-1.4361,-1.3599,-1.2906,-1.289,-1.462,-1.6372,-1.648,-1.6522,-1.6522,-1.6522,-1.6522,-1.6522,-1.6522,-1.6522,-1.6522,-1.6522,-1.6484,-1.6484,-1.6504,-1.6751,-1.6927,-1.6948,-1.8562,-1.9708,-1.972,-2.0228,-2.0318,-1.9735,-1.9708,-1.9701,-1.9705,-1.969,-1.969,-1.969,-1.969,-1.969,-1.969,-1.969,-1.969,-1.969,-1.969,-1.969,-1.969,-1.969,-1.969,-1.969,-1.9207,-1.9263,-1.967,-1.9006,-1.9101,-1.9618,-1.9006,-1.8749,-1.865,-1.7906,-1.7544,-1.7353,-1.9827,-1.7961,-1.5973,-1.4226,-1.2825,-1.1554,-1.0404,-0.9044,-0.8321,-0.8752,-0.8427,-0.8366,-0.8931,-0.9259,-0.9308,-0.9073,-0.8385,-0.772,-0.7083,-0.632,-0.5678,-0.5233,-0.6282,-0.6802,-0.6552,-0.6756,-0.6475,-0.5766,-0.5766,-0.5988,-0.6309,-0.6303,-0.6271,-0.6293,-0.6284,-0.6277,-0.6289,-0.6275,-0.6795,-0.7857,-1.0455,-1.1142,-1.0605,-1.0575,-1.0624,-1.0624,-1.0624,-1.0577,-1.0573,-1.0574,-1.1789,-1.33,-1.3278,-1.3322,-1.3517,-1.4408,-1.5025,-1.5331,-1.4925,-1.4576,-1.4051,-1.311,-1.4733,-1.6489,-1.6486,-1.6522,-1.6522,-1.6522,-1.6522,-1.6522,-1.6522,-1.6522,-1.6522,-1.6522,-1.6498,-1.6502,-1.6483,-1.7574,-1.8856,-2.0287,-1.9996,-1.9972,-2.0744,-2.0406,-2.0309,-2.0782,-2.0117,-1.9716,-1.9708,-1.9707,-1.969,-1.969,-1.969,-1.969,-1.969,-1.969,-1.969,-1.969,-1.969,-1.969,-1.969,-1.969,-1.953,-1.9244,-1.9006,-1.897,-1.9055,-1.8715,-1.9027,-1.9657,-1.9353,-1.8715,-1.799,-1.7491,-1.7312,-1.7229]}]]